<?xml version='1.0' encoding='UTF-8'?>
<gpx version="1.1" creator="https://www.komoot.de" xmlns="http://www.topografix.com/GPX/1/1" xmlns:xsi="http://www.w3.org/2001/XMLSchema-instance" xsi:schemaLocation="http://www.topografix.com/GPX/1/1 http://www.topografix.com/GPX/1/1/gpx.xsd">
  <metadata>
    <name>Neuilly-Chartres</name>
    <author>
      <link href="https://www.komoot.de">
        <text>komoot</text>
        <type>text/html</type>
      </link>
    </author>
  </metadata>
  <trk>
    <name>Neuilly-Chartres</name>
    <trkseg>
      <trkpt lat="48.884372" lon="2.269325">
        <ele>41.937352</ele>
        <time>2023-02-23T13:20:29.057Z</time>
      </trkpt>
      <trkpt lat="48.884439" lon="2.269026">
        <ele>41.937352</ele>
        <time>2023-02-23T13:20:33.216Z</time>
      </trkpt>
      <trkpt lat="48.884462" lon="2.268923">
        <ele>41.937352</ele>
        <time>2023-02-23T13:20:34.614Z</time>
      </trkpt>
      <trkpt lat="48.884560" lon="2.268487">
        <ele>41.937352</ele>
        <time>2023-02-23T13:20:40.395Z</time>
      </trkpt>
      <trkpt lat="48.884586" lon="2.268373">
        <ele>41.937352</ele>
        <time>2023-02-23T13:20:41.817Z</time>
      </trkpt>
      <trkpt lat="48.884663" lon="2.268043">
        <ele>41.937352</ele>
        <time>2023-02-23T13:20:45.932Z</time>
      </trkpt>
      <trkpt lat="48.884795" lon="2.267467">
        <ele>41.890550</ele>
        <time>2023-02-23T13:20:53.113Z</time>
      </trkpt>
      <trkpt lat="48.884866" lon="2.267418">
        <ele>41.881280</ele>
        <time>2023-02-23T13:20:54.409Z</time>
      </trkpt>
      <trkpt lat="48.885647" lon="2.264041">
        <ele>40.886903</ele>
        <time>2023-02-23T13:21:25.554Z</time>
      </trkpt>
      <trkpt lat="48.885604" lon="2.263934">
        <ele>40.819726</ele>
        <time>2023-02-23T13:21:26.469Z</time>
      </trkpt>
      <trkpt lat="48.885635" lon="2.263809">
        <ele>40.748159</ele>
        <time>2023-02-23T13:21:27.567Z</time>
      </trkpt>
      <trkpt lat="48.885665" lon="2.263684">
        <ele>40.676876</ele>
        <time>2023-02-23T13:21:28.607Z</time>
      </trkpt>
      <trkpt lat="48.885729" lon="2.263679">
        <ele>40.624668</ele>
        <time>2023-02-23T13:21:29.340Z</time>
      </trkpt>
      <trkpt lat="48.885795" lon="2.263389">
        <ele>40.460273</ele>
        <time>2023-02-23T13:21:31.689Z</time>
      </trkpt>
      <trkpt lat="48.885951" lon="2.262734">
        <ele>40.186572</ele>
        <time>2023-02-23T13:21:37.202Z</time>
      </trkpt>
      <trkpt lat="48.885924" lon="2.262633">
        <ele>40.162127</ele>
        <time>2023-02-23T13:21:38.081Z</time>
      </trkpt>
      <trkpt lat="48.886180" lon="2.262095">
        <ele>40.013234</ele>
        <time>2023-02-23T13:21:43.524Z</time>
      </trkpt>
      <trkpt lat="48.886348" lon="2.261853">
        <ele>39.934334</ele>
        <time>2023-02-23T13:21:46.941Z</time>
      </trkpt>
      <trkpt lat="48.886381" lon="2.261735">
        <ele>39.905584</ele>
        <time>2023-02-23T13:21:48.082Z</time>
      </trkpt>
      <trkpt lat="48.886281" lon="2.261709">
        <ele>39.870993</ele>
        <time>2023-02-23T13:21:49.414Z</time>
      </trkpt>
      <trkpt lat="48.886269" lon="2.261797">
        <ele>39.850843</ele>
        <time>2023-02-23T13:21:50.329Z</time>
      </trkpt>
      <trkpt lat="48.886253" lon="2.261907">
        <ele>39.825584</ele>
        <time>2023-02-23T13:21:51.432Z</time>
      </trkpt>
      <trkpt lat="48.886180" lon="2.262095">
        <ele>39.776632</ele>
        <time>2023-02-23T13:21:53.352Z</time>
      </trkpt>
      <trkpt lat="48.886348" lon="2.261853">
        <ele>39.697732</ele>
        <time>2023-02-23T13:21:57.017Z</time>
      </trkpt>
      <trkpt lat="48.886381" lon="2.261735">
        <ele>39.668983</ele>
        <time>2023-02-23T13:21:58.304Z</time>
      </trkpt>
      <trkpt lat="48.886281" lon="2.261709">
        <ele>39.685578</ele>
        <time>2023-02-23T13:21:59.752Z</time>
      </trkpt>
      <trkpt lat="48.886199" lon="2.261603">
        <ele>39.827595</ele>
        <time>2023-02-23T13:22:01.719Z</time>
      </trkpt>
      <trkpt lat="48.886167" lon="2.261485">
        <ele>39.938352</ele>
        <time>2023-02-23T13:22:03.293Z</time>
      </trkpt>
      <trkpt lat="48.886167" lon="2.261414">
        <ele>39.999960</ele>
        <time>2023-02-23T13:22:04.208Z</time>
      </trkpt>
      <trkpt lat="48.886201" lon="2.261343">
        <ele>40.076175</ele>
        <time>2023-02-23T13:22:05.232Z</time>
      </trkpt>
      <trkpt lat="48.886247" lon="2.261313">
        <ele>40.142223</ele>
        <time>2023-02-23T13:22:06.131Z</time>
      </trkpt>
      <trkpt lat="48.885937" lon="2.261143">
        <ele>40.577087</ele>
        <time>2023-02-23T13:22:13.137Z</time>
      </trkpt>
      <trkpt lat="48.885580" lon="2.260958">
        <ele>41.074788</ele>
        <time>2023-02-23T13:22:20.992Z</time>
      </trkpt>
      <trkpt lat="48.885436" lon="2.260881">
        <ele>41.276217</ele>
        <time>2023-02-23T13:22:24.440Z</time>
      </trkpt>
      <trkpt lat="48.885050" lon="2.260673">
        <ele>41.816620</ele>
        <time>2023-02-23T13:22:33.692Z</time>
      </trkpt>
      <trkpt lat="48.884959" lon="2.260633">
        <ele>41.941620</ele>
        <time>2023-02-23T13:22:35.808Z</time>
      </trkpt>
      <trkpt lat="48.884944" lon="2.260441">
        <ele>42.054159</ele>
        <time>2023-02-23T13:22:38.557Z</time>
      </trkpt>
      <trkpt lat="48.884868" lon="2.260282">
        <ele>42.121171</ele>
        <time>2023-02-23T13:22:41.903Z</time>
      </trkpt>
      <trkpt lat="48.884746" lon="2.260215">
        <ele>42.188419</ele>
        <time>2023-02-23T13:22:45.222Z</time>
      </trkpt>
      <trkpt lat="48.884621" lon="2.260264">
        <ele>42.255342</ele>
        <time>2023-02-23T13:22:48.335Z</time>
      </trkpt>
      <trkpt lat="48.884539" lon="2.260417">
        <ele>42.322631</ele>
        <time>2023-02-23T13:22:51.234Z</time>
      </trkpt>
      <trkpt lat="48.884434" lon="2.260368">
        <ele>42.379573</ele>
        <time>2023-02-23T13:22:53.143Z</time>
      </trkpt>
      <trkpt lat="48.883753" lon="2.260045">
        <ele>42.749403</ele>
        <time>2023-02-23T13:23:03.967Z</time>
      </trkpt>
      <trkpt lat="48.883262" lon="2.259812">
        <ele>42.891359</ele>
        <time>2023-02-23T13:23:11.252Z</time>
      </trkpt>
      <trkpt lat="48.883001" lon="2.259688">
        <ele>42.761832</ele>
        <time>2023-02-23T13:23:15.581Z</time>
      </trkpt>
      <trkpt lat="48.882898" lon="2.259639">
        <ele>42.710709</ele>
        <time>2023-02-23T13:23:17.148Z</time>
      </trkpt>
      <trkpt lat="48.882179" lon="2.259298">
        <ele>42.353942</ele>
        <time>2023-02-23T13:23:27.524Z</time>
      </trkpt>
      <trkpt lat="48.881527" lon="2.258989">
        <ele>41.977447</ele>
        <time>2023-02-23T13:23:35.622Z</time>
      </trkpt>
      <trkpt lat="48.881478" lon="2.258965">
        <ele>41.934182</ele>
        <time>2023-02-23T13:23:36.300Z</time>
      </trkpt>
      <trkpt lat="48.881450" lon="2.258952">
        <ele>41.909578</ele>
        <time>2023-02-23T13:23:36.689Z</time>
      </trkpt>
      <trkpt lat="48.881049" lon="2.258653">
        <ele>41.534227</ele>
        <time>2023-02-23T13:23:42.405Z</time>
      </trkpt>
      <trkpt lat="48.880486" lon="2.258389">
        <ele>41.039075</ele>
        <time>2023-02-23T13:23:49.809Z</time>
      </trkpt>
      <trkpt lat="48.880417" lon="2.258356">
        <ele>40.978284</ele>
        <time>2023-02-23T13:23:50.697Z</time>
      </trkpt>
      <trkpt lat="48.880316" lon="2.258298">
        <ele>40.887549</ele>
        <time>2023-02-23T13:23:52.013Z</time>
      </trkpt>
      <trkpt lat="48.880189" lon="2.258231">
        <ele>40.774572</ele>
        <time>2023-02-23T13:23:53.627Z</time>
      </trkpt>
      <trkpt lat="48.879928" lon="2.258141">
        <ele>40.566767</ele>
        <time>2023-02-23T13:23:56.799Z</time>
      </trkpt>
      <trkpt lat="48.877318" lon="2.256790">
        <ele>39.510734</ele>
        <time>2023-02-23T13:24:34.316Z</time>
      </trkpt>
      <trkpt lat="48.877286" lon="2.256937">
        <ele>39.485039</ele>
        <time>2023-02-23T13:24:41.389Z</time>
      </trkpt>
      <trkpt lat="48.877318" lon="2.256790">
        <ele>39.459343</ele>
        <time>2023-02-23T13:24:48.461Z</time>
      </trkpt>
      <trkpt lat="48.876979" lon="2.256619">
        <ele>39.369224</ele>
        <time>2023-02-23T13:24:53.773Z</time>
      </trkpt>
      <trkpt lat="48.876826" lon="2.256493">
        <ele>39.325321</ele>
        <time>2023-02-23T13:24:56.179Z</time>
      </trkpt>
      <trkpt lat="48.876760" lon="2.256469">
        <ele>39.307624</ele>
        <time>2023-02-23T13:24:57.382Z</time>
      </trkpt>
      <trkpt lat="48.876038" lon="2.256146">
        <ele>39.057991</ele>
        <time>2023-02-23T13:25:07.718Z</time>
      </trkpt>
      <trkpt lat="48.875779" lon="2.256018">
        <ele>38.967659</ele>
        <time>2023-02-23T13:25:11.090Z</time>
      </trkpt>
      <trkpt lat="48.875668" lon="2.255964">
        <ele>38.929002</ele>
        <time>2023-02-23T13:25:12.624Z</time>
      </trkpt>
      <trkpt lat="48.875600" lon="2.255929">
        <ele>38.905190</ele>
        <time>2023-02-23T13:25:13.611Z</time>
      </trkpt>
      <trkpt lat="48.874449" lon="2.255328">
        <ele>38.467961</ele>
        <time>2023-02-23T13:25:31.014Z</time>
      </trkpt>
      <trkpt lat="48.874340" lon="2.255216">
        <ele>38.417413</ele>
        <time>2023-02-23T13:25:32.772Z</time>
      </trkpt>
      <trkpt lat="48.874251" lon="2.255124">
        <ele>38.376061</ele>
        <time>2023-02-23T13:25:34.236Z</time>
      </trkpt>
      <trkpt lat="48.874214" lon="2.255027">
        <ele>38.347724</ele>
        <time>2023-02-23T13:25:35.218Z</time>
      </trkpt>
      <trkpt lat="48.874093" lon="2.254966">
        <ele>38.298742</ele>
        <time>2023-02-23T13:25:36.845Z</time>
      </trkpt>
      <trkpt lat="48.874012" lon="2.255030">
        <ele>38.263668</ele>
        <time>2023-02-23T13:25:38.010Z</time>
      </trkpt>
      <trkpt lat="48.873973" lon="2.255204">
        <ele>38.217212</ele>
        <time>2023-02-23T13:25:39.602Z</time>
      </trkpt>
      <trkpt lat="48.873983" lon="2.255264">
        <ele>38.201570</ele>
        <time>2023-02-23T13:25:40.143Z</time>
      </trkpt>
      <trkpt lat="48.873994" lon="2.255296">
        <ele>38.192445</ele>
        <time>2023-02-23T13:25:40.447Z</time>
      </trkpt>
      <trkpt lat="48.874045" lon="2.255369">
        <ele>38.165532</ele>
        <time>2023-02-23T13:25:41.346Z</time>
      </trkpt>
      <trkpt lat="48.874114" lon="2.255396">
        <ele>38.138156</ele>
        <time>2023-02-23T13:25:42.239Z</time>
      </trkpt>
      <trkpt lat="48.874175" lon="2.255375">
        <ele>38.114124</ele>
        <time>2023-02-23T13:25:43.064Z</time>
      </trkpt>
      <trkpt lat="48.874225" lon="2.255315">
        <ele>38.089650</ele>
        <time>2023-02-23T13:25:43.896Z</time>
      </trkpt>
      <trkpt lat="48.874242" lon="2.255274">
        <ele>38.077401</ele>
        <time>2023-02-23T13:25:44.316Z</time>
      </trkpt>
      <trkpt lat="48.874247" lon="2.255195">
        <ele>38.057345</ele>
        <time>2023-02-23T13:25:45.001Z</time>
      </trkpt>
      <trkpt lat="48.874251" lon="2.255124">
        <ele>38.039336</ele>
        <time>2023-02-23T13:25:45.601Z</time>
      </trkpt>
      <trkpt lat="48.874214" lon="2.255027">
        <ele>38.016585</ele>
        <time>2023-02-23T13:25:46.533Z</time>
      </trkpt>
      <trkpt lat="48.874213" lon="2.254883">
        <ele>37.998130</ele>
        <time>2023-02-23T13:25:47.763Z</time>
      </trkpt>
      <trkpt lat="48.874212" lon="2.254666">
        <ele>37.970321</ele>
        <time>2023-02-23T13:25:49.643Z</time>
      </trkpt>
      <trkpt lat="48.874795" lon="2.252263">
        <ele>37.626871</ele>
        <time>2023-02-23T13:26:14.127Z</time>
      </trkpt>
      <trkpt lat="48.874916" lon="2.251790">
        <ele>37.528594</ele>
        <time>2023-02-23T13:26:18.709Z</time>
      </trkpt>
      <trkpt lat="48.875024" lon="2.251339">
        <ele>37.435653</ele>
        <time>2023-02-23T13:26:23.150Z</time>
      </trkpt>
      <trkpt lat="48.875076" lon="2.251127">
        <ele>37.391839</ele>
        <time>2023-02-23T13:26:25.280Z</time>
      </trkpt>
      <trkpt lat="48.875397" lon="2.249835">
        <ele>37.065061</ele>
        <time>2023-02-23T13:26:38.073Z</time>
      </trkpt>
      <trkpt lat="48.875444" lon="2.249646">
        <ele>36.896393</ele>
        <time>2023-02-23T13:26:39.831Z</time>
      </trkpt>
      <trkpt lat="48.875539" lon="2.249250">
        <ele>36.544531</ele>
        <time>2023-02-23T13:26:43.205Z</time>
      </trkpt>
      <trkpt lat="48.875846" lon="2.248017">
        <ele>35.444009</ele>
        <time>2023-02-23T13:26:53.179Z</time>
      </trkpt>
      <trkpt lat="48.875882" lon="2.247867">
        <ele>35.310722</ele>
        <time>2023-02-23T13:26:54.391Z</time>
      </trkpt>
      <trkpt lat="48.875997" lon="2.247395">
        <ele>34.890559</ele>
        <time>2023-02-23T13:26:58.197Z</time>
      </trkpt>
      <trkpt lat="48.876071" lon="2.246960">
        <ele>34.544743</ele>
        <time>2023-02-23T13:27:01.488Z</time>
      </trkpt>
      <trkpt lat="48.876167" lon="2.246661">
        <ele>34.290617</ele>
        <time>2023-02-23T13:27:03.911Z</time>
      </trkpt>
      <trkpt lat="48.876194" lon="2.246573">
        <ele>34.216451</ele>
        <time>2023-02-23T13:27:04.620Z</time>
      </trkpt>
      <trkpt lat="48.876227" lon="2.246475">
        <ele>34.132361</ele>
        <time>2023-02-23T13:27:05.466Z</time>
      </trkpt>
      <trkpt lat="48.876310" lon="2.246237">
        <ele>33.926610</ele>
        <time>2023-02-23T13:27:07.512Z</time>
      </trkpt>
      <trkpt lat="48.876935" lon="2.244759">
        <ele>32.763939</ele>
        <time>2023-02-23T13:27:22.015Z</time>
      </trkpt>
      <trkpt lat="48.877342" lon="2.244067">
        <ele>32.738028</ele>
        <time>2023-02-23T13:27:30.262Z</time>
      </trkpt>
      <trkpt lat="48.877432" lon="2.243933">
        <ele>32.732682</ele>
        <time>2023-02-23T13:27:32.036Z</time>
      </trkpt>
      <trkpt lat="48.877831" lon="2.243386">
        <ele>32.709883</ele>
        <time>2023-02-23T13:27:43.156Z</time>
      </trkpt>
      <trkpt lat="48.877972" lon="2.243192">
        <ele>32.701813</ele>
        <time>2023-02-23T13:27:47.369Z</time>
      </trkpt>
      <trkpt lat="48.878259" lon="2.242803">
        <ele>32.841886</ele>
        <time>2023-02-23T13:27:54.328Z</time>
      </trkpt>
      <trkpt lat="48.878293" lon="2.242767">
        <ele>32.870975</ele>
        <time>2023-02-23T13:27:55.055Z</time>
      </trkpt>
      <trkpt lat="48.878445" lon="2.242564">
        <ele>33.013012</ele>
        <time>2023-02-23T13:27:58.652Z</time>
      </trkpt>
      <trkpt lat="48.878485" lon="2.242511">
        <ele>33.050263</ele>
        <time>2023-02-23T13:27:59.713Z</time>
      </trkpt>
      <trkpt lat="48.878554" lon="2.242426">
        <ele>33.112610</ele>
        <time>2023-02-23T13:28:01.380Z</time>
      </trkpt>
      <trkpt lat="48.878859" lon="2.241921">
        <ele>33.429196</ele>
        <time>2023-02-23T13:28:09.345Z</time>
      </trkpt>
      <trkpt lat="48.878891" lon="2.241864">
        <ele>33.463801</ele>
        <time>2023-02-23T13:28:10.201Z</time>
      </trkpt>
      <trkpt lat="48.878917" lon="2.241820">
        <ele>33.491113</ele>
        <time>2023-02-23T13:28:10.900Z</time>
      </trkpt>
      <trkpt lat="48.879147" lon="2.241344">
        <ele>33.763843</ele>
        <time>2023-02-23T13:28:17.780Z</time>
      </trkpt>
      <trkpt lat="48.879533" lon="2.240544">
        <ele>34.145696</ele>
        <time>2023-02-23T13:28:29.205Z</time>
      </trkpt>
      <trkpt lat="48.879564" lon="2.240479">
        <ele>34.172087</ele>
        <time>2023-02-23T13:28:30.175Z</time>
      </trkpt>
      <trkpt lat="48.879380" lon="2.240243">
        <ele>34.292397</ele>
        <time>2023-02-23T13:28:34.329Z</time>
      </trkpt>
      <trkpt lat="48.879345" lon="2.240202">
        <ele>34.314479</ele>
        <time>2023-02-23T13:28:35.099Z</time>
      </trkpt>
      <trkpt lat="48.879400" lon="2.239145">
        <ele>34.662989</ele>
        <time>2023-02-23T13:28:47.113Z</time>
      </trkpt>
      <trkpt lat="48.879431" lon="2.238625">
        <ele>34.834608</ele>
        <time>2023-02-23T13:28:52.361Z</time>
      </trkpt>
      <trkpt lat="48.879485" lon="2.237886">
        <ele>35.075124</ele>
        <time>2023-02-23T13:28:59.482Z</time>
      </trkpt>
      <trkpt lat="48.879559" lon="2.236881">
        <ele>35.401732</ele>
        <time>2023-02-23T13:29:10.039Z</time>
      </trkpt>
      <trkpt lat="48.879572" lon="2.236640">
        <ele>35.479828</ele>
        <time>2023-02-23T13:29:12.701Z</time>
      </trkpt>
      <trkpt lat="48.879614" lon="2.236372">
        <ele>35.568806</ele>
        <time>2023-02-23T13:29:15.782Z</time>
      </trkpt>
      <trkpt lat="48.879717" lon="2.235463">
        <ele>36.364458</ele>
        <time>2023-02-23T13:29:27.481Z</time>
      </trkpt>
      <trkpt lat="48.879758" lon="2.234586">
        <ele>37.759375</ele>
        <time>2023-02-23T13:29:40.461Z</time>
      </trkpt>
      <trkpt lat="48.879759" lon="2.234544">
        <ele>37.826054</ele>
        <time>2023-02-23T13:29:41.107Z</time>
      </trkpt>
      <trkpt lat="48.879761" lon="2.234503">
        <ele>37.891281</ele>
        <time>2023-02-23T13:29:41.758Z</time>
      </trkpt>
      <trkpt lat="48.879766" lon="2.234387">
        <ele>38.075716</ele>
        <time>2023-02-23T13:29:43.593Z</time>
      </trkpt>
      <trkpt lat="48.879787" lon="2.233838">
        <ele>38.948204</ele>
        <time>2023-02-23T13:29:53.143Z</time>
      </trkpt>
      <trkpt lat="48.879813" lon="2.233350">
        <ele>39.724977</ele>
        <time>2023-02-23T13:30:02.203Z</time>
      </trkpt>
      <trkpt lat="48.879846" lon="2.232524">
        <ele>41.779087</ele>
        <time>2023-02-23T13:30:18.575Z</time>
      </trkpt>
      <trkpt lat="48.879883" lon="2.231612">
        <ele>44.348991</ele>
        <time>2023-02-23T13:30:37.262Z</time>
      </trkpt>
      <trkpt lat="48.879906" lon="2.231610">
        <ele>44.447515</ele>
        <time>2023-02-23T13:30:38.037Z</time>
      </trkpt>
      <trkpt lat="48.879948" lon="2.231580">
        <ele>44.645967</ele>
        <time>2023-02-23T13:30:39.601Z</time>
      </trkpt>
      <trkpt lat="48.879979" lon="2.231481">
        <ele>44.954359</ele>
        <time>2023-02-23T13:30:41.954Z</time>
      </trkpt>
      <trkpt lat="48.879966" lon="2.231409">
        <ele>45.164355</ele>
        <time>2023-02-23T13:30:43.513Z</time>
      </trkpt>
      <trkpt lat="48.879958" lon="2.231254">
        <ele>45.601636</ele>
        <time>2023-02-23T13:30:46.806Z</time>
      </trkpt>
      <trkpt lat="48.879947" lon="2.230946">
        <ele>46.469171</ele>
        <time>2023-02-23T13:30:53.675Z</time>
      </trkpt>
      <trkpt lat="48.879936" lon="2.230656">
        <ele>47.286159</ele>
        <time>2023-02-23T13:31:00.073Z</time>
      </trkpt>
      <trkpt lat="48.879965" lon="2.230484">
        <ele>47.789789</ele>
        <time>2023-02-23T13:31:04.151Z</time>
      </trkpt>
      <trkpt lat="48.880224" lon="2.229869">
        <ele>50.438465</ele>
        <time>2023-02-23T13:31:21.609Z</time>
      </trkpt>
      <trkpt lat="48.879810" lon="2.229176">
        <ele>53.834092</ele>
        <time>2023-02-23T13:31:42.873Z</time>
      </trkpt>
      <trkpt lat="48.879711" lon="2.229017">
        <ele>54.628227</ele>
        <time>2023-02-23T13:31:48.771Z</time>
      </trkpt>
      <trkpt lat="48.879565" lon="2.228781">
        <ele>55.803375</ele>
        <time>2023-02-23T13:31:56.367Z</time>
      </trkpt>
      <trkpt lat="48.879491" lon="2.228663">
        <ele>56.394741</ele>
        <time>2023-02-23T13:32:01.179Z</time>
      </trkpt>
      <trkpt lat="48.879216" lon="2.227861">
        <ele>60.005287</ele>
        <time>2023-02-23T13:32:24.995Z</time>
      </trkpt>
      <trkpt lat="48.878996" lon="2.226636">
        <ele>65.377037</ele>
        <time>2023-02-23T13:33:00.630Z</time>
      </trkpt>
      <trkpt lat="48.878932" lon="2.226266">
        <ele>66.995451</ele>
        <time>2023-02-23T13:33:10.743Z</time>
      </trkpt>
      <trkpt lat="48.878223" lon="2.223852">
        <ele>76.473364</ele>
        <time>2023-02-23T13:34:16.533Z</time>
      </trkpt>
      <trkpt lat="48.878126" lon="2.223566">
        <ele>77.574271</ele>
        <time>2023-02-23T13:34:23.201Z</time>
      </trkpt>
      <trkpt lat="48.876973" lon="2.221814">
        <ele>83.602242</ele>
        <time>2023-02-23T13:35:17.730Z</time>
      </trkpt>
      <trkpt lat="48.877422" lon="2.221128">
        <ele>86.017424</ele>
        <time>2023-02-23T13:35:35.801Z</time>
      </trkpt>
      <trkpt lat="48.877642" lon="2.220802">
        <ele>87.313113</ele>
        <time>2023-02-23T13:35:45.339Z</time>
      </trkpt>
      <trkpt lat="48.877070" lon="2.220101">
        <ele>90.411801</ele>
        <time>2023-02-23T13:36:09.896Z</time>
      </trkpt>
      <trkpt lat="48.876964" lon="2.219998">
        <ele>90.942390</ele>
        <time>2023-02-23T13:36:13.863Z</time>
      </trkpt>
      <trkpt lat="48.876791" lon="2.219701">
        <ele>92.042938</ele>
        <time>2023-02-23T13:36:22.516Z</time>
      </trkpt>
      <trkpt lat="48.876502" lon="2.218900">
        <ele>94.577738</ele>
        <time>2023-02-23T13:36:41.329Z</time>
      </trkpt>
      <trkpt lat="48.876390" lon="2.218572">
        <ele>95.603149</ele>
        <time>2023-02-23T13:36:49.065Z</time>
      </trkpt>
      <trkpt lat="48.876318" lon="2.218496">
        <ele>95.972916</ele>
        <time>2023-02-23T13:36:52.408Z</time>
      </trkpt>
      <trkpt lat="48.876199" lon="2.218507">
        <ele>96.475870</ele>
        <time>2023-02-23T13:36:55.982Z</time>
      </trkpt>
      <trkpt lat="48.875966" lon="2.218859">
        <ele>97.861537</ele>
        <time>2023-02-23T13:37:07.236Z</time>
      </trkpt>
      <trkpt lat="48.875658" lon="2.219218">
        <ele>99.498771</ele>
        <time>2023-02-23T13:37:19.342Z</time>
      </trkpt>
      <trkpt lat="48.875544" lon="2.219305">
        <ele>100.036886</ele>
        <time>2023-02-23T13:37:23.533Z</time>
      </trkpt>
      <trkpt lat="48.875458" lon="2.219332">
        <ele>100.238347</ele>
        <time>2023-02-23T13:37:26.238Z</time>
      </trkpt>
      <trkpt lat="48.875307" lon="2.219327">
        <ele>100.562669</ele>
        <time>2023-02-23T13:37:30.233Z</time>
      </trkpt>
      <trkpt lat="48.875362" lon="2.219079">
        <ele>100.932293</ele>
        <time>2023-02-23T13:37:35.046Z</time>
      </trkpt>
      <trkpt lat="48.875389" lon="2.218931">
        <ele>101.149203</ele>
        <time>2023-02-23T13:37:37.771Z</time>
      </trkpt>
      <trkpt lat="48.875517" lon="2.218261">
        <ele>102.134546</ele>
        <time>2023-02-23T13:37:48.084Z</time>
      </trkpt>
      <trkpt lat="48.875597" lon="2.218045">
        <ele>102.484642</ele>
        <time>2023-02-23T13:37:51.761Z</time>
      </trkpt>
      <trkpt lat="48.875676" lon="2.217833">
        <ele>102.828764</ele>
        <time>2023-02-23T13:37:54.982Z</time>
      </trkpt>
      <trkpt lat="48.875678" lon="2.217731">
        <ele>102.972880</ele>
        <time>2023-02-23T13:37:56.517Z</time>
      </trkpt>
      <trkpt lat="48.875641" lon="2.217613">
        <ele>103.157500</ele>
        <time>2023-02-23T13:37:58.391Z</time>
      </trkpt>
      <trkpt lat="48.875536" lon="2.217674">
        <ele>103.398866</ele>
        <time>2023-02-23T13:38:00.463Z</time>
      </trkpt>
      <trkpt lat="48.875423" lon="2.217743">
        <ele>103.660349</ele>
        <time>2023-02-23T13:38:02.687Z</time>
      </trkpt>
      <trkpt lat="48.875324" lon="2.217802">
        <ele>103.888680</ele>
        <time>2023-02-23T13:38:05.106Z</time>
      </trkpt>
      <trkpt lat="48.874916" lon="2.217755">
        <ele>103.482177</ele>
        <time>2023-02-23T13:38:12.554Z</time>
      </trkpt>
      <trkpt lat="48.874595" lon="2.217710">
        <ele>103.117746</ele>
        <time>2023-02-23T13:38:17.472Z</time>
      </trkpt>
      <trkpt lat="48.874079" lon="2.217634">
        <ele>102.531675</ele>
        <time>2023-02-23T13:38:24.116Z</time>
      </trkpt>
      <trkpt lat="48.873998" lon="2.217623">
        <ele>102.439740</ele>
        <time>2023-02-23T13:38:24.987Z</time>
      </trkpt>
      <trkpt lat="48.873281" lon="2.217573">
        <ele>100.969492</ele>
        <time>2023-02-23T13:38:32.102Z</time>
      </trkpt>
      <trkpt lat="48.873027" lon="2.217656">
        <ele>99.942050</ele>
        <time>2023-02-23T13:38:34.569Z</time>
      </trkpt>
      <trkpt lat="48.872826" lon="2.217865">
        <ele>98.979026</ele>
        <time>2023-02-23T13:38:36.893Z</time>
      </trkpt>
      <trkpt lat="48.872283" lon="2.218707">
        <ele>95.911723</ele>
        <time>2023-02-23T13:38:44.436Z</time>
      </trkpt>
      <trkpt lat="48.872119" lon="2.218911">
        <ele>95.073729</ele>
        <time>2023-02-23T13:38:46.540Z</time>
      </trkpt>
      <trkpt lat="48.871990" lon="2.218977">
        <ele>94.640822</ele>
        <time>2023-02-23T13:38:47.867Z</time>
      </trkpt>
      <trkpt lat="48.871861" lon="2.218981">
        <ele>94.351430</ele>
        <time>2023-02-23T13:38:49.139Z</time>
      </trkpt>
      <trkpt lat="48.871706" lon="2.218900">
        <ele>93.983818</ele>
        <time>2023-02-23T13:38:50.742Z</time>
      </trkpt>
      <trkpt lat="48.870545" lon="2.218216">
        <ele>91.191144</ele>
        <time>2023-02-23T13:39:03.929Z</time>
      </trkpt>
      <trkpt lat="48.870470" lon="2.218144">
        <ele>90.992198</ele>
        <time>2023-02-23T13:39:05.296Z</time>
      </trkpt>
      <trkpt lat="48.870022" lon="2.217597">
        <ele>91.030509</ele>
        <time>2023-02-23T13:39:15.274Z</time>
      </trkpt>
      <trkpt lat="48.869905" lon="2.217518">
        <ele>91.109317</ele>
        <time>2023-02-23T13:39:17.614Z</time>
      </trkpt>
      <trkpt lat="48.869791" lon="2.217472">
        <ele>91.181923</ele>
        <time>2023-02-23T13:39:19.824Z</time>
      </trkpt>
      <trkpt lat="48.869598" lon="2.217442">
        <ele>91.301351</ele>
        <time>2023-02-23T13:39:23.273Z</time>
      </trkpt>
      <trkpt lat="48.869379" lon="2.217442">
        <ele>91.436164</ele>
        <time>2023-02-23T13:39:27.337Z</time>
      </trkpt>
      <trkpt lat="48.869254" lon="2.217400">
        <ele>91.514969</ele>
        <time>2023-02-23T13:39:29.625Z</time>
      </trkpt>
      <trkpt lat="48.868659" lon="2.217396">
        <ele>91.867387</ele>
        <time>2023-02-23T13:39:40.971Z</time>
      </trkpt>
      <trkpt lat="48.868527" lon="2.217382">
        <ele>91.910320</ele>
        <time>2023-02-23T13:39:43.628Z</time>
      </trkpt>
      <trkpt lat="48.868313" lon="2.217384">
        <ele>91.979756</ele>
        <time>2023-02-23T13:39:47.585Z</time>
      </trkpt>
      <trkpt lat="48.868158" lon="2.217347">
        <ele>92.030663</ele>
        <time>2023-02-23T13:39:50.554Z</time>
      </trkpt>
      <trkpt lat="48.867648" lon="2.217001">
        <ele>92.211868</ele>
        <time>2023-02-23T13:39:59.987Z</time>
      </trkpt>
      <trkpt lat="48.867497" lon="2.216898">
        <ele>92.265568</ele>
        <time>2023-02-23T13:40:02.614Z</time>
      </trkpt>
      <trkpt lat="48.867182" lon="2.216674">
        <ele>92.378402</ele>
        <time>2023-02-23T13:40:07.641Z</time>
      </trkpt>
      <trkpt lat="48.867144" lon="2.216648">
        <ele>92.391923</ele>
        <time>2023-02-23T13:40:08.254Z</time>
      </trkpt>
      <trkpt lat="48.867102" lon="2.216617">
        <ele>92.407072</ele>
        <time>2023-02-23T13:40:08.944Z</time>
      </trkpt>
      <trkpt lat="48.866979" lon="2.216524">
        <ele>92.383713</ele>
        <time>2023-02-23T13:40:10.626Z</time>
      </trkpt>
      <trkpt lat="48.866769" lon="2.216275">
        <ele>92.105863</ele>
        <time>2023-02-23T13:40:14.075Z</time>
      </trkpt>
      <trkpt lat="48.866755" lon="2.216253">
        <ele>92.084856</ele>
        <time>2023-02-23T13:40:14.303Z</time>
      </trkpt>
      <trkpt lat="48.866734" lon="2.216234">
        <ele>92.059361</ele>
        <time>2023-02-23T13:40:14.575Z</time>
      </trkpt>
      <trkpt lat="48.866403" lon="2.215843">
        <ele>91.622036</ele>
        <time>2023-02-23T13:40:19.530Z</time>
      </trkpt>
      <trkpt lat="48.866158" lon="2.215538">
        <ele>91.291663</ele>
        <time>2023-02-23T13:40:23.339Z</time>
      </trkpt>
      <trkpt lat="48.866131" lon="2.215505">
        <ele>91.255520</ele>
        <time>2023-02-23T13:40:23.723Z</time>
      </trkpt>
      <trkpt lat="48.866100" lon="2.215466">
        <ele>91.213539</ele>
        <time>2023-02-23T13:40:24.198Z</time>
      </trkpt>
      <trkpt lat="48.866047" lon="2.215402">
        <ele>91.142924</ele>
        <time>2023-02-23T13:40:25.044Z</time>
      </trkpt>
      <trkpt lat="48.865856" lon="2.215171">
        <ele>90.888288</ele>
        <time>2023-02-23T13:40:27.826Z</time>
      </trkpt>
      <trkpt lat="48.865820" lon="2.215126">
        <ele>90.839663</ele>
        <time>2023-02-23T13:40:28.372Z</time>
      </trkpt>
      <trkpt lat="48.865817" lon="2.215229">
        <ele>90.768906</ele>
        <time>2023-02-23T13:40:29.215Z</time>
      </trkpt>
      <trkpt lat="48.865719" lon="2.215113">
        <ele>90.639326</ele>
        <time>2023-02-23T13:40:30.708Z</time>
      </trkpt>
      <trkpt lat="48.865288" lon="2.214584">
        <ele>90.290953</ele>
        <time>2023-02-23T13:40:37.283Z</time>
      </trkpt>
      <trkpt lat="48.865173" lon="2.214445">
        <ele>90.208376</ele>
        <time>2023-02-23T13:40:39.232Z</time>
      </trkpt>
      <trkpt lat="48.864627" lon="2.213782">
        <ele>89.815612</ele>
        <time>2023-02-23T13:40:48.436Z</time>
      </trkpt>
      <trkpt lat="48.864517" lon="2.213642">
        <ele>89.734978</ele>
        <time>2023-02-23T13:40:50.595Z</time>
      </trkpt>
      <trkpt lat="48.864414" lon="2.213520">
        <ele>89.661589</ele>
        <time>2023-02-23T13:40:52.477Z</time>
      </trkpt>
      <trkpt lat="48.863829" lon="2.212817">
        <ele>89.335180</ele>
        <time>2023-02-23T13:41:03.869Z</time>
      </trkpt>
      <trkpt lat="48.863781" lon="2.212765">
        <ele>89.312100</ele>
        <time>2023-02-23T13:41:04.693Z</time>
      </trkpt>
      <trkpt lat="48.863703" lon="2.212645">
        <ele>89.268646</ele>
        <time>2023-02-23T13:41:06.327Z</time>
      </trkpt>
      <trkpt lat="48.863430" lon="2.212321">
        <ele>89.133029</ele>
        <time>2023-02-23T13:41:11.010Z</time>
      </trkpt>
      <trkpt lat="48.863326" lon="2.212201">
        <ele>89.081904</ele>
        <time>2023-02-23T13:41:12.770Z</time>
      </trkpt>
      <trkpt lat="48.863176" lon="2.212337">
        <ele>89.013516</ele>
        <time>2023-02-23T13:41:15.020Z</time>
      </trkpt>
      <trkpt lat="48.863074" lon="2.212344">
        <ele>88.973537</ele>
        <time>2023-02-23T13:41:16.434Z</time>
      </trkpt>
      <trkpt lat="48.863015" lon="2.212349">
        <ele>88.950399</ele>
        <time>2023-02-23T13:41:17.207Z</time>
      </trkpt>
      <trkpt lat="48.862024" lon="2.212430">
        <ele>88.041617</ele>
        <time>2023-02-23T13:41:29.338Z</time>
      </trkpt>
      <trkpt lat="48.861809" lon="2.212390">
        <ele>87.800384</ele>
        <time>2023-02-23T13:41:31.792Z</time>
      </trkpt>
      <trkpt lat="48.861663" lon="2.212359">
        <ele>87.636204</ele>
        <time>2023-02-23T13:41:33.458Z</time>
      </trkpt>
      <trkpt lat="48.861624" lon="2.212417">
        <ele>87.575439</ele>
        <time>2023-02-23T13:41:34.070Z</time>
      </trkpt>
      <trkpt lat="48.861587" lon="2.212470">
        <ele>87.518817</ele>
        <time>2023-02-23T13:41:34.634Z</time>
      </trkpt>
      <trkpt lat="48.861512" lon="2.212578">
        <ele>87.403759</ele>
        <time>2023-02-23T13:41:35.788Z</time>
      </trkpt>
      <trkpt lat="48.861331" lon="2.212795">
        <ele>87.147023</ele>
        <time>2023-02-23T13:41:38.408Z</time>
      </trkpt>
      <trkpt lat="48.860970" lon="2.212975">
        <ele>86.958781</ele>
        <time>2023-02-23T13:41:42.917Z</time>
      </trkpt>
      <trkpt lat="48.860862" lon="2.213023">
        <ele>87.085469</ele>
        <time>2023-02-23T13:41:44.408Z</time>
      </trkpt>
      <trkpt lat="48.860077" lon="2.213405">
        <ele>88.013488</ele>
        <time>2023-02-23T13:41:59.367Z</time>
      </trkpt>
      <trkpt lat="48.859860" lon="2.213492">
        <ele>88.266163</ele>
        <time>2023-02-23T13:42:04.179Z</time>
      </trkpt>
      <trkpt lat="48.859668" lon="2.213484">
        <ele>88.482417</ele>
        <time>2023-02-23T13:42:08.777Z</time>
      </trkpt>
      <trkpt lat="48.859539" lon="2.213538">
        <ele>88.633065</ele>
        <time>2023-02-23T13:42:11.797Z</time>
      </trkpt>
      <trkpt lat="48.859501" lon="2.213401">
        <ele>88.743196</ele>
        <time>2023-02-23T13:42:14.527Z</time>
      </trkpt>
      <trkpt lat="48.859397" lon="2.213061">
        <ele>89.391531</ele>
        <time>2023-02-23T13:42:20.658Z</time>
      </trkpt>
      <trkpt lat="48.859349" lon="2.212904">
        <ele>89.826087</ele>
        <time>2023-02-23T13:42:23.993Z</time>
      </trkpt>
      <trkpt lat="48.859268" lon="2.212627">
        <ele>90.586967</ele>
        <time>2023-02-23T13:42:29.428Z</time>
      </trkpt>
      <trkpt lat="48.859225" lon="2.212494">
        <ele>90.958942</ele>
        <time>2023-02-23T13:42:32.239Z</time>
      </trkpt>
      <trkpt lat="48.859170" lon="2.212354">
        <ele>91.368239</ele>
        <time>2023-02-23T13:42:35.678Z</time>
      </trkpt>
      <trkpt lat="48.859042" lon="2.211893">
        <ele>92.624224</ele>
        <time>2023-02-23T13:42:46.423Z</time>
      </trkpt>
      <trkpt lat="48.859006" lon="2.211732">
        <ele>93.051054</ele>
        <time>2023-02-23T13:42:50.108Z</time>
      </trkpt>
      <trkpt lat="48.858978" lon="2.211612">
        <ele>93.370649</ele>
        <time>2023-02-23T13:42:52.877Z</time>
      </trkpt>
      <trkpt lat="48.858943" lon="2.211562">
        <ele>93.553905</ele>
        <time>2023-02-23T13:42:54.513Z</time>
      </trkpt>
      <trkpt lat="48.858897" lon="2.211496">
        <ele>93.795248</ele>
        <time>2023-02-23T13:42:56.854Z</time>
      </trkpt>
      <trkpt lat="48.858814" lon="2.211381">
        <ele>94.223738</ele>
        <time>2023-02-23T13:43:00.735Z</time>
      </trkpt>
      <trkpt lat="48.858589" lon="2.211198">
        <ele>95.197344</ele>
        <time>2023-02-23T13:43:09.117Z</time>
      </trkpt>
      <trkpt lat="48.858098" lon="2.210915">
        <ele>96.883185</ele>
        <time>2023-02-23T13:43:24.189Z</time>
      </trkpt>
      <trkpt lat="48.858062" lon="2.210714">
        <ele>97.293316</ele>
        <time>2023-02-23T13:43:27.870Z</time>
      </trkpt>
      <trkpt lat="48.857949" lon="2.210519">
        <ele>97.804918</ele>
        <time>2023-02-23T13:43:32.517Z</time>
      </trkpt>
      <trkpt lat="48.857747" lon="2.210338">
        <ele>98.506615</ele>
        <time>2023-02-23T13:43:38.666Z</time>
      </trkpt>
      <trkpt lat="48.856958" lon="2.209773">
        <ele>101.112898</ele>
        <time>2023-02-23T13:44:01.977Z</time>
      </trkpt>
      <trkpt lat="48.856851" lon="2.209678">
        <ele>101.262783</ele>
        <time>2023-02-23T13:44:05.113Z</time>
      </trkpt>
      <trkpt lat="48.855519" lon="2.208007">
        <ele>103.380988</ele>
        <time>2023-02-23T13:44:36.649Z</time>
      </trkpt>
      <trkpt lat="48.854475" lon="2.206703">
        <ele>105.739114</ele>
        <time>2023-02-23T13:45:02.486Z</time>
      </trkpt>
      <trkpt lat="48.854298" lon="2.206574">
        <ele>106.081666</ele>
        <time>2023-02-23T13:45:07.183Z</time>
      </trkpt>
      <trkpt lat="48.852899" lon="2.205842">
        <ele>112.675922</ele>
        <time>2023-02-23T13:45:55.016Z</time>
      </trkpt>
      <trkpt lat="48.852830" lon="2.205820">
        <ele>113.019424</ele>
        <time>2023-02-23T13:45:58.036Z</time>
      </trkpt>
      <trkpt lat="48.852160" lon="2.205630">
        <ele>116.605970</ele>
        <time>2023-02-23T13:46:26.760Z</time>
      </trkpt>
      <trkpt lat="48.852083" lon="2.205602">
        <ele>117.080721</ele>
        <time>2023-02-23T13:46:29.667Z</time>
      </trkpt>
      <trkpt lat="48.851961" lon="2.205509">
        <ele>117.899142</ele>
        <time>2023-02-23T13:46:34.922Z</time>
      </trkpt>
      <trkpt lat="48.851830" lon="2.205478">
        <ele>118.694126</ele>
        <time>2023-02-23T13:46:40.802Z</time>
      </trkpt>
      <trkpt lat="48.851717" lon="2.205346">
        <ele>119.548748</ele>
        <time>2023-02-23T13:46:46.210Z</time>
      </trkpt>
      <trkpt lat="48.851256" lon="2.205101">
        <ele>122.477205</ele>
        <time>2023-02-23T13:47:05.133Z</time>
      </trkpt>
      <trkpt lat="48.851035" lon="2.204928">
        <ele>123.967866</ele>
        <time>2023-02-23T13:47:14.518Z</time>
      </trkpt>
      <trkpt lat="48.850943" lon="2.204811">
        <ele>124.687205</ele>
        <time>2023-02-23T13:47:18.886Z</time>
      </trkpt>
      <trkpt lat="48.850752" lon="2.204383">
        <ele>126.511812</ele>
        <time>2023-02-23T13:47:31.367Z</time>
      </trkpt>
      <trkpt lat="48.850643" lon="2.204245">
        <ele>127.119066</ele>
        <time>2023-02-23T13:47:37.268Z</time>
      </trkpt>
      <trkpt lat="48.850360" lon="2.203743">
        <ele>128.980936</ele>
        <time>2023-02-23T13:47:52.404Z</time>
      </trkpt>
      <trkpt lat="48.850099" lon="2.203088">
        <ele>131.137709</ele>
        <time>2023-02-23T13:48:07.403Z</time>
      </trkpt>
      <trkpt lat="48.850001" lon="2.202875">
        <ele>131.869754</ele>
        <time>2023-02-23T13:48:13.280Z</time>
      </trkpt>
      <trkpt lat="48.849754" lon="2.202300">
        <ele>133.708327</ele>
        <time>2023-02-23T13:48:26.481Z</time>
      </trkpt>
      <trkpt lat="48.849436" lon="2.201621">
        <ele>134.353142</ele>
        <time>2023-02-23T13:48:39.686Z</time>
      </trkpt>
      <trkpt lat="48.849297" lon="2.201406">
        <ele>134.586341</ele>
        <time>2023-02-23T13:48:43.897Z</time>
      </trkpt>
      <trkpt lat="48.849009" lon="2.201078">
        <ele>135.009507</ele>
        <time>2023-02-23T13:48:51.167Z</time>
      </trkpt>
      <trkpt lat="48.848948" lon="2.200985">
        <ele>135.111103</ele>
        <time>2023-02-23T13:48:52.859Z</time>
      </trkpt>
      <trkpt lat="48.848114" lon="2.199449">
        <ele>134.210966</ele>
        <time>2023-02-23T13:49:09.441Z</time>
      </trkpt>
      <trkpt lat="48.847941" lon="2.199019">
        <ele>133.500416</ele>
        <time>2023-02-23T13:49:12.890Z</time>
      </trkpt>
      <trkpt lat="48.847832" lon="2.198742">
        <ele>133.045399</ele>
        <time>2023-02-23T13:49:15.067Z</time>
      </trkpt>
      <trkpt lat="48.847519" lon="2.198093">
        <ele>131.902536</ele>
        <time>2023-02-23T13:49:20.355Z</time>
      </trkpt>
      <trkpt lat="48.847483" lon="2.198021">
        <ele>131.727165</ele>
        <time>2023-02-23T13:49:20.950Z</time>
      </trkpt>
      <trkpt lat="48.847363" lon="2.197853">
        <ele>131.246301</ele>
        <time>2023-02-23T13:49:22.585Z</time>
      </trkpt>
      <trkpt lat="48.847351" lon="2.197679">
        <ele>130.906996</ele>
        <time>2023-02-23T13:49:23.712Z</time>
      </trkpt>
      <trkpt lat="48.847215" lon="2.197234">
        <ele>129.955428</ele>
        <time>2023-02-23T13:49:26.964Z</time>
      </trkpt>
      <trkpt lat="48.847201" lon="2.197183">
        <ele>129.848257</ele>
        <time>2023-02-23T13:49:27.329Z</time>
      </trkpt>
      <trkpt lat="48.847143" lon="2.196943">
        <ele>129.352404</ele>
        <time>2023-02-23T13:49:29.055Z</time>
      </trkpt>
      <trkpt lat="48.847110" lon="2.196815">
        <ele>129.085787</ele>
        <time>2023-02-23T13:49:30.002Z</time>
      </trkpt>
      <trkpt lat="48.847005" lon="2.196397">
        <ele>128.218057</ele>
        <time>2023-02-23T13:49:33.084Z</time>
      </trkpt>
      <trkpt lat="48.846978" lon="2.196254">
        <ele>127.929530</ele>
        <time>2023-02-23T13:49:34.124Z</time>
      </trkpt>
      <trkpt lat="48.846962" lon="2.196179">
        <ele>127.776621</ele>
        <time>2023-02-23T13:49:34.659Z</time>
      </trkpt>
      <trkpt lat="48.846885" lon="2.195418">
        <ele>126.444027</ele>
        <time>2023-02-23T13:49:40.017Z</time>
      </trkpt>
      <trkpt lat="48.846880" lon="2.195218">
        <ele>126.234376</ele>
        <time>2023-02-23T13:49:41.435Z</time>
      </trkpt>
      <trkpt lat="48.846886" lon="2.195093">
        <ele>126.103090</ele>
        <time>2023-02-23T13:49:42.296Z</time>
      </trkpt>
      <trkpt lat="48.846964" lon="2.194476">
        <ele>125.444964</ele>
        <time>2023-02-23T13:49:46.693Z</time>
      </trkpt>
      <trkpt lat="48.846967" lon="2.194226">
        <ele>125.183046</ele>
        <time>2023-02-23T13:49:48.471Z</time>
      </trkpt>
      <trkpt lat="48.846951" lon="2.193995">
        <ele>124.939737</ele>
        <time>2023-02-23T13:49:50.220Z</time>
      </trkpt>
      <trkpt lat="48.846886" lon="2.193748">
        <ele>124.661083</ele>
        <time>2023-02-23T13:49:52.247Z</time>
      </trkpt>
      <trkpt lat="48.846826" lon="2.193516">
        <ele>124.399969</ele>
        <time>2023-02-23T13:49:54.328Z</time>
      </trkpt>
      <trkpt lat="48.846633" lon="2.192773">
        <ele>123.866947</ele>
        <time>2023-02-23T13:50:01.347Z</time>
      </trkpt>
      <trkpt lat="48.846476" lon="2.192193">
        <ele>124.176494</ele>
        <time>2023-02-23T13:50:07.192Z</time>
      </trkpt>
      <trkpt lat="48.846019" lon="2.190045">
        <ele>125.435156</ele>
        <time>2023-02-23T13:50:35.986Z</time>
      </trkpt>
      <trkpt lat="48.845867" lon="2.189268">
        <ele>126.171148</ele>
        <time>2023-02-23T13:50:49.625Z</time>
      </trkpt>
      <trkpt lat="48.845768" lon="2.188908">
        <ele>126.525405</ele>
        <time>2023-02-23T13:50:55.427Z</time>
      </trkpt>
      <trkpt lat="48.845656" lon="2.188464">
        <ele>126.957140</ele>
        <time>2023-02-23T13:51:01.928Z</time>
      </trkpt>
      <trkpt lat="48.845678" lon="2.188319">
        <ele>127.092248</ele>
        <time>2023-02-23T13:51:04.212Z</time>
      </trkpt>
      <trkpt lat="48.845822" lon="2.187913">
        <ele>127.511009</ele>
        <time>2023-02-23T13:51:09.353Z</time>
      </trkpt>
      <trkpt lat="48.845864" lon="2.187722">
        <ele>127.511020</ele>
        <time>2023-02-23T13:51:11.433Z</time>
      </trkpt>
      <trkpt lat="48.845816" lon="2.187523">
        <ele>127.327437</ele>
        <time>2023-02-23T13:51:13.184Z</time>
      </trkpt>
      <trkpt lat="48.845766" lon="2.187437">
        <ele>127.228039</ele>
        <time>2023-02-23T13:51:14.258Z</time>
      </trkpt>
      <trkpt lat="48.845013" lon="2.186727">
        <ele>126.061635</ele>
        <time>2023-02-23T13:51:24.698Z</time>
      </trkpt>
      <trkpt lat="48.844924" lon="2.186796">
        <ele>125.930127</ele>
        <time>2023-02-23T13:51:25.751Z</time>
      </trkpt>
      <trkpt lat="48.844837" lon="2.186931">
        <ele>125.766461</ele>
        <time>2023-02-23T13:51:27.137Z</time>
      </trkpt>
      <trkpt lat="48.844809" lon="2.186967">
        <ele>125.718185</ele>
        <time>2023-02-23T13:51:27.548Z</time>
      </trkpt>
      <trkpt lat="48.844696" lon="2.186940">
        <ele>125.567626</ele>
        <time>2023-02-23T13:51:28.791Z</time>
      </trkpt>
      <trkpt lat="48.844612" lon="2.186820">
        <ele>125.415876</ele>
        <time>2023-02-23T13:51:30.042Z</time>
      </trkpt>
      <trkpt lat="48.844580" lon="2.186641">
        <ele>125.255208</ele>
        <time>2023-02-23T13:51:31.438Z</time>
      </trkpt>
      <trkpt lat="48.844292" lon="2.185730">
        <ele>123.419218</ele>
        <time>2023-02-23T13:51:38.343Z</time>
      </trkpt>
      <trkpt lat="48.844217" lon="2.185588">
        <ele>123.083929</ele>
        <time>2023-02-23T13:51:39.575Z</time>
      </trkpt>
      <trkpt lat="48.844129" lon="2.185429">
        <ele>122.701356</ele>
        <time>2023-02-23T13:51:40.910Z</time>
      </trkpt>
      <trkpt lat="48.844023" lon="2.185257">
        <ele>122.267426</ele>
        <time>2023-02-23T13:51:42.464Z</time>
      </trkpt>
      <trkpt lat="48.843680" lon="2.184951">
        <ele>121.154467</ele>
        <time>2023-02-23T13:51:46.453Z</time>
      </trkpt>
      <trkpt lat="48.843507" lon="2.185379">
        <ele>120.229515</ele>
        <time>2023-02-23T13:51:49.897Z</time>
      </trkpt>
      <trkpt lat="48.842937" lon="2.186498">
        <ele>118.773529</ele>
        <time>2023-02-23T13:52:00.174Z</time>
      </trkpt>
      <trkpt lat="48.842695" lon="2.186430">
        <ele>118.392233</ele>
        <time>2023-02-23T13:52:03.040Z</time>
      </trkpt>
      <trkpt lat="48.842290" lon="2.186316">
        <ele>117.754077</ele>
        <time>2023-02-23T13:52:07.846Z</time>
      </trkpt>
      <trkpt lat="48.840937" lon="2.185942">
        <ele>116.706239</ele>
        <time>2023-02-23T13:52:27.779Z</time>
      </trkpt>
      <trkpt lat="48.840119" lon="2.185714">
        <ele>115.967807</ele>
        <time>2023-02-23T13:52:37.903Z</time>
      </trkpt>
      <trkpt lat="48.839979" lon="2.185740">
        <ele>115.709632</ele>
        <time>2023-02-23T13:52:39.678Z</time>
      </trkpt>
      <trkpt lat="48.839852" lon="2.185745">
        <ele>115.477083</ele>
        <time>2023-02-23T13:52:40.952Z</time>
      </trkpt>
      <trkpt lat="48.838731" lon="2.186442">
        <ele>113.259943</ele>
        <time>2023-02-23T13:52:54.149Z</time>
      </trkpt>
      <trkpt lat="48.838613" lon="2.186500">
        <ele>113.032924</ele>
        <time>2023-02-23T13:52:55.536Z</time>
      </trkpt>
      <trkpt lat="48.838533" lon="2.186525">
        <ele>113.029556</ele>
        <time>2023-02-23T13:52:56.335Z</time>
      </trkpt>
      <trkpt lat="48.838442" lon="2.186571">
        <ele>113.041722</ele>
        <time>2023-02-23T13:52:57.378Z</time>
      </trkpt>
      <trkpt lat="48.838442" lon="2.186653">
        <ele>113.048569</ele>
        <time>2023-02-23T13:52:57.999Z</time>
      </trkpt>
      <trkpt lat="48.838330" lon="2.186584">
        <ele>113.063901</ele>
        <time>2023-02-23T13:52:59.437Z</time>
      </trkpt>
      <trkpt lat="48.838278" lon="2.186547">
        <ele>113.071185</ele>
        <time>2023-02-23T13:53:00.109Z</time>
      </trkpt>
      <trkpt lat="48.838082" lon="2.186156">
        <ele>113.112222</ele>
        <time>2023-02-23T13:53:03.965Z</time>
      </trkpt>
      <trkpt lat="48.838035" lon="2.186018">
        <ele>113.125196</ele>
        <time>2023-02-23T13:53:05.405Z</time>
      </trkpt>
      <trkpt lat="48.837381" lon="2.184769">
        <ele>113.577988</ele>
        <time>2023-02-23T13:53:25.850Z</time>
      </trkpt>
      <trkpt lat="48.837271" lon="2.184649">
        <ele>114.133191</ele>
        <time>2023-02-23T13:53:29.251Z</time>
      </trkpt>
      <trkpt lat="48.837175" lon="2.184630">
        <ele>114.530104</ele>
        <time>2023-02-23T13:53:31.881Z</time>
      </trkpt>
      <trkpt lat="48.837108" lon="2.184658">
        <ele>114.814998</ele>
        <time>2023-02-23T13:53:33.560Z</time>
      </trkpt>
      <trkpt lat="48.836831" lon="2.184793">
        <ele>116.007664</ele>
        <time>2023-02-23T13:53:42.073Z</time>
      </trkpt>
      <trkpt lat="48.836655" lon="2.184884">
        <ele>116.769883</ele>
        <time>2023-02-23T13:53:47.679Z</time>
      </trkpt>
      <trkpt lat="48.836567" lon="2.184933">
        <ele>117.154140</ele>
        <time>2023-02-23T13:53:50.712Z</time>
      </trkpt>
      <trkpt lat="48.836262" lon="2.185100">
        <ele>118.483331</ele>
        <time>2023-02-23T13:54:01.579Z</time>
      </trkpt>
      <trkpt lat="48.836136" lon="2.185138">
        <ele>119.009995</ele>
        <time>2023-02-23T13:54:06.279Z</time>
      </trkpt>
      <trkpt lat="48.835702" lon="2.185134">
        <ele>120.879980</ele>
        <time>2023-02-23T13:54:22.535Z</time>
      </trkpt>
      <trkpt lat="48.835234" lon="2.185167">
        <ele>123.843521</ele>
        <time>2023-02-23T13:54:41.890Z</time>
      </trkpt>
      <trkpt lat="48.834779" lon="2.185220">
        <ele>126.730091</ele>
        <time>2023-02-23T13:55:00.727Z</time>
      </trkpt>
      <trkpt lat="48.833928" lon="2.185272">
        <ele>132.107271</ele>
        <time>2023-02-23T13:55:35.389Z</time>
      </trkpt>
      <trkpt lat="48.833824" lon="2.184501">
        <ele>135.099804</ele>
        <time>2023-02-23T13:55:58.464Z</time>
      </trkpt>
      <trkpt lat="48.833458" lon="2.182900">
        <ele>141.544071</ele>
        <time>2023-02-23T13:56:46.539Z</time>
      </trkpt>
      <trkpt lat="48.833162" lon="2.182388">
        <ele>143.244620</ele>
        <time>2023-02-23T13:57:05.018Z</time>
      </trkpt>
      <trkpt lat="48.832873" lon="2.182026">
        <ele>144.304387</ele>
        <time>2023-02-23T13:57:20.471Z</time>
      </trkpt>
      <trkpt lat="48.832031" lon="2.181100">
        <ele>147.245375</ele>
        <time>2023-02-23T13:57:50.187Z</time>
      </trkpt>
      <trkpt lat="48.831824" lon="2.180765">
        <ele>147.010028</ele>
        <time>2023-02-23T13:57:55.833Z</time>
      </trkpt>
      <trkpt lat="48.831428" lon="2.179841">
        <ele>145.464304</ele>
        <time>2023-02-23T13:58:06.972Z</time>
      </trkpt>
      <trkpt lat="48.831371" lon="2.179692">
        <ele>145.222705</ele>
        <time>2023-02-23T13:58:18.242Z</time>
      </trkpt>
      <trkpt lat="48.831024" lon="2.178849">
        <ele>143.828841</ele>
        <time>2023-02-23T13:58:24.835Z</time>
      </trkpt>
      <trkpt lat="48.830726" lon="2.178135">
        <ele>143.452480</ele>
        <time>2023-02-23T13:58:30.477Z</time>
      </trkpt>
      <trkpt lat="48.830710" lon="2.178092">
        <ele>143.438997</ele>
        <time>2023-02-23T13:58:30.840Z</time>
      </trkpt>
      <trkpt lat="48.830547" lon="2.177678">
        <ele>143.307324</ele>
        <time>2023-02-23T13:58:34.509Z</time>
      </trkpt>
      <trkpt lat="48.830509" lon="2.177582">
        <ele>143.276747</ele>
        <time>2023-02-23T13:58:35.496Z</time>
      </trkpt>
      <trkpt lat="48.830467" lon="2.177607">
        <ele>143.258043</ele>
        <time>2023-02-23T13:58:36.063Z</time>
      </trkpt>
      <trkpt lat="48.830347" lon="2.177670">
        <ele>143.205398</ele>
        <time>2023-02-23T13:58:37.870Z</time>
      </trkpt>
      <trkpt lat="48.830310" lon="2.177530">
        <ele>143.164219</ele>
        <time>2023-02-23T13:58:39.333Z</time>
      </trkpt>
      <trkpt lat="48.830179" lon="2.177043">
        <ele>143.020618</ele>
        <time>2023-02-23T13:58:45.607Z</time>
      </trkpt>
      <trkpt lat="48.830107" lon="2.176637">
        <ele>142.905846</ele>
        <time>2023-02-23T13:58:51.752Z</time>
      </trkpt>
      <trkpt lat="48.830055" lon="2.174515">
        <ele>148.854265</ele>
        <time>2023-02-23T13:59:36.737Z</time>
      </trkpt>
      <trkpt lat="48.829964" lon="2.174368">
        <ele>149.423414</ele>
        <time>2023-02-23T13:59:41.647Z</time>
      </trkpt>
      <trkpt lat="48.829860" lon="2.174333">
        <ele>149.879817</ele>
        <time>2023-02-23T13:59:45.768Z</time>
      </trkpt>
      <trkpt lat="48.829603" lon="2.174399">
        <ele>151.069864</ele>
        <time>2023-02-23T13:59:55.487Z</time>
      </trkpt>
      <trkpt lat="48.828387" lon="2.174875">
        <ele>157.466632</ele>
        <time>2023-02-23T14:00:41.419Z</time>
      </trkpt>
      <trkpt lat="48.828274" lon="2.174919">
        <ele>158.060874</ele>
        <time>2023-02-23T14:00:45.682Z</time>
      </trkpt>
      <trkpt lat="48.827866" lon="2.175078">
        <ele>160.032310</ele>
        <time>2023-02-23T14:00:59.766Z</time>
      </trkpt>
      <trkpt lat="48.827736" lon="2.175126">
        <ele>160.441075</ele>
        <time>2023-02-23T14:01:04.133Z</time>
      </trkpt>
      <trkpt lat="48.827380" lon="2.174839">
        <ele>161.672486</ele>
        <time>2023-02-23T14:01:17.935Z</time>
      </trkpt>
      <trkpt lat="48.826957" lon="2.174505">
        <ele>163.129093</ele>
        <time>2023-02-23T14:01:32.992Z</time>
      </trkpt>
      <trkpt lat="48.826861" lon="2.174427">
        <ele>163.461734</ele>
        <time>2023-02-23T14:01:36.247Z</time>
      </trkpt>
      <trkpt lat="48.825373" lon="2.173222">
        <ele>167.310463</ele>
        <time>2023-02-23T14:02:25.743Z</time>
      </trkpt>
      <trkpt lat="48.824590" lon="2.172589">
        <ele>168.740776</ele>
        <time>2023-02-23T14:02:48.242Z</time>
      </trkpt>
      <trkpt lat="48.824378" lon="2.172313">
        <ele>168.920832</ele>
        <time>2023-02-23T14:02:54.848Z</time>
      </trkpt>
      <trkpt lat="48.824220" lon="2.172033">
        <ele>169.077396</ele>
        <time>2023-02-23T14:03:00.581Z</time>
      </trkpt>
      <trkpt lat="48.823986" lon="2.171470">
        <ele>169.360068</ele>
        <time>2023-02-23T14:03:10.568Z</time>
      </trkpt>
      <trkpt lat="48.823943" lon="2.171206">
        <ele>169.475531</ele>
        <time>2023-02-23T14:03:14.511Z</time>
      </trkpt>
      <trkpt lat="48.823352" lon="2.167034">
        <ele>170.246850</ele>
        <time>2023-02-23T14:04:13.152Z</time>
      </trkpt>
      <trkpt lat="48.823246" lon="2.165876">
        <ele>170.467437</ele>
        <time>2023-02-23T14:04:28.450Z</time>
      </trkpt>
      <trkpt lat="48.823158" lon="2.164836">
        <ele>171.038299</ele>
        <time>2023-02-23T14:04:44.007Z</time>
      </trkpt>
      <trkpt lat="48.823156" lon="2.164343">
        <ele>171.745763</ele>
        <time>2023-02-23T14:04:52.727Z</time>
      </trkpt>
      <trkpt lat="48.823469" lon="2.163017">
        <ele>173.767152</ele>
        <time>2023-02-23T14:05:20.082Z</time>
      </trkpt>
      <trkpt lat="48.823691" lon="2.162179">
        <ele>175.294110</ele>
        <time>2023-02-23T14:05:40.093Z</time>
      </trkpt>
      <trkpt lat="48.823709" lon="2.162111">
        <ele>175.444698</ele>
        <time>2023-02-23T14:05:41.661Z</time>
      </trkpt>
      <trkpt lat="48.823737" lon="2.162085">
        <ele>175.547118</ele>
        <time>2023-02-23T14:05:42.661Z</time>
      </trkpt>
      <trkpt lat="48.823732" lon="2.161901">
        <ele>175.925502</ele>
        <time>2023-02-23T14:05:46.373Z</time>
      </trkpt>
      <trkpt lat="48.823692" lon="2.161804">
        <ele>176.160674</ele>
        <time>2023-02-23T14:05:48.693Z</time>
      </trkpt>
      <trkpt lat="48.823607" lon="2.161461">
        <ele>176.913704</ele>
        <time>2023-02-23T14:05:57.247Z</time>
      </trkpt>
      <trkpt lat="48.823445" lon="2.160809">
        <ele>178.345592</ele>
        <time>2023-02-23T14:06:13.552Z</time>
      </trkpt>
      <trkpt lat="48.823172" lon="2.160097">
        <ele>180.038550</ele>
        <time>2023-02-23T14:06:30.244Z</time>
      </trkpt>
      <trkpt lat="48.822887" lon="2.159467">
        <ele>180.485533</ele>
        <time>2023-02-23T14:06:43.562Z</time>
      </trkpt>
      <trkpt lat="48.822476" lon="2.158823">
        <ele>180.916737</ele>
        <time>2023-02-23T14:06:57.605Z</time>
      </trkpt>
      <trkpt lat="48.822356" lon="2.158464">
        <ele>181.110305</ele>
        <time>2023-02-23T14:07:03.335Z</time>
      </trkpt>
      <trkpt lat="48.822229" lon="2.157966">
        <ele>181.367065</ele>
        <time>2023-02-23T14:07:10.536Z</time>
      </trkpt>
      <trkpt lat="48.822178" lon="2.157596">
        <ele>181.255069</ele>
        <time>2023-02-23T14:07:15.162Z</time>
      </trkpt>
      <trkpt lat="48.822148" lon="2.157353">
        <ele>180.998803</ele>
        <time>2023-02-23T14:07:17.911Z</time>
      </trkpt>
      <trkpt lat="48.822116" lon="2.157099">
        <ele>180.730748</ele>
        <time>2023-02-23T14:07:20.690Z</time>
      </trkpt>
      <trkpt lat="48.821918" lon="2.155238">
        <ele>178.776740</ele>
        <time>2023-02-23T14:07:40.261Z</time>
      </trkpt>
      <trkpt lat="48.821757" lon="2.153721">
        <ele>177.488059</ele>
        <time>2023-02-23T14:07:56.743Z</time>
      </trkpt>
      <trkpt lat="48.821720" lon="2.153529">
        <ele>177.324474</ele>
        <time>2023-02-23T14:07:59.000Z</time>
      </trkpt>
      <trkpt lat="48.821571" lon="2.153088">
        <ele>176.919162</ele>
        <time>2023-02-23T14:08:04.626Z</time>
      </trkpt>
      <trkpt lat="48.821214" lon="2.152400">
        <ele>176.424673</ele>
        <time>2023-02-23T14:08:14.875Z</time>
      </trkpt>
      <trkpt lat="48.820980" lon="2.152097">
        <ele>176.494713</ele>
        <time>2023-02-23T14:08:20.716Z</time>
      </trkpt>
      <trkpt lat="48.820616" lon="2.151821">
        <ele>176.587381</ele>
        <time>2023-02-23T14:08:29.072Z</time>
      </trkpt>
      <trkpt lat="48.820076" lon="2.151368">
        <ele>176.727895</ele>
        <time>2023-02-23T14:08:42.849Z</time>
      </trkpt>
      <trkpt lat="48.819725" lon="2.151041">
        <ele>176.834191</ele>
        <time>2023-02-23T14:08:52.898Z</time>
      </trkpt>
      <trkpt lat="48.819579" lon="2.150941">
        <ele>176.891690</ele>
        <time>2023-02-23T14:08:56.867Z</time>
      </trkpt>
      <trkpt lat="48.819163" lon="2.150879">
        <ele>177.041757</ele>
        <time>2023-02-23T14:09:07.265Z</time>
      </trkpt>
      <trkpt lat="48.819121" lon="2.150828">
        <ele>177.061062</ele>
        <time>2023-02-23T14:09:08.554Z</time>
      </trkpt>
      <trkpt lat="48.819123" lon="2.150685">
        <ele>177.094873</ele>
        <time>2023-02-23T14:09:10.957Z</time>
      </trkpt>
      <trkpt lat="48.819156" lon="2.150560">
        <ele>177.126708</ele>
        <time>2023-02-23T14:09:12.645Z</time>
      </trkpt>
      <trkpt lat="48.819182" lon="2.150375">
        <ele>177.171425</ele>
        <time>2023-02-23T14:09:14.926Z</time>
      </trkpt>
      <trkpt lat="48.819185" lon="2.150250">
        <ele>177.200993</ele>
        <time>2023-02-23T14:09:16.386Z</time>
      </trkpt>
      <trkpt lat="48.819098" lon="2.150106">
        <ele>177.247191</ele>
        <time>2023-02-23T14:09:18.775Z</time>
      </trkpt>
      <trkpt lat="48.818983" lon="2.150094">
        <ele>177.288575</ele>
        <time>2023-02-23T14:09:20.682Z</time>
      </trkpt>
      <trkpt lat="48.819012" lon="2.149750">
        <ele>177.370556</ele>
        <time>2023-02-23T14:09:24.121Z</time>
      </trkpt>
      <trkpt lat="48.819039" lon="2.149475">
        <ele>177.436281</ele>
        <time>2023-02-23T14:09:26.466Z</time>
      </trkpt>
      <trkpt lat="48.819089" lon="2.148934">
        <ele>176.570478</ele>
        <time>2023-02-23T14:09:30.317Z</time>
      </trkpt>
      <trkpt lat="48.819067" lon="2.148461">
        <ele>175.750904</ele>
        <time>2023-02-23T14:09:33.628Z</time>
      </trkpt>
      <trkpt lat="48.818975" lon="2.148093">
        <ele>175.070545</ele>
        <time>2023-02-23T14:09:36.308Z</time>
      </trkpt>
      <trkpt lat="48.818881" lon="2.147854">
        <ele>174.589369</ele>
        <time>2023-02-23T14:09:38.128Z</time>
      </trkpt>
      <trkpt lat="48.818676" lon="2.147526">
        <ele>173.807717</ele>
        <time>2023-02-23T14:09:41.160Z</time>
      </trkpt>
      <trkpt lat="48.818432" lon="2.147311">
        <ele>173.067219</ele>
        <time>2023-02-23T14:09:43.997Z</time>
      </trkpt>
      <trkpt lat="48.818316" lon="2.147237">
        <ele>172.736946</ele>
        <time>2023-02-23T14:09:45.212Z</time>
      </trkpt>
      <trkpt lat="48.818115" lon="2.147185">
        <ele>171.948511</ele>
        <time>2023-02-23T14:09:47.336Z</time>
      </trkpt>
      <trkpt lat="48.818011" lon="2.147191">
        <ele>171.542931</ele>
        <time>2023-02-23T14:09:48.387Z</time>
      </trkpt>
      <trkpt lat="48.817826" lon="2.147277">
        <ele>170.788970</ele>
        <time>2023-02-23T14:09:50.407Z</time>
      </trkpt>
      <trkpt lat="48.817677" lon="2.147433">
        <ele>170.083708</ele>
        <time>2023-02-23T14:09:52.343Z</time>
      </trkpt>
      <trkpt lat="48.817381" lon="2.148110">
        <ele>167.998422</ele>
        <time>2023-02-23T14:09:57.472Z</time>
      </trkpt>
      <trkpt lat="48.817317" lon="2.148207">
        <ele>167.646062</ele>
        <time>2023-02-23T14:09:58.528Z</time>
      </trkpt>
      <trkpt lat="48.817125" lon="2.148351">
        <ele>166.811571</ele>
        <time>2023-02-23T14:10:00.487Z</time>
      </trkpt>
      <trkpt lat="48.816900" lon="2.148388">
        <ele>165.929622</ele>
        <time>2023-02-23T14:10:03.002Z</time>
      </trkpt>
      <trkpt lat="48.816805" lon="2.148366">
        <ele>165.427317</ele>
        <time>2023-02-23T14:10:03.854Z</time>
      </trkpt>
      <trkpt lat="48.816520" lon="2.148209">
        <ele>163.301091</ele>
        <time>2023-02-23T14:10:06.812Z</time>
      </trkpt>
      <trkpt lat="48.816446" lon="2.148132">
        <ele>162.671972</ele>
        <time>2023-02-23T14:10:07.577Z</time>
      </trkpt>
      <trkpt lat="48.816333" lon="2.147932">
        <ele>161.454957</ele>
        <time>2023-02-23T14:10:09.305Z</time>
      </trkpt>
      <trkpt lat="48.815857" lon="2.146627">
        <ele>154.565496</ele>
        <time>2023-02-23T14:10:18.015Z</time>
      </trkpt>
      <trkpt lat="48.815672" lon="2.146108">
        <ele>151.810477</ele>
        <time>2023-02-23T14:10:21.377Z</time>
      </trkpt>
      <trkpt lat="48.815529" lon="2.145683">
        <ele>149.554683</ele>
        <time>2023-02-23T14:10:24.114Z</time>
      </trkpt>
      <trkpt lat="48.815333" lon="2.145158">
        <ele>146.702216</ele>
        <time>2023-02-23T14:10:27.585Z</time>
      </trkpt>
      <trkpt lat="48.814586" lon="2.143041">
        <ele>137.640086</ele>
        <time>2023-02-23T14:10:42.254Z</time>
      </trkpt>
      <trkpt lat="48.814011" lon="2.141451">
        <ele>133.258859</ele>
        <time>2023-02-23T14:10:54.601Z</time>
      </trkpt>
      <trkpt lat="48.813890" lon="2.141097">
        <ele>132.775339</ele>
        <time>2023-02-23T14:10:57.508Z</time>
      </trkpt>
      <trkpt lat="48.813826" lon="2.140909">
        <ele>132.518773</ele>
        <time>2023-02-23T14:10:59.056Z</time>
      </trkpt>
      <trkpt lat="48.813391" lon="2.139711">
        <ele>130.860281</ele>
        <time>2023-02-23T14:11:09.358Z</time>
      </trkpt>
      <trkpt lat="48.813357" lon="2.139532">
        <ele>130.634432</ele>
        <time>2023-02-23T14:11:10.660Z</time>
      </trkpt>
      <trkpt lat="48.813600" lon="2.136652">
        <ele>127.791584</ele>
        <time>2023-02-23T14:11:32.618Z</time>
      </trkpt>
      <trkpt lat="48.813617" lon="2.136486">
        <ele>127.634476</ele>
        <time>2023-02-23T14:11:33.973Z</time>
      </trkpt>
      <trkpt lat="48.813684" lon="2.136307">
        <ele>127.472990</ele>
        <time>2023-02-23T14:11:35.638Z</time>
      </trkpt>
      <trkpt lat="48.813653" lon="2.136083">
        <ele>127.341508</ele>
        <time>2023-02-23T14:11:37.502Z</time>
      </trkpt>
      <trkpt lat="48.813653" lon="2.136001">
        <ele>127.294406</ele>
        <time>2023-02-23T14:11:38.174Z</time>
      </trkpt>
      <trkpt lat="48.812954" lon="2.135892">
        <ele>126.681458</ele>
        <time>2023-02-23T14:11:46.951Z</time>
      </trkpt>
      <trkpt lat="48.812873" lon="2.135842">
        <ele>126.605187</ele>
        <time>2023-02-23T14:11:48.491Z</time>
      </trkpt>
      <trkpt lat="48.812526" lon="2.135635">
        <ele>126.279980</ele>
        <time>2023-02-23T14:11:55.000Z</time>
      </trkpt>
      <trkpt lat="48.812467" lon="2.135599">
        <ele>126.224514</ele>
        <time>2023-02-23T14:11:55.809Z</time>
      </trkpt>
      <trkpt lat="48.812424" lon="2.135573">
        <ele>126.184141</ele>
        <time>2023-02-23T14:11:56.386Z</time>
      </trkpt>
      <trkpt lat="48.812232" lon="2.135454">
        <ele>126.003245</ele>
        <time>2023-02-23T14:12:00.076Z</time>
      </trkpt>
      <trkpt lat="48.811941" lon="2.135273">
        <ele>125.909219</ele>
        <time>2023-02-23T14:12:05.803Z</time>
      </trkpt>
      <trkpt lat="48.811834" lon="2.135207">
        <ele>125.889357</ele>
        <time>2023-02-23T14:12:07.362Z</time>
      </trkpt>
      <trkpt lat="48.811704" lon="2.135127">
        <ele>125.865235</ele>
        <time>2023-02-23T14:12:09.284Z</time>
      </trkpt>
      <trkpt lat="48.811533" lon="2.135020">
        <ele>125.833428</ele>
        <time>2023-02-23T14:12:11.837Z</time>
      </trkpt>
      <trkpt lat="48.811456" lon="2.134973">
        <ele>125.819157</ele>
        <time>2023-02-23T14:12:13.008Z</time>
      </trkpt>
      <trkpt lat="48.811276" lon="2.134864">
        <ele>125.785831</ele>
        <time>2023-02-23T14:12:15.699Z</time>
      </trkpt>
      <trkpt lat="48.811207" lon="2.134823">
        <ele>125.773089</ele>
        <time>2023-02-23T14:12:16.751Z</time>
      </trkpt>
      <trkpt lat="48.810856" lon="2.134609">
        <ele>125.708042</ele>
        <time>2023-02-23T14:12:24.255Z</time>
      </trkpt>
      <trkpt lat="48.810800" lon="2.134576">
        <ele>125.697712</ele>
        <time>2023-02-23T14:12:25.203Z</time>
      </trkpt>
      <trkpt lat="48.810751" lon="2.134545">
        <ele>125.688583</ele>
        <time>2023-02-23T14:12:26.041Z</time>
      </trkpt>
      <trkpt lat="48.810164" lon="2.134178">
        <ele>126.025027</ele>
        <time>2023-02-23T14:12:39.843Z</time>
      </trkpt>
      <trkpt lat="48.810135" lon="2.134162">
        <ele>126.056234</ele>
        <time>2023-02-23T14:12:40.556Z</time>
      </trkpt>
      <trkpt lat="48.810018" lon="2.134094">
        <ele>126.182943</ele>
        <time>2023-02-23T14:12:42.770Z</time>
      </trkpt>
      <trkpt lat="48.809923" lon="2.134040">
        <ele>126.285541</ele>
        <time>2023-02-23T14:12:44.571Z</time>
      </trkpt>
      <trkpt lat="48.809820" lon="2.133977">
        <ele>126.397852</ele>
        <time>2023-02-23T14:12:46.731Z</time>
      </trkpt>
      <trkpt lat="48.809775" lon="2.133950">
        <ele>126.446791</ele>
        <time>2023-02-23T14:12:47.679Z</time>
      </trkpt>
      <trkpt lat="48.809747" lon="2.133933">
        <ele>126.477290</ele>
        <time>2023-02-23T14:12:48.278Z</time>
      </trkpt>
      <trkpt lat="48.809691" lon="2.133899">
        <ele>126.538290</ele>
        <time>2023-02-23T14:12:49.481Z</time>
      </trkpt>
      <trkpt lat="48.809625" lon="2.133858">
        <ele>126.610415</ele>
        <time>2023-02-23T14:12:50.892Z</time>
      </trkpt>
      <trkpt lat="48.809596" lon="2.133841">
        <ele>126.641856</ele>
        <time>2023-02-23T14:12:51.525Z</time>
      </trkpt>
      <trkpt lat="48.809443" lon="2.133750">
        <ele>126.808053</ele>
        <time>2023-02-23T14:12:55.963Z</time>
      </trkpt>
      <trkpt lat="48.809225" lon="2.133619">
        <ele>127.045182</ele>
        <time>2023-02-23T14:13:02.183Z</time>
      </trkpt>
      <trkpt lat="48.809107" lon="2.133549">
        <ele>127.173316</ele>
        <time>2023-02-23T14:13:05.634Z</time>
      </trkpt>
      <trkpt lat="48.809064" lon="2.133524">
        <ele>127.219886</ele>
        <time>2023-02-23T14:13:06.634Z</time>
      </trkpt>
      <trkpt lat="48.809014" lon="2.133490">
        <ele>127.275297</ele>
        <time>2023-02-23T14:13:07.719Z</time>
      </trkpt>
      <trkpt lat="48.808919" lon="2.133430">
        <ele>127.379363</ele>
        <time>2023-02-23T14:13:09.706Z</time>
      </trkpt>
      <trkpt lat="48.808829" lon="2.133379">
        <ele>127.481116</ele>
        <time>2023-02-23T14:13:11.676Z</time>
      </trkpt>
      <trkpt lat="48.808777" lon="2.133348">
        <ele>127.557345</ele>
        <time>2023-02-23T14:13:12.790Z</time>
      </trkpt>
      <trkpt lat="48.808763" lon="2.133341">
        <ele>127.577458</ele>
        <time>2023-02-23T14:13:13.072Z</time>
      </trkpt>
      <trkpt lat="48.808398" lon="2.133131">
        <ele>128.110069</ele>
        <time>2023-02-23T14:13:22.181Z</time>
      </trkpt>
      <trkpt lat="48.808228" lon="2.133029">
        <ele>128.359494</ele>
        <time>2023-02-23T14:13:26.621Z</time>
      </trkpt>
      <trkpt lat="48.808035" lon="2.132913">
        <ele>128.642732</ele>
        <time>2023-02-23T14:13:31.919Z</time>
      </trkpt>
      <trkpt lat="48.807721" lon="2.132723">
        <ele>129.103966</ele>
        <time>2023-02-23T14:13:40.613Z</time>
      </trkpt>
      <trkpt lat="48.807679" lon="2.132698">
        <ele>129.165523</ele>
        <time>2023-02-23T14:13:41.845Z</time>
      </trkpt>
      <trkpt lat="48.807617" lon="2.132660">
        <ele>129.256756</ele>
        <time>2023-02-23T14:13:43.614Z</time>
      </trkpt>
      <trkpt lat="48.807555" lon="2.132623">
        <ele>129.347657</ele>
        <time>2023-02-23T14:13:45.027Z</time>
      </trkpt>
      <trkpt lat="48.807471" lon="2.132572">
        <ele>129.471102</ele>
        <time>2023-02-23T14:13:46.928Z</time>
      </trkpt>
      <trkpt lat="48.807370" lon="2.132511">
        <ele>129.619423</ele>
        <time>2023-02-23T14:13:49.372Z</time>
      </trkpt>
      <trkpt lat="48.807226" lon="2.132424">
        <ele>129.830900</ele>
        <time>2023-02-23T14:13:52.697Z</time>
      </trkpt>
      <trkpt lat="48.807148" lon="2.132377">
        <ele>129.950115</ele>
        <time>2023-02-23T14:13:54.504Z</time>
      </trkpt>
      <trkpt lat="48.807103" lon="2.132344">
        <ele>130.029882</ele>
        <time>2023-02-23T14:13:55.560Z</time>
      </trkpt>
      <trkpt lat="48.806600" lon="2.132033">
        <ele>130.896782</ele>
        <time>2023-02-23T14:14:07.520Z</time>
      </trkpt>
      <trkpt lat="48.806093" lon="2.131724">
        <ele>131.768814</ele>
        <time>2023-02-23T14:14:18.315Z</time>
      </trkpt>
      <trkpt lat="48.806043" lon="2.131694">
        <ele>131.854629</ele>
        <time>2023-02-23T14:14:19.511Z</time>
      </trkpt>
      <trkpt lat="48.806006" lon="2.131671">
        <ele>131.918446</ele>
        <time>2023-02-23T14:14:20.384Z</time>
      </trkpt>
      <trkpt lat="48.805689" lon="2.131480">
        <ele>132.462824</ele>
        <time>2023-02-23T14:14:27.608Z</time>
      </trkpt>
      <trkpt lat="48.805330" lon="2.131263">
        <ele>132.943015</ele>
        <time>2023-02-23T14:14:36.451Z</time>
      </trkpt>
      <trkpt lat="48.805301" lon="2.131241">
        <ele>132.970467</ele>
        <time>2023-02-23T14:14:37.157Z</time>
      </trkpt>
      <trkpt lat="48.805258" lon="2.131215">
        <ele>133.009661</ele>
        <time>2023-02-23T14:14:38.089Z</time>
      </trkpt>
      <trkpt lat="48.805186" lon="2.131182">
        <ele>133.073349</ele>
        <time>2023-02-23T14:14:39.652Z</time>
      </trkpt>
      <trkpt lat="48.805139" lon="2.131090">
        <ele>133.138287</ele>
        <time>2023-02-23T14:14:41.319Z</time>
      </trkpt>
      <trkpt lat="48.805106" lon="2.131077">
        <ele>133.167157</ele>
        <time>2023-02-23T14:14:42.078Z</time>
      </trkpt>
      <trkpt lat="48.804974" lon="2.131035">
        <ele>133.281365</ele>
        <time>2023-02-23T14:14:44.868Z</time>
      </trkpt>
      <trkpt lat="48.804891" lon="2.131012">
        <ele>133.352811</ele>
        <time>2023-02-23T14:14:46.441Z</time>
      </trkpt>
      <trkpt lat="48.804800" lon="2.130991">
        <ele>133.430756</ele>
        <time>2023-02-23T14:14:48.191Z</time>
      </trkpt>
      <trkpt lat="48.804698" lon="2.131013">
        <ele>133.517998</ele>
        <time>2023-02-23T14:14:50.224Z</time>
      </trkpt>
      <trkpt lat="48.804663" lon="2.131008">
        <ele>133.547768</ele>
        <time>2023-02-23T14:14:50.876Z</time>
      </trkpt>
      <trkpt lat="48.804262" lon="2.130866">
        <ele>133.896454</ele>
        <time>2023-02-23T14:14:57.689Z</time>
      </trkpt>
      <trkpt lat="48.804164" lon="2.130792">
        <ele>133.989138</ele>
        <time>2023-02-23T14:14:59.244Z</time>
      </trkpt>
      <trkpt lat="48.804075" lon="2.130805">
        <ele>134.064853</ele>
        <time>2023-02-23T14:15:00.627Z</time>
      </trkpt>
      <trkpt lat="48.803949" lon="2.130737">
        <ele>134.178091</ele>
        <time>2023-02-23T14:15:02.687Z</time>
      </trkpt>
      <trkpt lat="48.803306" lon="2.130353">
        <ele>134.052175</ele>
        <time>2023-02-23T14:15:13.264Z</time>
      </trkpt>
      <trkpt lat="48.802642" lon="2.129947">
        <ele>133.703557</ele>
        <time>2023-02-23T14:15:23.337Z</time>
      </trkpt>
      <trkpt lat="48.802587" lon="2.129912">
        <ele>133.674514</ele>
        <time>2023-02-23T14:15:24.095Z</time>
      </trkpt>
      <trkpt lat="48.802573" lon="2.129842">
        <ele>133.651047</ele>
        <time>2023-02-23T14:15:24.695Z</time>
      </trkpt>
      <trkpt lat="48.802520" lon="2.129807">
        <ele>133.622899</ele>
        <time>2023-02-23T14:15:25.416Z</time>
      </trkpt>
      <trkpt lat="48.802471" lon="2.129776">
        <ele>133.597047</ele>
        <time>2023-02-23T14:15:26.049Z</time>
      </trkpt>
      <trkpt lat="48.802375" lon="2.129716">
        <ele>133.546487</ele>
        <time>2023-02-23T14:15:27.255Z</time>
      </trkpt>
      <trkpt lat="48.802245" lon="2.129635">
        <ele>133.478050</ele>
        <time>2023-02-23T14:15:28.880Z</time>
      </trkpt>
      <trkpt lat="48.802069" lon="2.129529">
        <ele>133.262957</ele>
        <time>2023-02-23T14:15:31.029Z</time>
      </trkpt>
      <trkpt lat="48.802035" lon="2.129506">
        <ele>133.200264</ele>
        <time>2023-02-23T14:15:31.438Z</time>
      </trkpt>
      <trkpt lat="48.801955" lon="2.129455">
        <ele>133.054124</ele>
        <time>2023-02-23T14:15:32.406Z</time>
      </trkpt>
      <trkpt lat="48.801858" lon="2.129415">
        <ele>132.884828</ele>
        <time>2023-02-23T14:15:33.529Z</time>
      </trkpt>
      <trkpt lat="48.801156" lon="2.128972">
        <ele>131.604382</ele>
        <time>2023-02-23T14:15:41.999Z</time>
      </trkpt>
      <trkpt lat="48.800824" lon="2.128775">
        <ele>131.004004</ele>
        <time>2023-02-23T14:15:46.003Z</time>
      </trkpt>
      <trkpt lat="48.800584" lon="2.128591">
        <ele>130.551156</ele>
        <time>2023-02-23T14:15:48.993Z</time>
      </trkpt>
      <trkpt lat="48.800465" lon="2.128520">
        <ele>130.398728</ele>
        <time>2023-02-23T14:15:50.392Z</time>
      </trkpt>
      <trkpt lat="48.800269" lon="2.128395">
        <ele>130.359912</ele>
        <time>2023-02-23T14:15:52.785Z</time>
      </trkpt>
      <trkpt lat="48.799952" lon="2.128223">
        <ele>130.298447</ele>
        <time>2023-02-23T14:15:56.818Z</time>
      </trkpt>
      <trkpt lat="48.799848" lon="2.128146">
        <ele>130.277320</ele>
        <time>2023-02-23T14:15:58.295Z</time>
      </trkpt>
      <trkpt lat="48.799777" lon="2.128096">
        <ele>130.263029</ele>
        <time>2023-02-23T14:15:59.349Z</time>
      </trkpt>
      <trkpt lat="48.799683" lon="2.128041">
        <ele>130.244636</ele>
        <time>2023-02-23T14:16:00.823Z</time>
      </trkpt>
      <trkpt lat="48.799612" lon="2.128003">
        <ele>130.230890</ele>
        <time>2023-02-23T14:16:01.924Z</time>
      </trkpt>
      <trkpt lat="48.799509" lon="2.127937">
        <ele>130.210477</ele>
        <time>2023-02-23T14:16:03.642Z</time>
      </trkpt>
      <trkpt lat="48.799357" lon="2.127839">
        <ele>130.180325</ele>
        <time>2023-02-23T14:16:06.559Z</time>
      </trkpt>
      <trkpt lat="48.799115" lon="2.127744">
        <ele>130.134686</ele>
        <time>2023-02-23T14:16:11.047Z</time>
      </trkpt>
      <trkpt lat="48.799107" lon="2.127739">
        <ele>130.133106</ele>
        <time>2023-02-23T14:16:11.234Z</time>
      </trkpt>
      <trkpt lat="48.798798" lon="2.127533">
        <ele>130.121608</ele>
        <time>2023-02-23T14:16:17.712Z</time>
      </trkpt>
      <trkpt lat="48.798781" lon="2.127522">
        <ele>130.144313</ele>
        <time>2023-02-23T14:16:18.067Z</time>
      </trkpt>
      <trkpt lat="48.798095" lon="2.127050">
        <ele>131.069668</ele>
        <time>2023-02-23T14:16:32.807Z</time>
      </trkpt>
      <trkpt lat="48.797518" lon="2.126663">
        <ele>131.844686</ele>
        <time>2023-02-23T14:16:46.256Z</time>
      </trkpt>
      <trkpt lat="48.797270" lon="2.126493">
        <ele>132.179006</ele>
        <time>2023-02-23T14:16:51.816Z</time>
      </trkpt>
      <trkpt lat="48.796974" lon="2.126293">
        <ele>132.415796</ele>
        <time>2023-02-23T14:16:57.917Z</time>
      </trkpt>
      <trkpt lat="48.796679" lon="2.126089">
        <ele>132.592011</ele>
        <time>2023-02-23T14:17:03.262Z</time>
      </trkpt>
      <trkpt lat="48.796404" lon="2.125914">
        <ele>132.754104</ele>
        <time>2023-02-23T14:17:07.762Z</time>
      </trkpt>
      <trkpt lat="48.795825" lon="2.125523">
        <ele>133.098583</ele>
        <time>2023-02-23T14:17:17.223Z</time>
      </trkpt>
      <trkpt lat="48.795205" lon="2.125097">
        <ele>133.920041</ele>
        <time>2023-02-23T14:17:29.867Z</time>
      </trkpt>
      <trkpt lat="48.794595" lon="2.124681">
        <ele>135.092192</ele>
        <time>2023-02-23T14:17:43.002Z</time>
      </trkpt>
      <trkpt lat="48.793982" lon="2.124269">
        <ele>136.267266</ele>
        <time>2023-02-23T14:17:59.233Z</time>
      </trkpt>
      <trkpt lat="48.793735" lon="2.125122">
        <ele>139.076018</ele>
        <time>2023-02-23T14:18:16.805Z</time>
      </trkpt>
      <trkpt lat="48.793467" lon="2.126031">
        <ele>142.380312</ele>
        <time>2023-02-23T14:18:37.536Z</time>
      </trkpt>
      <trkpt lat="48.792980" lon="2.127696">
        <ele>150.156297</ele>
        <time>2023-02-23T14:19:31.680Z</time>
      </trkpt>
      <trkpt lat="48.792927" lon="2.127772">
        <ele>150.739221</ele>
        <time>2023-02-23T14:19:35.574Z</time>
      </trkpt>
      <trkpt lat="48.792802" lon="2.128218">
        <ele>153.292105</ele>
        <time>2023-02-23T14:19:51.156Z</time>
      </trkpt>
      <trkpt lat="48.792811" lon="2.128350">
        <ele>153.991078</ele>
        <time>2023-02-23T14:19:56.089Z</time>
      </trkpt>
      <trkpt lat="48.792819" lon="2.128388">
        <ele>154.201200</ele>
        <time>2023-02-23T14:19:57.094Z</time>
      </trkpt>
      <trkpt lat="48.792758" lon="2.128513">
        <ele>155.020551</ele>
        <time>2023-02-23T14:20:01.982Z</time>
      </trkpt>
      <trkpt lat="48.792699" lon="2.128539">
        <ele>155.511745</ele>
        <time>2023-02-23T14:20:04.812Z</time>
      </trkpt>
      <trkpt lat="48.792406" lon="2.128484">
        <ele>157.872185</ele>
        <time>2023-02-23T14:20:18.902Z</time>
      </trkpt>
      <trkpt lat="48.792273" lon="2.128354">
        <ele>159.136937</ele>
        <time>2023-02-23T14:20:25.995Z</time>
      </trkpt>
      <trkpt lat="48.792226" lon="2.128269">
        <ele>159.721446</ele>
        <time>2023-02-23T14:20:29.839Z</time>
      </trkpt>
      <trkpt lat="48.791916" lon="2.127100">
        <ele>164.627055</ele>
        <time>2023-02-23T14:21:07.068Z</time>
      </trkpt>
      <trkpt lat="48.791759" lon="2.126277">
        <ele>167.937831</ele>
        <time>2023-02-23T14:21:27.851Z</time>
      </trkpt>
      <trkpt lat="48.791674" lon="2.125696">
        <ele>170.237554</ele>
        <time>2023-02-23T14:21:39.069Z</time>
      </trkpt>
      <trkpt lat="48.791560" lon="2.125103">
        <ele>171.353516</ele>
        <time>2023-02-23T14:21:50.143Z</time>
      </trkpt>
      <trkpt lat="48.791445" lon="2.124761">
        <ele>171.986654</ele>
        <time>2023-02-23T14:21:56.418Z</time>
      </trkpt>
      <trkpt lat="48.791281" lon="2.124433">
        <ele>172.665628</ele>
        <time>2023-02-23T14:22:03.099Z</time>
      </trkpt>
      <trkpt lat="48.791153" lon="2.124264">
        <ele>173.090238</ele>
        <time>2023-02-23T14:22:06.261Z</time>
      </trkpt>
      <trkpt lat="48.791005" lon="2.124142">
        <ele>173.511768</ele>
        <time>2023-02-23T14:22:11.075Z</time>
      </trkpt>
      <trkpt lat="48.790807" lon="2.124072">
        <ele>174.020607</ele>
        <time>2023-02-23T14:22:15.240Z</time>
      </trkpt>
      <trkpt lat="48.790560" lon="2.124089">
        <ele>174.639459</ele>
        <time>2023-02-23T14:22:21.746Z</time>
      </trkpt>
      <trkpt lat="48.790292" lon="2.124251">
        <ele>174.813857</ele>
        <time>2023-02-23T14:22:28.796Z</time>
      </trkpt>
      <trkpt lat="48.789960" lon="2.124596">
        <ele>174.601441</ele>
        <time>2023-02-23T14:22:36.458Z</time>
      </trkpt>
      <trkpt lat="48.789606" lon="2.125008">
        <ele>174.365936</ele>
        <time>2023-02-23T14:22:42.553Z</time>
      </trkpt>
      <trkpt lat="48.789441" lon="2.125195">
        <ele>174.257223</ele>
        <time>2023-02-23T14:22:44.885Z</time>
      </trkpt>
      <trkpt lat="48.789224" lon="2.125469">
        <ele>174.108203</ele>
        <time>2023-02-23T14:22:47.919Z</time>
      </trkpt>
      <trkpt lat="48.789061" lon="2.125726">
        <ele>173.984123</ele>
        <time>2023-02-23T14:22:50.352Z</time>
      </trkpt>
      <trkpt lat="48.788983" lon="2.125869">
        <ele>173.715491</ele>
        <time>2023-02-23T14:22:51.651Z</time>
      </trkpt>
      <trkpt lat="48.788900" lon="2.126041">
        <ele>173.264212</ele>
        <time>2023-02-23T14:22:53.084Z</time>
      </trkpt>
      <trkpt lat="48.788787" lon="2.126362">
        <ele>172.493851</ele>
        <time>2023-02-23T14:22:55.575Z</time>
      </trkpt>
      <trkpt lat="48.788689" lon="2.126755">
        <ele>171.604405</ele>
        <time>2023-02-23T14:22:58.343Z</time>
      </trkpt>
      <trkpt lat="48.788612" lon="2.127298">
        <ele>170.428723</ele>
        <time>2023-02-23T14:23:02.048Z</time>
      </trkpt>
      <trkpt lat="48.788509" lon="2.128935">
        <ele>166.827602</ele>
        <time>2023-02-23T14:23:12.819Z</time>
      </trkpt>
      <trkpt lat="48.788485" lon="2.129379">
        <ele>165.792614</ele>
        <time>2023-02-23T14:23:15.791Z</time>
      </trkpt>
      <trkpt lat="48.788399" lon="2.130584">
        <ele>162.976719</ele>
        <time>2023-02-23T14:23:23.584Z</time>
      </trkpt>
      <trkpt lat="48.788336" lon="2.130966">
        <ele>162.061854</ele>
        <time>2023-02-23T14:23:26.301Z</time>
      </trkpt>
      <trkpt lat="48.788151" lon="2.131688">
        <ele>160.505233</ele>
        <time>2023-02-23T14:23:31.652Z</time>
      </trkpt>
      <trkpt lat="48.787867" lon="2.132657">
        <ele>158.421326</ele>
        <time>2023-02-23T14:23:38.689Z</time>
      </trkpt>
      <trkpt lat="48.787847" lon="2.132706">
        <ele>158.308065</ele>
        <time>2023-02-23T14:23:39.102Z</time>
      </trkpt>
      <trkpt lat="48.787714" lon="2.133081">
        <ele>157.471235</ele>
        <time>2023-02-23T14:23:41.905Z</time>
      </trkpt>
      <trkpt lat="48.787679" lon="2.133268">
        <ele>157.089252</ele>
        <time>2023-02-23T14:23:43.308Z</time>
      </trkpt>
      <trkpt lat="48.787602" lon="2.133245">
        <ele>156.855205</ele>
        <time>2023-02-23T14:23:44.082Z</time>
      </trkpt>
      <trkpt lat="48.787458" lon="2.133202">
        <ele>156.434474</ele>
        <time>2023-02-23T14:23:45.536Z</time>
      </trkpt>
      <trkpt lat="48.787123" lon="2.133120">
        <ele>155.724466</ele>
        <time>2023-02-23T14:23:49.253Z</time>
      </trkpt>
      <trkpt lat="48.787000" lon="2.133091">
        <ele>155.464015</ele>
        <time>2023-02-23T14:23:50.834Z</time>
      </trkpt>
      <trkpt lat="48.786995" lon="2.133090">
        <ele>155.453462</ele>
        <time>2023-02-23T14:23:50.914Z</time>
      </trkpt>
      <trkpt lat="48.786859" lon="2.133034">
        <ele>155.158611</ele>
        <time>2023-02-23T14:23:52.503Z</time>
      </trkpt>
      <trkpt lat="48.786806" lon="2.132988">
        <ele>155.030862</ele>
        <time>2023-02-23T14:23:53.136Z</time>
      </trkpt>
      <trkpt lat="48.786294" lon="2.132841">
        <ele>153.940558</ele>
        <time>2023-02-23T14:23:59.416Z</time>
      </trkpt>
      <trkpt lat="48.786189" lon="2.132817">
        <ele>153.718379</ele>
        <time>2023-02-23T14:24:00.527Z</time>
      </trkpt>
      <trkpt lat="48.786123" lon="2.132801">
        <ele>153.578531</ele>
        <time>2023-02-23T14:24:01.197Z</time>
      </trkpt>
      <trkpt lat="48.785863" lon="2.132761">
        <ele>153.031721</ele>
        <time>2023-02-23T14:24:03.921Z</time>
      </trkpt>
      <trkpt lat="48.785586" lon="2.132798">
        <ele>152.358206</ele>
        <time>2023-02-23T14:24:06.830Z</time>
      </trkpt>
      <trkpt lat="48.785186" lon="2.132724">
        <ele>151.218879</ele>
        <time>2023-02-23T14:24:11.120Z</time>
      </trkpt>
      <trkpt lat="48.784549" lon="2.132577">
        <ele>149.397131</ele>
        <time>2023-02-23T14:24:17.842Z</time>
      </trkpt>
      <trkpt lat="48.784344" lon="2.132537">
        <ele>148.812745</ele>
        <time>2023-02-23T14:24:19.953Z</time>
      </trkpt>
      <trkpt lat="48.784236" lon="2.132482">
        <ele>148.490655</ele>
        <time>2023-02-23T14:24:21.089Z</time>
      </trkpt>
      <trkpt lat="48.783569" lon="2.132376">
        <ele>146.585187</ele>
        <time>2023-02-23T14:24:27.834Z</time>
      </trkpt>
      <trkpt lat="48.782882" lon="2.132241">
        <ele>144.608912</ele>
        <time>2023-02-23T14:24:34.885Z</time>
      </trkpt>
      <trkpt lat="48.782773" lon="2.132221">
        <ele>144.295686</ele>
        <time>2023-02-23T14:24:36.007Z</time>
      </trkpt>
      <trkpt lat="48.782668" lon="2.132204">
        <ele>143.994436</ele>
        <time>2023-02-23T14:24:37.555Z</time>
      </trkpt>
      <trkpt lat="48.781597" lon="2.131957">
        <ele>141.429462</ele>
        <time>2023-02-23T14:24:54.379Z</time>
      </trkpt>
      <trkpt lat="48.780884" lon="2.131511">
        <ele>139.956433</ele>
        <time>2023-02-23T14:25:07.550Z</time>
      </trkpt>
      <trkpt lat="48.780760" lon="2.131469">
        <ele>139.713757</ele>
        <time>2023-02-23T14:25:09.165Z</time>
      </trkpt>
      <trkpt lat="48.780413" lon="2.131540">
        <ele>139.020609</ele>
        <time>2023-02-23T14:25:12.999Z</time>
      </trkpt>
      <trkpt lat="48.780257" lon="2.131522">
        <ele>138.188480</ele>
        <time>2023-02-23T14:25:14.683Z</time>
      </trkpt>
      <trkpt lat="48.779750" lon="2.131157">
        <ele>135.203791</ele>
        <time>2023-02-23T14:25:20.096Z</time>
      </trkpt>
      <trkpt lat="48.779255" lon="2.130800">
        <ele>132.288781</ele>
        <time>2023-02-23T14:25:25.220Z</time>
      </trkpt>
      <trkpt lat="48.779443" lon="2.130178">
        <ele>129.890356</ele>
        <time>2023-02-23T14:25:30.909Z</time>
      </trkpt>
      <trkpt lat="48.779432" lon="2.130032">
        <ele>129.326337</ele>
        <time>2023-02-23T14:25:32.121Z</time>
      </trkpt>
      <trkpt lat="48.779400" lon="2.129928">
        <ele>128.755182</ele>
        <time>2023-02-23T14:25:33.079Z</time>
      </trkpt>
      <trkpt lat="48.778929" lon="2.129421">
        <ele>124.394501</ele>
        <time>2023-02-23T14:25:40.270Z</time>
      </trkpt>
      <trkpt lat="48.778768" lon="2.129253">
        <ele>122.919022</ele>
        <time>2023-02-23T14:25:42.745Z</time>
      </trkpt>
      <trkpt lat="48.778293" lon="2.128683">
        <ele>118.346095</ele>
        <time>2023-02-23T14:25:50.355Z</time>
      </trkpt>
      <trkpt lat="48.777789" lon="2.128262">
        <ele>115.008502</ele>
        <time>2023-02-23T14:25:57.809Z</time>
      </trkpt>
      <trkpt lat="48.777647" lon="2.128143">
        <ele>114.429992</ele>
        <time>2023-02-23T14:25:59.953Z</time>
      </trkpt>
      <trkpt lat="48.777191" lon="2.128002">
        <ele>112.770329</ele>
        <time>2023-02-23T14:26:06.483Z</time>
      </trkpt>
      <trkpt lat="48.776775" lon="2.127944">
        <ele>111.280487</ele>
        <time>2023-02-23T14:26:12.684Z</time>
      </trkpt>
      <trkpt lat="48.776708" lon="2.127963">
        <ele>111.037407</ele>
        <time>2023-02-23T14:26:13.576Z</time>
      </trkpt>
      <trkpt lat="48.776374" lon="2.127801">
        <ele>109.786885</ele>
        <time>2023-02-23T14:26:17.580Z</time>
      </trkpt>
      <trkpt lat="48.776218" lon="2.127606">
        <ele>110.034553</ele>
        <time>2023-02-23T14:26:20.349Z</time>
      </trkpt>
      <trkpt lat="48.776048" lon="2.127327">
        <ele>111.157983</ele>
        <time>2023-02-23T14:26:23.958Z</time>
      </trkpt>
      <trkpt lat="48.775894" lon="2.127021">
        <ele>112.296325</ele>
        <time>2023-02-23T14:26:29.444Z</time>
      </trkpt>
      <trkpt lat="48.775808" lon="2.126920">
        <ele>112.784209</ele>
        <time>2023-02-23T14:26:31.920Z</time>
      </trkpt>
      <trkpt lat="48.775600" lon="2.126871">
        <ele>113.728551</ele>
        <time>2023-02-23T14:26:39.978Z</time>
      </trkpt>
      <trkpt lat="48.775470" lon="2.126797">
        <ele>114.351464</ele>
        <time>2023-02-23T14:26:44.069Z</time>
      </trkpt>
      <trkpt lat="48.775417" lon="2.126763">
        <ele>114.609617</ele>
        <time>2023-02-23T14:26:46.289Z</time>
      </trkpt>
      <trkpt lat="48.775326" lon="2.126673">
        <ele>115.096936</ele>
        <time>2023-02-23T14:26:52.236Z</time>
      </trkpt>
      <trkpt lat="48.775147" lon="2.126587">
        <ele>115.939286</ele>
        <time>2023-02-23T14:27:01.385Z</time>
      </trkpt>
      <trkpt lat="48.774959" lon="2.126527">
        <ele>116.801176</ele>
        <time>2023-02-23T14:27:11.409Z</time>
      </trkpt>
      <trkpt lat="48.774902" lon="2.126510">
        <ele>117.061791</ele>
        <time>2023-02-23T14:27:14.326Z</time>
      </trkpt>
      <trkpt lat="48.774819" lon="2.126477">
        <ele>117.446729</ele>
        <time>2023-02-23T14:27:18.551Z</time>
      </trkpt>
      <trkpt lat="48.774353" lon="2.126319">
        <ele>121.262278</ele>
        <time>2023-02-23T14:27:41.912Z</time>
      </trkpt>
      <trkpt lat="48.774257" lon="2.126317">
        <ele>122.049017</ele>
        <time>2023-02-23T14:27:47.580Z</time>
      </trkpt>
      <trkpt lat="48.773805" lon="2.126192">
        <ele>125.813912</ele>
        <time>2023-02-23T14:28:10.812Z</time>
      </trkpt>
      <trkpt lat="48.773773" lon="2.126183">
        <ele>126.080600</ele>
        <time>2023-02-23T14:28:12.434Z</time>
      </trkpt>
      <trkpt lat="48.773700" lon="2.126310">
        <ele>126.990671</ele>
        <time>2023-02-23T14:28:17.907Z</time>
      </trkpt>
      <trkpt lat="48.773016" lon="2.127945">
        <ele>135.301136</ele>
        <time>2023-02-23T14:29:14.675Z</time>
      </trkpt>
      <trkpt lat="48.772959" lon="2.128216">
        <ele>136.196128</ele>
        <time>2023-02-23T14:29:18.972Z</time>
      </trkpt>
      <trkpt lat="48.772929" lon="2.128256">
        <ele>136.386782</ele>
        <time>2023-02-23T14:29:19.861Z</time>
      </trkpt>
      <trkpt lat="48.772912" lon="2.128280">
        <ele>136.497633</ele>
        <time>2023-02-23T14:29:20.423Z</time>
      </trkpt>
      <trkpt lat="48.772852" lon="2.128247">
        <ele>136.802304</ele>
        <time>2023-02-23T14:29:22.902Z</time>
      </trkpt>
      <trkpt lat="48.772835" lon="2.128181">
        <ele>137.025250</ele>
        <time>2023-02-23T14:29:24.115Z</time>
      </trkpt>
      <trkpt lat="48.773228" lon="2.126340">
        <ele>142.410077</ele>
        <time>2023-02-23T14:30:00.407Z</time>
      </trkpt>
      <trkpt lat="48.773229" lon="2.126058">
        <ele>143.016610</ele>
        <time>2023-02-23T14:30:06.961Z</time>
      </trkpt>
      <trkpt lat="48.773158" lon="2.125627">
        <ele>143.972123</ele>
        <time>2023-02-23T14:30:14.562Z</time>
      </trkpt>
      <trkpt lat="48.773084" lon="2.125470">
        <ele>144.387271</ele>
        <time>2023-02-23T14:30:18.402Z</time>
      </trkpt>
      <trkpt lat="48.772713" lon="2.125302">
        <ele>145.650805</ele>
        <time>2023-02-23T14:30:28.435Z</time>
      </trkpt>
      <trkpt lat="48.772641" lon="2.125226">
        <ele>145.937044</ele>
        <time>2023-02-23T14:30:30.330Z</time>
      </trkpt>
      <trkpt lat="48.772338" lon="2.124696">
        <ele>147.164377</ele>
        <time>2023-02-23T14:30:43.232Z</time>
      </trkpt>
      <trkpt lat="48.772200" lon="2.124543">
        <ele>147.493232</ele>
        <time>2023-02-23T14:30:48.383Z</time>
      </trkpt>
      <trkpt lat="48.771724" lon="2.124269">
        <ele>148.472794</ele>
        <time>2023-02-23T14:31:00.042Z</time>
      </trkpt>
      <trkpt lat="48.771473" lon="2.124129">
        <ele>148.987340</ele>
        <time>2023-02-23T14:31:05.235Z</time>
      </trkpt>
      <trkpt lat="48.771483" lon="2.124019">
        <ele>149.128152</ele>
        <time>2023-02-23T14:31:06.690Z</time>
      </trkpt>
      <trkpt lat="48.771428" lon="2.123945">
        <ele>149.269590</ele>
        <time>2023-02-23T14:31:08.152Z</time>
      </trkpt>
      <trkpt lat="48.771401" lon="2.123446">
        <ele>149.904503</ele>
        <time>2023-02-23T14:31:16.617Z</time>
      </trkpt>
      <trkpt lat="48.771389" lon="2.123275">
        <ele>150.122574</ele>
        <time>2023-02-23T14:31:19.663Z</time>
      </trkpt>
      <trkpt lat="48.771408" lon="2.123108">
        <ele>150.301457</ele>
        <time>2023-02-23T14:31:22.390Z</time>
      </trkpt>
      <trkpt lat="48.771760" lon="2.121878">
        <ele>151.478607</ele>
        <time>2023-02-23T14:31:44.593Z</time>
      </trkpt>
      <trkpt lat="48.771659" lon="2.121749">
        <ele>151.654453</ele>
        <time>2023-02-23T14:31:47.346Z</time>
      </trkpt>
      <trkpt lat="48.771219" lon="2.121449">
        <ele>152.296968</ele>
        <time>2023-02-23T14:31:56.678Z</time>
      </trkpt>
      <trkpt lat="48.771180" lon="2.121423">
        <ele>152.353708</ele>
        <time>2023-02-23T14:31:57.484Z</time>
      </trkpt>
      <trkpt lat="48.771077" lon="2.121347">
        <ele>152.506262</ele>
        <time>2023-02-23T14:32:00.367Z</time>
      </trkpt>
      <trkpt lat="48.770937" lon="2.121244">
        <ele>152.749428</ele>
        <time>2023-02-23T14:32:04.325Z</time>
      </trkpt>
      <trkpt lat="48.770265" lon="2.120727">
        <ele>154.123348</ele>
        <time>2023-02-23T14:32:25.173Z</time>
      </trkpt>
      <trkpt lat="48.769135" lon="2.119844">
        <ele>156.356863</ele>
        <time>2023-02-23T14:32:54.309Z</time>
      </trkpt>
      <trkpt lat="48.769130" lon="2.119768">
        <ele>156.434469</ele>
        <time>2023-02-23T14:32:55.341Z</time>
      </trkpt>
      <trkpt lat="48.769068" lon="2.119637">
        <ele>156.598339</ele>
        <time>2023-02-23T14:32:57.648Z</time>
      </trkpt>
      <trkpt lat="48.769010" lon="2.119614">
        <ele>156.690758</ele>
        <time>2023-02-23T14:32:59.059Z</time>
      </trkpt>
      <trkpt lat="48.768978" lon="2.119660">
        <ele>156.758716</ele>
        <time>2023-02-23T14:33:00.055Z</time>
      </trkpt>
      <trkpt lat="48.768358" lon="2.119181">
        <ele>157.831316</ele>
        <time>2023-02-23T14:33:14.945Z</time>
      </trkpt>
      <trkpt lat="48.768093" lon="2.118981">
        <ele>158.287604</ele>
        <time>2023-02-23T14:33:20.797Z</time>
      </trkpt>
      <trkpt lat="48.768016" lon="2.118882">
        <ele>158.443201</ele>
        <time>2023-02-23T14:33:22.820Z</time>
      </trkpt>
      <trkpt lat="48.768018" lon="2.118762">
        <ele>158.565173</ele>
        <time>2023-02-23T14:33:24.296Z</time>
      </trkpt>
      <trkpt lat="48.767982" lon="2.118701">
        <ele>158.648372</ele>
        <time>2023-02-23T14:33:25.244Z</time>
      </trkpt>
      <trkpt lat="48.767899" lon="2.118691">
        <ele>158.721160</ele>
        <time>2023-02-23T14:33:26.762Z</time>
      </trkpt>
      <trkpt lat="48.767749" lon="2.118595">
        <ele>158.842871</ele>
        <time>2023-02-23T14:33:29.839Z</time>
      </trkpt>
      <trkpt lat="48.767587" lon="2.118442">
        <ele>158.985533</ele>
        <time>2023-02-23T14:33:33.186Z</time>
      </trkpt>
      <trkpt lat="48.767489" lon="2.118324">
        <ele>159.079068</ele>
        <time>2023-02-23T14:33:35.481Z</time>
      </trkpt>
      <trkpt lat="48.767458" lon="2.118286">
        <ele>159.108864</ele>
        <time>2023-02-23T14:33:36.177Z</time>
      </trkpt>
      <trkpt lat="48.767418" lon="2.118238">
        <ele>159.146991</ele>
        <time>2023-02-23T14:33:37.040Z</time>
      </trkpt>
      <trkpt lat="48.766889" lon="2.117623">
        <ele>159.645239</ele>
        <time>2023-02-23T14:33:48.656Z</time>
      </trkpt>
      <trkpt lat="48.766504" lon="2.117179">
        <ele>160.006785</ele>
        <time>2023-02-23T14:33:57.220Z</time>
      </trkpt>
      <trkpt lat="48.765882" lon="2.116432">
        <ele>160.065487</ele>
        <time>2023-02-23T14:34:10.213Z</time>
      </trkpt>
      <trkpt lat="48.765700" lon="2.116232">
        <ele>160.080375</ele>
        <time>2023-02-23T14:34:13.625Z</time>
      </trkpt>
      <trkpt lat="48.765618" lon="2.116129">
        <ele>160.087429</ele>
        <time>2023-02-23T14:34:15.157Z</time>
      </trkpt>
      <trkpt lat="48.765088" lon="2.115519">
        <ele>160.131504</ele>
        <time>2023-02-23T14:34:24.231Z</time>
      </trkpt>
      <trkpt lat="48.764984" lon="2.115396">
        <ele>160.082367</ele>
        <time>2023-02-23T14:34:25.987Z</time>
      </trkpt>
      <trkpt lat="48.764669" lon="2.115028">
        <ele>159.906777</ele>
        <time>2023-02-23T14:34:31.452Z</time>
      </trkpt>
      <trkpt lat="48.764643" lon="2.114994">
        <ele>159.891617</ele>
        <time>2023-02-23T14:34:31.943Z</time>
      </trkpt>
      <trkpt lat="48.764542" lon="2.114890">
        <ele>159.837705</ele>
        <time>2023-02-23T14:34:34.228Z</time>
      </trkpt>
      <trkpt lat="48.764401" lon="2.114926">
        <ele>159.774556</ele>
        <time>2023-02-23T14:34:36.858Z</time>
      </trkpt>
      <trkpt lat="48.764140" lon="2.115395">
        <ele>159.595868</ele>
        <time>2023-02-23T14:34:42.144Z</time>
      </trkpt>
      <trkpt lat="48.763915" lon="2.115848">
        <ele>159.430741</ele>
        <time>2023-02-23T14:34:47.178Z</time>
      </trkpt>
      <trkpt lat="48.763659" lon="2.116357">
        <ele>159.220090</ele>
        <time>2023-02-23T14:34:55.192Z</time>
      </trkpt>
      <trkpt lat="48.763286" lon="2.117147">
        <ele>158.864141</ele>
        <time>2023-02-23T14:35:06.993Z</time>
      </trkpt>
      <trkpt lat="48.763207" lon="2.117335">
        <ele>158.782474</ele>
        <time>2023-02-23T14:35:09.752Z</time>
      </trkpt>
      <trkpt lat="48.763078" lon="2.117675">
        <ele>158.638776</ele>
        <time>2023-02-23T14:35:14.569Z</time>
      </trkpt>
      <trkpt lat="48.762985" lon="2.117962">
        <ele>158.521632</ele>
        <time>2023-02-23T14:35:18.422Z</time>
      </trkpt>
      <trkpt lat="48.762730" lon="2.118788">
        <ele>158.164062</ele>
        <time>2023-02-23T14:35:29.111Z</time>
      </trkpt>
      <trkpt lat="48.762585" lon="2.119064">
        <ele>158.014728</ele>
        <time>2023-02-23T14:35:33.324Z</time>
      </trkpt>
      <trkpt lat="48.762441" lon="2.119509">
        <ele>157.804973</ele>
        <time>2023-02-23T14:35:39.286Z</time>
      </trkpt>
      <trkpt lat="48.762360" lon="2.119775">
        <ele>157.680993</ele>
        <time>2023-02-23T14:35:42.818Z</time>
      </trkpt>
      <trkpt lat="48.762294" lon="2.119965">
        <ele>157.590120</ele>
        <time>2023-02-23T14:35:45.416Z</time>
      </trkpt>
      <trkpt lat="48.762234" lon="2.120150">
        <ele>157.502880</ele>
        <time>2023-02-23T14:35:47.846Z</time>
      </trkpt>
      <trkpt lat="48.762103" lon="2.120576">
        <ele>157.303979</ele>
        <time>2023-02-23T14:35:53.465Z</time>
      </trkpt>
      <trkpt lat="48.762041" lon="2.120933">
        <ele>157.171159</ele>
        <time>2023-02-23T14:35:57.906Z</time>
      </trkpt>
      <trkpt lat="48.761842" lon="2.121558">
        <ele>157.065615</ele>
        <time>2023-02-23T14:36:06.223Z</time>
      </trkpt>
      <trkpt lat="48.761750" lon="2.121847">
        <ele>157.016814</ele>
        <time>2023-02-23T14:36:10.304Z</time>
      </trkpt>
      <trkpt lat="48.761725" lon="2.121926">
        <ele>157.003488</ele>
        <time>2023-02-23T14:36:11.407Z</time>
      </trkpt>
      <trkpt lat="48.761488" lon="2.122650">
        <ele>156.880568</ele>
        <time>2023-02-23T14:36:19.605Z</time>
      </trkpt>
      <trkpt lat="48.761330" lon="2.123141">
        <ele>156.797485</ele>
        <time>2023-02-23T14:36:24.989Z</time>
      </trkpt>
      <trkpt lat="48.761209" lon="2.123523">
        <ele>156.680757</ele>
        <time>2023-02-23T14:36:28.940Z</time>
      </trkpt>
      <trkpt lat="48.761085" lon="2.123926">
        <ele>156.515817</ele>
        <time>2023-02-23T14:36:33.012Z</time>
      </trkpt>
      <trkpt lat="48.761049" lon="2.124048">
        <ele>156.466245</ele>
        <time>2023-02-23T14:36:34.260Z</time>
      </trkpt>
      <trkpt lat="48.760926" lon="2.124398">
        <ele>156.319146</ele>
        <time>2023-02-23T14:36:37.725Z</time>
      </trkpt>
      <trkpt lat="48.760856" lon="2.124522">
        <ele>156.258600</ele>
        <time>2023-02-23T14:36:39.217Z</time>
      </trkpt>
      <trkpt lat="48.760753" lon="2.124564">
        <ele>156.198595</ele>
        <time>2023-02-23T14:36:40.692Z</time>
      </trkpt>
      <trkpt lat="48.760624" lon="2.124499">
        <ele>156.122120</ele>
        <time>2023-02-23T14:36:42.399Z</time>
      </trkpt>
      <trkpt lat="48.759325" lon="2.123569">
        <ele>154.499958</ele>
        <time>2023-02-23T14:37:00.024Z</time>
      </trkpt>
      <trkpt lat="48.758797" lon="2.123252">
        <ele>153.594032</ele>
        <time>2023-02-23T14:37:06.228Z</time>
      </trkpt>
      <trkpt lat="48.758008" lon="2.122672">
        <ele>152.020820</ele>
        <time>2023-02-23T14:37:15.800Z</time>
      </trkpt>
      <trkpt lat="48.757677" lon="2.122429">
        <ele>151.286409</ele>
        <time>2023-02-23T14:37:19.810Z</time>
      </trkpt>
      <trkpt lat="48.757451" lon="2.122269">
        <ele>150.788312</ele>
        <time>2023-02-23T14:37:22.532Z</time>
      </trkpt>
      <trkpt lat="48.756062" lon="2.121255">
        <ele>148.065508</ele>
        <time>2023-02-23T14:37:39.571Z</time>
      </trkpt>
      <trkpt lat="48.755657" lon="2.120980">
        <ele>147.378108</ele>
        <time>2023-02-23T14:37:44.711Z</time>
      </trkpt>
      <trkpt lat="48.755353" lon="2.120815">
        <ele>146.877925</ele>
        <time>2023-02-23T14:37:48.500Z</time>
      </trkpt>
      <trkpt lat="48.754863" lon="2.120647">
        <ele>146.371843</ele>
        <time>2023-02-23T14:37:54.484Z</time>
      </trkpt>
      <trkpt lat="48.753285" lon="2.120392">
        <ele>145.604887</ele>
        <time>2023-02-23T14:38:15.493Z</time>
      </trkpt>
      <trkpt lat="48.751122" lon="2.120091">
        <ele>147.339037</ele>
        <time>2023-02-23T14:38:54.014Z</time>
      </trkpt>
      <trkpt lat="48.750659" lon="2.120026">
        <ele>148.108315</ele>
        <time>2023-02-23T14:39:03.734Z</time>
      </trkpt>
      <trkpt lat="48.750350" lon="2.119985">
        <ele>148.621489</ele>
        <time>2023-02-23T14:39:10.739Z</time>
      </trkpt>
      <trkpt lat="48.750159" lon="2.119991">
        <ele>148.937554</ele>
        <time>2023-02-23T14:39:15.270Z</time>
      </trkpt>
      <trkpt lat="48.750096" lon="2.119962">
        <ele>149.046478</ele>
        <time>2023-02-23T14:39:16.858Z</time>
      </trkpt>
      <trkpt lat="48.749966" lon="2.119980">
        <ele>149.262449</ele>
        <time>2023-02-23T14:39:20.065Z</time>
      </trkpt>
      <trkpt lat="48.749923" lon="2.120012">
        <ele>149.341693</ele>
        <time>2023-02-23T14:39:21.221Z</time>
      </trkpt>
      <trkpt lat="48.749722" lon="2.119886">
        <ele>149.720812</ele>
        <time>2023-02-23T14:39:26.650Z</time>
      </trkpt>
      <trkpt lat="48.749527" lon="2.119845">
        <ele>150.114884</ele>
        <time>2023-02-23T14:39:31.553Z</time>
      </trkpt>
      <trkpt lat="48.749311" lon="2.119765">
        <ele>150.559965</ele>
        <time>2023-02-23T14:39:38.274Z</time>
      </trkpt>
      <trkpt lat="48.749117" lon="2.119693">
        <ele>150.959761</ele>
        <time>2023-02-23T14:39:43.939Z</time>
      </trkpt>
      <trkpt lat="48.748628" lon="2.119379">
        <ele>152.022731</ele>
        <time>2023-02-23T14:39:58.850Z</time>
      </trkpt>
      <trkpt lat="48.748289" lon="2.119024">
        <ele>152.847370</ele>
        <time>2023-02-23T14:40:10.345Z</time>
      </trkpt>
      <trkpt lat="48.748043" lon="2.118706">
        <ele>153.341082</ele>
        <time>2023-02-23T14:40:19.037Z</time>
      </trkpt>
      <trkpt lat="48.747843" lon="2.118366">
        <ele>153.618227</ele>
        <time>2023-02-23T14:40:26.706Z</time>
      </trkpt>
      <trkpt lat="48.747634" lon="2.117866">
        <ele>153.978321</ele>
        <time>2023-02-23T14:40:36.061Z</time>
      </trkpt>
      <trkpt lat="48.747687" lon="2.117796">
        <ele>154.043155</ele>
        <time>2023-02-23T14:40:37.399Z</time>
      </trkpt>
      <trkpt lat="48.747711" lon="2.117653">
        <ele>154.132910</ele>
        <time>2023-02-23T14:40:39.048Z</time>
      </trkpt>
      <trkpt lat="48.747682" lon="2.117525">
        <ele>154.215236</ele>
        <time>2023-02-23T14:40:40.578Z</time>
      </trkpt>
      <trkpt lat="48.747617" lon="2.117442">
        <ele>154.293621</ele>
        <time>2023-02-23T14:40:41.988Z</time>
      </trkpt>
      <trkpt lat="48.747527" lon="2.117407">
        <ele>154.379330</ele>
        <time>2023-02-23T14:40:43.652Z</time>
      </trkpt>
      <trkpt lat="48.747469" lon="2.117284">
        <ele>154.471310</ele>
        <time>2023-02-23T14:40:45.240Z</time>
      </trkpt>
      <trkpt lat="48.747336" lon="2.117019">
        <ele>154.673882</ele>
        <time>2023-02-23T14:40:48.771Z</time>
      </trkpt>
      <trkpt lat="48.747226" lon="2.116921">
        <ele>154.791570</ele>
        <time>2023-02-23T14:40:50.859Z</time>
      </trkpt>
      <trkpt lat="48.747014" lon="2.116364">
        <ele>155.152186</ele>
        <time>2023-02-23T14:40:58.057Z</time>
      </trkpt>
      <trkpt lat="48.746886" lon="2.115926">
        <ele>155.415176</ele>
        <time>2023-02-23T14:41:03.608Z</time>
      </trkpt>
      <trkpt lat="48.746804" lon="2.115705">
        <ele>155.554379</ele>
        <time>2023-02-23T14:41:06.709Z</time>
      </trkpt>
      <trkpt lat="48.746762" lon="2.115594">
        <ele>155.624630</ele>
        <time>2023-02-23T14:41:08.451Z</time>
      </trkpt>
      <trkpt lat="48.746384" lon="2.114782">
        <ele>156.170259</ele>
        <time>2023-02-23T14:41:20.512Z</time>
      </trkpt>
      <trkpt lat="48.746174" lon="2.114447">
        <ele>156.430901</ele>
        <time>2023-02-23T14:41:26.144Z</time>
      </trkpt>
      <trkpt lat="48.746142" lon="2.114383">
        <ele>156.480299</ele>
        <time>2023-02-23T14:41:27.311Z</time>
      </trkpt>
      <trkpt lat="48.746136" lon="2.114249">
        <ele>156.562904</ele>
        <time>2023-02-23T14:41:29.179Z</time>
      </trkpt>
      <trkpt lat="48.746136" lon="2.114249">
        <ele>156.562904</ele>
        <time>2023-02-23T14:41:29.196Z</time>
      </trkpt>
      <trkpt lat="48.746136" lon="2.114249">
        <ele>156.562904</ele>
        <time>2023-02-23T14:41:29.196Z</time>
      </trkpt>
      <trkpt lat="48.746140" lon="2.114380">
        <ele>156.643559</ele>
        <time>2023-02-23T14:41:30.798Z</time>
      </trkpt>
      <trkpt lat="48.746120" lon="2.114260">
        <ele>156.719684</ele>
        <time>2023-02-23T14:41:32.311Z</time>
      </trkpt>
      <trkpt lat="48.746150" lon="2.114180">
        <ele>156.776287</ele>
        <time>2023-02-23T14:41:33.436Z</time>
      </trkpt>
      <trkpt lat="48.746150" lon="2.114030">
        <ele>156.868541</ele>
        <time>2023-02-23T14:41:35.269Z</time>
      </trkpt>
      <trkpt lat="48.746060" lon="2.113650">
        <ele>157.116872</ele>
        <time>2023-02-23T14:41:40.204Z</time>
      </trkpt>
      <trkpt lat="48.746060" lon="2.113120">
        <ele>157.442840</ele>
        <time>2023-02-23T14:41:46.681Z</time>
      </trkpt>
      <trkpt lat="48.746040" lon="2.113100">
        <ele>157.465185</ele>
        <time>2023-02-23T14:41:47.125Z</time>
      </trkpt>
      <trkpt lat="48.745900" lon="2.113090">
        <ele>157.595910</ele>
        <time>2023-02-23T14:41:49.722Z</time>
      </trkpt>
      <trkpt lat="48.745960" lon="2.112130">
        <ele>158.120220</ele>
        <time>2023-02-23T14:42:01.507Z</time>
      </trkpt>
      <trkpt lat="48.745962" lon="2.112140">
        <ele>158.123593</ele>
        <time>2023-02-23T14:42:01.628Z</time>
      </trkpt>
      <trkpt lat="48.746004" lon="2.111914">
        <ele>158.199391</ele>
        <time>2023-02-23T14:42:04.925Z</time>
      </trkpt>
      <trkpt lat="48.746026" lon="2.111818">
        <ele>158.232199</ele>
        <time>2023-02-23T14:42:06.005Z</time>
      </trkpt>
      <trkpt lat="48.746016" lon="2.111782">
        <ele>158.244809</ele>
        <time>2023-02-23T14:42:06.442Z</time>
      </trkpt>
      <trkpt lat="48.746069" lon="2.111648">
        <ele>158.295251</ele>
        <time>2023-02-23T14:42:08.713Z</time>
      </trkpt>
      <trkpt lat="48.746065" lon="2.111569">
        <ele>158.320828</ele>
        <time>2023-02-23T14:42:10.222Z</time>
      </trkpt>
      <trkpt lat="48.746097" lon="2.111037">
        <ele>158.493277</ele>
        <time>2023-02-23T14:42:16.236Z</time>
      </trkpt>
      <trkpt lat="48.746070" lon="2.108658">
        <ele>159.146821</ele>
        <time>2023-02-23T14:42:41.008Z</time>
      </trkpt>
      <trkpt lat="48.746044" lon="2.108082">
        <ele>159.269770</ele>
        <time>2023-02-23T14:42:47.235Z</time>
      </trkpt>
      <trkpt lat="48.745936" lon="2.107663">
        <ele>159.365573</ele>
        <time>2023-02-23T14:42:52.080Z</time>
      </trkpt>
      <trkpt lat="48.745723" lon="2.107287">
        <ele>159.471135</ele>
        <time>2023-02-23T14:42:57.395Z</time>
      </trkpt>
      <trkpt lat="48.745072" lon="2.106413">
        <ele>159.630448</ele>
        <time>2023-02-23T14:43:11.507Z</time>
      </trkpt>
      <trkpt lat="48.742879" lon="2.103468">
        <ele>159.691166</ele>
        <time>2023-02-23T14:43:55.302Z</time>
      </trkpt>
      <trkpt lat="48.741755" lon="2.101950">
        <ele>159.101054</ele>
        <time>2023-02-23T14:44:15.481Z</time>
      </trkpt>
      <trkpt lat="48.741510" lon="2.101529">
        <ele>158.916161</ele>
        <time>2023-02-23T14:44:20.240Z</time>
      </trkpt>
      <trkpt lat="48.741219" lon="2.100791">
        <ele>158.562348</ele>
        <time>2023-02-23T14:44:27.607Z</time>
      </trkpt>
      <trkpt lat="48.740877" lon="2.099546">
        <ele>158.007389</ele>
        <time>2023-02-23T14:44:39.120Z</time>
      </trkpt>
      <trkpt lat="48.740747" lon="2.098858">
        <ele>157.724017</ele>
        <time>2023-02-23T14:44:45.183Z</time>
      </trkpt>
      <trkpt lat="48.740681" lon="2.098333">
        <ele>157.517115</ele>
        <time>2023-02-23T14:44:49.724Z</time>
      </trkpt>
      <trkpt lat="48.740677" lon="2.098158">
        <ele>157.449327</ele>
        <time>2023-02-23T14:44:51.206Z</time>
      </trkpt>
      <trkpt lat="48.740758" lon="2.097860">
        <ele>157.324547</ele>
        <time>2023-02-23T14:44:53.972Z</time>
      </trkpt>
      <trkpt lat="48.740756" lon="2.097756">
        <ele>157.284269</ele>
        <time>2023-02-23T14:44:54.790Z</time>
      </trkpt>
      <trkpt lat="48.740597" lon="2.097444">
        <ele>157.131623</ele>
        <time>2023-02-23T14:44:58.288Z</time>
      </trkpt>
      <trkpt lat="48.740558" lon="2.097275">
        <ele>157.062308</ele>
        <time>2023-02-23T14:44:59.778Z</time>
      </trkpt>
      <trkpt lat="48.740526" lon="2.097114">
        <ele>156.997211</ele>
        <time>2023-02-23T14:45:01.379Z</time>
      </trkpt>
      <trkpt lat="48.740564" lon="2.096936">
        <ele>156.924781</ele>
        <time>2023-02-23T14:45:03.073Z</time>
      </trkpt>
      <trkpt lat="48.740560" lon="2.096842">
        <ele>156.888316</ele>
        <time>2023-02-23T14:45:03.859Z</time>
      </trkpt>
      <trkpt lat="48.740521" lon="2.096698">
        <ele>156.831425</ele>
        <time>2023-02-23T14:45:05.199Z</time>
      </trkpt>
      <trkpt lat="48.740448" lon="2.096590">
        <ele>156.783545</ele>
        <time>2023-02-23T14:45:06.630Z</time>
      </trkpt>
      <trkpt lat="48.740348" lon="2.096523">
        <ele>156.732221</ele>
        <time>2023-02-23T14:45:08.096Z</time>
      </trkpt>
      <trkpt lat="48.740269" lon="2.096533">
        <ele>156.695004</ele>
        <time>2023-02-23T14:45:09.053Z</time>
      </trkpt>
      <trkpt lat="48.740115" lon="2.096444">
        <ele>156.617634</ele>
        <time>2023-02-23T14:45:11.285Z</time>
      </trkpt>
      <trkpt lat="48.739989" lon="2.096373">
        <ele>156.554530</ele>
        <time>2023-02-23T14:45:13.015Z</time>
      </trkpt>
      <trkpt lat="48.739702" lon="2.095912">
        <ele>156.358254</ele>
        <time>2023-02-23T14:45:18.503Z</time>
      </trkpt>
      <trkpt lat="48.739505" lon="2.095604">
        <ele>156.225414</ele>
        <time>2023-02-23T14:45:22.386Z</time>
      </trkpt>
      <trkpt lat="48.739142" lon="2.094965">
        <ele>155.923800</ele>
        <time>2023-02-23T14:45:29.806Z</time>
      </trkpt>
      <trkpt lat="48.739006" lon="2.094787">
        <ele>155.745108</ele>
        <time>2023-02-23T14:45:32.235Z</time>
      </trkpt>
      <trkpt lat="48.738829" lon="2.094614">
        <ele>155.535652</ele>
        <time>2023-02-23T14:45:35.129Z</time>
      </trkpt>
      <trkpt lat="48.738667" lon="2.094473">
        <ele>155.349863</ele>
        <time>2023-02-23T14:45:37.832Z</time>
      </trkpt>
      <trkpt lat="48.738316" lon="2.094161">
        <ele>154.945179</ele>
        <time>2023-02-23T14:45:43.532Z</time>
      </trkpt>
      <trkpt lat="48.738156" lon="2.094019">
        <ele>154.760781</ele>
        <time>2023-02-23T14:45:45.927Z</time>
      </trkpt>
      <trkpt lat="48.738135" lon="2.093999">
        <ele>154.736116</ele>
        <time>2023-02-23T14:45:46.261Z</time>
      </trkpt>
      <trkpt lat="48.738112" lon="2.093976">
        <ele>154.708712</ele>
        <time>2023-02-23T14:45:46.642Z</time>
      </trkpt>
      <trkpt lat="48.738097" lon="2.093963">
        <ele>154.691527</ele>
        <time>2023-02-23T14:45:46.835Z</time>
      </trkpt>
      <trkpt lat="48.738005" lon="2.093883">
        <ele>154.586041</ele>
        <time>2023-02-23T14:45:48.007Z</time>
      </trkpt>
      <trkpt lat="48.737851" lon="2.093752">
        <ele>154.410409</ele>
        <time>2023-02-23T14:45:49.930Z</time>
      </trkpt>
      <trkpt lat="48.737709" lon="2.093596">
        <ele>154.235995</ele>
        <time>2023-02-23T14:45:51.811Z</time>
      </trkpt>
      <trkpt lat="48.737328" lon="2.092888">
        <ele>151.023394</ele>
        <time>2023-02-23T14:45:58.050Z</time>
      </trkpt>
      <trkpt lat="48.737074" lon="2.092501">
        <ele>149.037360</ele>
        <time>2023-02-23T14:46:01.546Z</time>
      </trkpt>
      <trkpt lat="48.736798" lon="2.092064">
        <ele>146.836403</ele>
        <time>2023-02-23T14:46:05.112Z</time>
      </trkpt>
      <trkpt lat="48.736488" lon="2.091575">
        <ele>144.369118</ele>
        <time>2023-02-23T14:46:09.042Z</time>
      </trkpt>
      <trkpt lat="48.736437" lon="2.091458">
        <ele>143.522400</ele>
        <time>2023-02-23T14:46:09.868Z</time>
      </trkpt>
      <trkpt lat="48.736373" lon="2.091328">
        <ele>142.472687</ele>
        <time>2023-02-23T14:46:10.782Z</time>
      </trkpt>
      <trkpt lat="48.736283" lon="2.091240">
        <ele>141.421992</ele>
        <time>2023-02-23T14:46:11.694Z</time>
      </trkpt>
      <trkpt lat="48.736145" lon="2.091200">
        <ele>140.043521</ele>
        <time>2023-02-23T14:46:12.946Z</time>
      </trkpt>
      <trkpt lat="48.735837" lon="2.091160">
        <ele>137.010591</ele>
        <time>2023-02-23T14:46:15.609Z</time>
      </trkpt>
      <trkpt lat="48.735780" lon="2.091167">
        <ele>136.449518</ele>
        <time>2023-02-23T14:46:16.115Z</time>
      </trkpt>
      <trkpt lat="48.735577" lon="2.091254">
        <ele>134.379800</ele>
        <time>2023-02-23T14:46:17.919Z</time>
      </trkpt>
      <trkpt lat="48.734915" lon="2.091427">
        <ele>127.788983</ele>
        <time>2023-02-23T14:46:23.670Z</time>
      </trkpt>
      <trkpt lat="48.734420" lon="2.091483">
        <ele>123.685259</ele>
        <time>2023-02-23T14:46:27.936Z</time>
      </trkpt>
      <trkpt lat="48.734150" lon="2.091414">
        <ele>121.551496</ele>
        <time>2023-02-23T14:46:30.273Z</time>
      </trkpt>
      <trkpt lat="48.733963" lon="2.091250">
        <ele>119.867992</ele>
        <time>2023-02-23T14:46:32.221Z</time>
      </trkpt>
      <trkpt lat="48.733763" lon="2.091073">
        <ele>118.063323</ele>
        <time>2023-02-23T14:46:34.372Z</time>
      </trkpt>
      <trkpt lat="48.733648" lon="2.091029">
        <ele>117.139043</ele>
        <time>2023-02-23T14:46:35.433Z</time>
      </trkpt>
      <trkpt lat="48.733619" lon="2.091032">
        <ele>116.912524</ele>
        <time>2023-02-23T14:46:35.705Z</time>
      </trkpt>
      <trkpt lat="48.733477" lon="2.091111">
        <ele>115.733785</ele>
        <time>2023-02-23T14:46:37.106Z</time>
      </trkpt>
      <trkpt lat="48.733370" lon="2.091317">
        <ele>114.386048</ele>
        <time>2023-02-23T14:46:38.666Z</time>
      </trkpt>
      <trkpt lat="48.733348" lon="2.091502">
        <ele>113.419831</ele>
        <time>2023-02-23T14:46:39.820Z</time>
      </trkpt>
      <trkpt lat="48.733379" lon="2.091671">
        <ele>112.582280</ele>
        <time>2023-02-23T14:46:40.879Z</time>
      </trkpt>
      <trkpt lat="48.733440" lon="2.091819">
        <ele>112.211143</ele>
        <time>2023-02-23T14:46:41.910Z</time>
      </trkpt>
      <trkpt lat="48.733500" lon="2.092120">
        <ele>111.542442</ele>
        <time>2023-02-23T14:46:43.825Z</time>
      </trkpt>
      <trkpt lat="48.733430" lon="2.092614">
        <ele>110.467932</ele>
        <time>2023-02-23T14:46:46.905Z</time>
      </trkpt>
      <trkpt lat="48.733390" lon="2.092677">
        <ele>110.281967</ele>
        <time>2023-02-23T14:46:47.482Z</time>
      </trkpt>
      <trkpt lat="48.733259" lon="2.092538">
        <ele>109.766427</ele>
        <time>2023-02-23T14:46:49.040Z</time>
      </trkpt>
      <trkpt lat="48.732807" lon="2.092269">
        <ele>108.200809</ele>
        <time>2023-02-23T14:46:54.340Z</time>
      </trkpt>
      <trkpt lat="48.732361" lon="2.092038">
        <ele>106.877008</ele>
        <time>2023-02-23T14:47:00.600Z</time>
      </trkpt>
      <trkpt lat="48.731785" lon="2.091876">
        <ele>107.504051</ele>
        <time>2023-02-23T14:47:10.655Z</time>
      </trkpt>
      <trkpt lat="48.731759" lon="2.091869">
        <ele>107.532315</ele>
        <time>2023-02-23T14:47:11.152Z</time>
      </trkpt>
      <trkpt lat="48.731713" lon="2.091857">
        <ele>107.582275</ele>
        <time>2023-02-23T14:47:12.122Z</time>
      </trkpt>
      <trkpt lat="48.731552" lon="2.091832">
        <ele>107.755504</ele>
        <time>2023-02-23T14:47:15.247Z</time>
      </trkpt>
      <trkpt lat="48.731234" lon="2.091911">
        <ele>108.100416</ele>
        <time>2023-02-23T14:47:22.452Z</time>
      </trkpt>
      <trkpt lat="48.731011" lon="2.092568">
        <ele>108.622068</ele>
        <time>2023-02-23T14:47:33.795Z</time>
      </trkpt>
      <trkpt lat="48.730962" lon="2.092721">
        <ele>108.742145</ele>
        <time>2023-02-23T14:47:36.268Z</time>
      </trkpt>
      <trkpt lat="48.730519" lon="2.094016">
        <ele>108.594545</ele>
        <time>2023-02-23T14:47:54.126Z</time>
      </trkpt>
      <trkpt lat="48.730070" lon="2.095403">
        <ele>108.153087</ele>
        <time>2023-02-23T14:48:05.945Z</time>
      </trkpt>
      <trkpt lat="48.729939" lon="2.096246">
        <ele>107.157420</ele>
        <time>2023-02-23T14:48:11.865Z</time>
      </trkpt>
      <trkpt lat="48.729864" lon="2.096501">
        <ele>106.836441</ele>
        <time>2023-02-23T14:48:13.732Z</time>
      </trkpt>
      <trkpt lat="48.728626" lon="2.099207">
        <ele>105.725178</ele>
        <time>2023-02-23T14:48:40.224Z</time>
      </trkpt>
      <trkpt lat="48.727593" lon="2.101820">
        <ele>110.293226</ele>
        <time>2023-02-23T14:49:37.112Z</time>
      </trkpt>
      <trkpt lat="48.727279" lon="2.103271">
        <ele>111.324263</ele>
        <time>2023-02-23T14:49:59.549Z</time>
      </trkpt>
      <trkpt lat="48.727155" lon="2.103574">
        <ele>111.387788</ele>
        <time>2023-02-23T14:50:03.038Z</time>
      </trkpt>
      <trkpt lat="48.727037" lon="2.103760">
        <ele>111.433763</ele>
        <time>2023-02-23T14:50:05.452Z</time>
      </trkpt>
      <trkpt lat="48.726814" lon="2.104005">
        <ele>111.508143</ele>
        <time>2023-02-23T14:50:08.772Z</time>
      </trkpt>
      <trkpt lat="48.726118" lon="2.104552">
        <ele>110.926812</ele>
        <time>2023-02-23T14:50:17.765Z</time>
      </trkpt>
      <trkpt lat="48.725576" lon="2.105383">
        <ele>109.554868</ele>
        <time>2023-02-23T14:50:26.238Z</time>
      </trkpt>
      <trkpt lat="48.724831" lon="2.106109">
        <ele>107.978953</ele>
        <time>2023-02-23T14:50:36.089Z</time>
      </trkpt>
      <trkpt lat="48.724376" lon="2.106482">
        <ele>107.058975</ele>
        <time>2023-02-23T14:50:42.033Z</time>
      </trkpt>
      <trkpt lat="48.723760" lon="2.107090">
        <ele>105.751639</ele>
        <time>2023-02-23T14:50:50.385Z</time>
      </trkpt>
      <trkpt lat="48.723292" lon="2.107665">
        <ele>104.527878</ele>
        <time>2023-02-23T14:50:56.981Z</time>
      </trkpt>
      <trkpt lat="48.722930" lon="2.108151">
        <ele>103.423033</ele>
        <time>2023-02-23T14:51:02.111Z</time>
      </trkpt>
      <trkpt lat="48.721582" lon="2.110194">
        <ele>100.432586</ele>
        <time>2023-02-23T14:51:22.403Z</time>
      </trkpt>
      <trkpt lat="48.721574" lon="2.110207">
        <ele>100.423733</ele>
        <time>2023-02-23T14:51:22.543Z</time>
      </trkpt>
      <trkpt lat="48.718951" lon="2.114178">
        <ele>101.982072</ele>
        <time>2023-02-23T14:52:30.140Z</time>
      </trkpt>
      <trkpt lat="48.718769" lon="2.114503">
        <ele>102.184535</ele>
        <time>2023-02-23T14:52:35.622Z</time>
      </trkpt>
      <trkpt lat="48.718589" lon="2.114909">
        <ele>102.416854</ele>
        <time>2023-02-23T14:52:41.793Z</time>
      </trkpt>
      <trkpt lat="48.718437" lon="2.115297">
        <ele>102.298402</ele>
        <time>2023-02-23T14:52:46.654Z</time>
      </trkpt>
      <trkpt lat="48.718290" lon="2.115673">
        <ele>101.684213</ele>
        <time>2023-02-23T14:52:50.612Z</time>
      </trkpt>
      <trkpt lat="48.718120" lon="2.115954">
        <ele>101.148443</ele>
        <time>2023-02-23T14:52:53.602Z</time>
      </trkpt>
      <trkpt lat="48.717610" lon="2.116544">
        <ele>99.781884</ele>
        <time>2023-02-23T14:53:00.473Z</time>
      </trkpt>
      <trkpt lat="48.716937" lon="2.117477">
        <ele>97.089100</ele>
        <time>2023-02-23T14:53:09.251Z</time>
      </trkpt>
      <trkpt lat="48.716051" lon="2.118403">
        <ele>92.835671</ele>
        <time>2023-02-23T14:53:19.600Z</time>
      </trkpt>
      <trkpt lat="48.715680" lon="2.118347">
        <ele>91.544379</ele>
        <time>2023-02-23T14:53:23.363Z</time>
      </trkpt>
      <trkpt lat="48.715323" lon="2.118151">
        <ele>91.158275</ele>
        <time>2023-02-23T14:53:27.427Z</time>
      </trkpt>
      <trkpt lat="48.715022" lon="2.118043">
        <ele>90.843739</ele>
        <time>2023-02-23T14:53:31.012Z</time>
      </trkpt>
      <trkpt lat="48.714433" lon="2.118222">
        <ele>90.232885</ele>
        <time>2023-02-23T14:53:39.556Z</time>
      </trkpt>
      <trkpt lat="48.714002" lon="2.118406">
        <ele>89.778465</ele>
        <time>2023-02-23T14:53:47.117Z</time>
      </trkpt>
      <trkpt lat="48.713076" lon="2.119031">
        <ele>89.710540</ele>
        <time>2023-02-23T14:54:02.924Z</time>
      </trkpt>
      <trkpt lat="48.712796" lon="2.119267">
        <ele>89.689072</ele>
        <time>2023-02-23T14:54:07.443Z</time>
      </trkpt>
      <trkpt lat="48.712423" lon="2.119692">
        <ele>89.656231</ele>
        <time>2023-02-23T14:54:13.631Z</time>
      </trkpt>
      <trkpt lat="48.712265" lon="2.119813">
        <ele>89.552677</ele>
        <time>2023-02-23T14:54:15.906Z</time>
      </trkpt>
      <trkpt lat="48.712049" lon="2.119881">
        <ele>89.423629</ele>
        <time>2023-02-23T14:54:18.671Z</time>
      </trkpt>
      <trkpt lat="48.709998" lon="2.120201">
        <ele>88.993049</ele>
        <time>2023-02-23T14:54:45.545Z</time>
      </trkpt>
      <trkpt lat="48.709562" lon="2.120122">
        <ele>89.249142</ele>
        <time>2023-02-23T14:54:53.199Z</time>
      </trkpt>
      <trkpt lat="48.709434" lon="2.120131">
        <ele>89.323874</ele>
        <time>2023-02-23T14:54:55.446Z</time>
      </trkpt>
      <trkpt lat="48.709219" lon="2.120265">
        <ele>89.459456</ele>
        <time>2023-02-23T14:55:00.124Z</time>
      </trkpt>
      <trkpt lat="48.709156" lon="2.120204">
        <ele>89.503058</ele>
        <time>2023-02-23T14:55:01.634Z</time>
      </trkpt>
      <trkpt lat="48.709117" lon="2.120224">
        <ele>89.527071</ele>
        <time>2023-02-23T14:55:02.407Z</time>
      </trkpt>
      <trkpt lat="48.709089" lon="2.120309">
        <ele>89.563633</ele>
        <time>2023-02-23T14:55:03.687Z</time>
      </trkpt>
      <trkpt lat="48.708966" lon="2.120347">
        <ele>89.636844</ele>
        <time>2023-02-23T14:55:06.705Z</time>
      </trkpt>
      <trkpt lat="48.708127" lon="2.120851">
        <ele>91.113526</ele>
        <time>2023-02-23T14:55:28.389Z</time>
      </trkpt>
      <trkpt lat="48.708009" lon="2.120896">
        <ele>91.317158</ele>
        <time>2023-02-23T14:55:31.378Z</time>
      </trkpt>
      <trkpt lat="48.707768" lon="2.120925">
        <ele>91.721746</ele>
        <time>2023-02-23T14:55:36.889Z</time>
      </trkpt>
      <trkpt lat="48.707642" lon="2.120894">
        <ele>91.935371</ele>
        <time>2023-02-23T14:55:39.636Z</time>
      </trkpt>
      <trkpt lat="48.707100" lon="2.120733">
        <ele>92.561221</ele>
        <time>2023-02-23T14:55:49.883Z</time>
      </trkpt>
      <trkpt lat="48.706646" lon="2.120557">
        <ele>92.143572</ele>
        <time>2023-02-23T14:55:56.849Z</time>
      </trkpt>
      <trkpt lat="48.706219" lon="2.120529">
        <ele>91.762660</ele>
        <time>2023-02-23T14:56:02.252Z</time>
      </trkpt>
      <trkpt lat="48.706056" lon="2.120464">
        <ele>91.612443</ele>
        <time>2023-02-23T14:56:04.267Z</time>
      </trkpt>
      <trkpt lat="48.705940" lon="2.120366">
        <ele>91.494079</ele>
        <time>2023-02-23T14:56:05.768Z</time>
      </trkpt>
      <trkpt lat="48.705455" lon="2.119612">
        <ele>90.581263</ele>
        <time>2023-02-23T14:56:13.188Z</time>
      </trkpt>
      <trkpt lat="48.705398" lon="2.119519">
        <ele>90.389507</ele>
        <time>2023-02-23T14:56:14.096Z</time>
      </trkpt>
      <trkpt lat="48.705177" lon="2.119163">
        <ele>89.651084</ele>
        <time>2023-02-23T14:56:17.512Z</time>
      </trkpt>
      <trkpt lat="48.705006" lon="2.118709">
        <ele>88.861315</ele>
        <time>2023-02-23T14:56:21.161Z</time>
      </trkpt>
      <trkpt lat="48.704909" lon="2.118640">
        <ele>88.615996</ele>
        <time>2023-02-23T14:56:22.306Z</time>
      </trkpt>
      <trkpt lat="48.704813" lon="2.118664">
        <ele>88.393247</ele>
        <time>2023-02-23T14:56:23.290Z</time>
      </trkpt>
      <trkpt lat="48.704701" lon="2.117764">
        <ele>87.009531</ele>
        <time>2023-02-23T14:56:29.841Z</time>
      </trkpt>
      <trkpt lat="48.704606" lon="2.117013">
        <ele>86.018596</ele>
        <time>2023-02-23T14:56:35.464Z</time>
      </trkpt>
      <trkpt lat="48.704601" lon="2.116973">
        <ele>85.966363</ele>
        <time>2023-02-23T14:56:35.781Z</time>
      </trkpt>
      <trkpt lat="48.704496" lon="2.116056">
        <ele>84.772262</ele>
        <time>2023-02-23T14:56:42.829Z</time>
      </trkpt>
      <trkpt lat="48.704365" lon="2.114987">
        <ele>83.346124</ele>
        <time>2023-02-23T14:56:50.608Z</time>
      </trkpt>
      <trkpt lat="48.704348" lon="2.114854">
        <ele>83.095108</ele>
        <time>2023-02-23T14:56:51.572Z</time>
      </trkpt>
      <trkpt lat="48.704283" lon="2.114312">
        <ele>82.074384</ele>
        <time>2023-02-23T14:56:55.381Z</time>
      </trkpt>
      <trkpt lat="48.704205" lon="2.113627">
        <ele>80.786385</ele>
        <time>2023-02-23T14:57:00.147Z</time>
      </trkpt>
      <trkpt lat="48.704135" lon="2.112942">
        <ele>79.502012</ele>
        <time>2023-02-23T14:57:04.832Z</time>
      </trkpt>
      <trkpt lat="48.704126" lon="2.112839">
        <ele>79.309496</ele>
        <time>2023-02-23T14:57:05.532Z</time>
      </trkpt>
      <trkpt lat="48.704103" lon="2.112659">
        <ele>78.969777</ele>
        <time>2023-02-23T14:57:06.767Z</time>
      </trkpt>
      <trkpt lat="48.704084" lon="2.112503">
        <ele>78.675841</ele>
        <time>2023-02-23T14:57:07.815Z</time>
      </trkpt>
      <trkpt lat="48.704012" lon="2.111853">
        <ele>77.532557</ele>
        <time>2023-02-23T14:57:12.170Z</time>
      </trkpt>
      <trkpt lat="48.703705" lon="2.109165">
        <ele>73.443117</ele>
        <time>2023-02-23T14:57:31.258Z</time>
      </trkpt>
      <trkpt lat="48.703598" lon="2.108103">
        <ele>72.766899</ele>
        <time>2023-02-23T14:57:40.087Z</time>
      </trkpt>
      <trkpt lat="48.703586" lon="2.107804">
        <ele>72.578347</ele>
        <time>2023-02-23T14:57:42.673Z</time>
      </trkpt>
      <trkpt lat="48.703574" lon="2.107496">
        <ele>72.384139</ele>
        <time>2023-02-23T14:57:45.558Z</time>
      </trkpt>
      <trkpt lat="48.703565" lon="2.107209">
        <ele>72.203284</ele>
        <time>2023-02-23T14:57:48.232Z</time>
      </trkpt>
      <trkpt lat="48.703557" lon="2.106848">
        <ele>72.061777</ele>
        <time>2023-02-23T14:57:51.757Z</time>
      </trkpt>
      <trkpt lat="48.703557" lon="2.106815">
        <ele>72.065247</ele>
        <time>2023-02-23T14:57:52.062Z</time>
      </trkpt>
      <trkpt lat="48.703566" lon="2.106451">
        <ele>72.103553</ele>
        <time>2023-02-23T14:57:55.744Z</time>
      </trkpt>
      <trkpt lat="48.703578" lon="2.105919">
        <ele>72.159531</ele>
        <time>2023-02-23T14:58:01.117Z</time>
      </trkpt>
      <trkpt lat="48.703519" lon="2.105302">
        <ele>72.225094</ele>
        <time>2023-02-23T14:58:07.758Z</time>
      </trkpt>
      <trkpt lat="48.703367" lon="2.104290">
        <ele>72.334239</ele>
        <time>2023-02-23T14:58:18.432Z</time>
      </trkpt>
      <trkpt lat="48.703348" lon="2.103679">
        <ele>72.504841</ele>
        <time>2023-02-23T14:58:24.897Z</time>
      </trkpt>
      <trkpt lat="48.703357" lon="2.103419">
        <ele>72.578800</ele>
        <time>2023-02-23T14:58:27.832Z</time>
      </trkpt>
      <trkpt lat="48.703440" lon="2.102914">
        <ele>72.726637</ele>
        <time>2023-02-23T14:58:33.277Z</time>
      </trkpt>
      <trkpt lat="48.703556" lon="2.102393">
        <ele>72.882832</ele>
        <time>2023-02-23T14:58:38.980Z</time>
      </trkpt>
      <trkpt lat="48.703613" lon="2.102136">
        <ele>72.959850</ele>
        <time>2023-02-23T14:58:41.895Z</time>
      </trkpt>
      <trkpt lat="48.703699" lon="2.101348">
        <ele>73.274588</ele>
        <time>2023-02-23T14:58:51.293Z</time>
      </trkpt>
      <trkpt lat="48.703724" lon="2.101243">
        <ele>73.342739</ele>
        <time>2023-02-23T14:58:52.756Z</time>
      </trkpt>
      <trkpt lat="48.703985" lon="2.100334">
        <ele>73.947973</ele>
        <time>2023-02-23T14:59:04.704Z</time>
      </trkpt>
      <trkpt lat="48.704104" lon="2.099921">
        <ele>74.223111</ele>
        <time>2023-02-23T14:59:10.394Z</time>
      </trkpt>
      <trkpt lat="48.704611" lon="2.098191">
        <ele>75.349070</ele>
        <time>2023-02-23T14:59:34.411Z</time>
      </trkpt>
      <trkpt lat="48.704619" lon="2.098139">
        <ele>75.380066</ele>
        <time>2023-02-23T14:59:35.121Z</time>
      </trkpt>
      <trkpt lat="48.704823" lon="2.096850">
        <ele>76.149554</ele>
        <time>2023-02-23T14:59:50.939Z</time>
      </trkpt>
      <trkpt lat="48.705024" lon="2.095502">
        <ele>76.600511</ele>
        <time>2023-02-23T15:00:06.047Z</time>
      </trkpt>
      <trkpt lat="48.705149" lon="2.094964">
        <ele>76.736252</ele>
        <time>2023-02-23T15:00:12.107Z</time>
      </trkpt>
      <trkpt lat="48.705695" lon="2.093415">
        <ele>77.180563</ele>
        <time>2023-02-23T15:00:30.472Z</time>
      </trkpt>
      <trkpt lat="48.705872" lon="2.092792">
        <ele>77.370540</ele>
        <time>2023-02-23T15:00:37.917Z</time>
      </trkpt>
      <trkpt lat="48.705914" lon="2.092573">
        <ele>77.434416</ele>
        <time>2023-02-23T15:00:40.416Z</time>
      </trkpt>
      <trkpt lat="48.705937" lon="2.092016">
        <ele>77.590729</ele>
        <time>2023-02-23T15:00:46.703Z</time>
      </trkpt>
      <trkpt lat="48.705824" lon="2.091055">
        <ele>77.831936</ele>
        <time>2023-02-23T15:00:57.756Z</time>
      </trkpt>
      <trkpt lat="48.705800" lon="2.090737">
        <ele>77.891422</ele>
        <time>2023-02-23T15:01:01.160Z</time>
      </trkpt>
      <trkpt lat="48.705808" lon="2.090347">
        <ele>77.963940</ele>
        <time>2023-02-23T15:01:05.250Z</time>
      </trkpt>
      <trkpt lat="48.705991" lon="2.089285">
        <ele>78.167935</ele>
        <time>2023-02-23T15:01:16.471Z</time>
      </trkpt>
      <trkpt lat="48.706016" lon="2.089145">
        <ele>78.194890</ele>
        <time>2023-02-23T15:01:17.897Z</time>
      </trkpt>
      <trkpt lat="48.706516" lon="2.086484">
        <ele>78.619484</ele>
        <time>2023-02-23T15:01:46.522Z</time>
      </trkpt>
      <trkpt lat="48.706945" lon="2.084374">
        <ele>78.872454</ele>
        <time>2023-02-23T15:02:09.663Z</time>
      </trkpt>
      <trkpt lat="48.707278" lon="2.082638">
        <ele>78.558537</ele>
        <time>2023-02-23T15:02:27.489Z</time>
      </trkpt>
      <trkpt lat="48.707316" lon="2.082437">
        <ele>78.462981</ele>
        <time>2023-02-23T15:02:29.268Z</time>
      </trkpt>
      <trkpt lat="48.707462" lon="2.081639">
        <ele>78.084526</ele>
        <time>2023-02-23T15:02:35.731Z</time>
      </trkpt>
      <trkpt lat="48.707483" lon="2.081090">
        <ele>77.833204</ele>
        <time>2023-02-23T15:02:40.011Z</time>
      </trkpt>
      <trkpt lat="48.707430" lon="2.080490">
        <ele>77.715381</ele>
        <time>2023-02-23T15:02:44.943Z</time>
      </trkpt>
      <trkpt lat="48.707256" lon="2.079648">
        <ele>77.693759</ele>
        <time>2023-02-23T15:02:52.622Z</time>
      </trkpt>
      <trkpt lat="48.707221" lon="2.079489">
        <ele>77.689651</ele>
        <time>2023-02-23T15:02:54.347Z</time>
      </trkpt>
      <trkpt lat="48.707174" lon="2.079292">
        <ele>77.684517</ele>
        <time>2023-02-23T15:02:56.386Z</time>
      </trkpt>
      <trkpt lat="48.706766" lon="2.077586">
        <ele>78.382874</ele>
        <time>2023-02-23T15:03:17.491Z</time>
      </trkpt>
      <trkpt lat="48.706646" lon="2.077086">
        <ele>78.922102</ele>
        <time>2023-02-23T15:03:25.222Z</time>
      </trkpt>
      <trkpt lat="48.706537" lon="2.076472">
        <ele>79.566522</ele>
        <time>2023-02-23T15:03:35.077Z</time>
      </trkpt>
      <trkpt lat="48.706469" lon="2.075877">
        <ele>80.178540</ele>
        <time>2023-02-23T15:03:44.238Z</time>
      </trkpt>
      <trkpt lat="48.706482" lon="2.075447">
        <ele>80.382360</ele>
        <time>2023-02-23T15:03:50.717Z</time>
      </trkpt>
      <trkpt lat="48.706567" lon="2.074963">
        <ele>80.284333</ele>
        <time>2023-02-23T15:03:57.242Z</time>
      </trkpt>
      <trkpt lat="48.706578" lon="2.074766">
        <ele>80.245639</ele>
        <time>2023-02-23T15:03:59.302Z</time>
      </trkpt>
      <trkpt lat="48.706558" lon="2.074625">
        <ele>80.217412</ele>
        <time>2023-02-23T15:04:00.672Z</time>
      </trkpt>
      <trkpt lat="48.706594" lon="2.074568">
        <ele>80.201969</ele>
        <time>2023-02-23T15:04:01.418Z</time>
      </trkpt>
      <trkpt lat="48.706604" lon="2.074477">
        <ele>80.183914</ele>
        <time>2023-02-23T15:04:02.192Z</time>
      </trkpt>
      <trkpt lat="48.706576" lon="2.074395">
        <ele>80.165843</ele>
        <time>2023-02-23T15:04:02.948Z</time>
      </trkpt>
      <trkpt lat="48.706521" lon="2.074354">
        <ele>80.147664</ele>
        <time>2023-02-23T15:04:03.659Z</time>
      </trkpt>
      <trkpt lat="48.706541" lon="2.074238">
        <ele>80.124198</ele>
        <time>2023-02-23T15:04:04.765Z</time>
      </trkpt>
      <trkpt lat="48.706561" lon="2.073827">
        <ele>80.043538</ele>
        <time>2023-02-23T15:04:08.003Z</time>
      </trkpt>
      <trkpt lat="48.706603" lon="2.073675">
        <ele>80.011286</ele>
        <time>2023-02-23T15:04:09.349Z</time>
      </trkpt>
      <trkpt lat="48.706645" lon="2.073464">
        <ele>79.968151</ele>
        <time>2023-02-23T15:04:11.048Z</time>
      </trkpt>
      <trkpt lat="48.706664" lon="2.073299">
        <ele>79.935369</ele>
        <time>2023-02-23T15:04:12.292Z</time>
      </trkpt>
      <trkpt lat="48.706643" lon="2.073064">
        <ele>79.888955</ele>
        <time>2023-02-23T15:04:14.120Z</time>
      </trkpt>
      <trkpt lat="48.706542" lon="2.072698">
        <ele>79.362383</ele>
        <time>2023-02-23T15:04:17.101Z</time>
      </trkpt>
      <trkpt lat="48.706333" lon="2.072316">
        <ele>78.685645</ele>
        <time>2023-02-23T15:04:20.659Z</time>
      </trkpt>
      <trkpt lat="48.706290" lon="2.072249">
        <ele>78.558184</ele>
        <time>2023-02-23T15:04:21.357Z</time>
      </trkpt>
      <trkpt lat="48.706222" lon="2.072127">
        <ele>78.340393</ele>
        <time>2023-02-23T15:04:22.451Z</time>
      </trkpt>
      <trkpt lat="48.706187" lon="2.072066">
        <ele>78.230152</ele>
        <time>2023-02-23T15:04:23.009Z</time>
      </trkpt>
      <trkpt lat="48.706163" lon="2.072019">
        <ele>78.149104</ele>
        <time>2023-02-23T15:04:23.424Z</time>
      </trkpt>
      <trkpt lat="48.706093" lon="2.071735">
        <ele>77.735647</ele>
        <time>2023-02-23T15:04:25.543Z</time>
      </trkpt>
      <trkpt lat="48.706096" lon="2.071690">
        <ele>77.673963</ele>
        <time>2023-02-23T15:04:25.848Z</time>
      </trkpt>
      <trkpt lat="48.706045" lon="2.071624">
        <ele>77.535360</ele>
        <time>2023-02-23T15:04:26.525Z</time>
      </trkpt>
      <trkpt lat="48.706011" lon="2.071641">
        <ele>77.461368</ele>
        <time>2023-02-23T15:04:26.895Z</time>
      </trkpt>
      <trkpt lat="48.705877" lon="2.071575">
        <ele>77.170178</ele>
        <time>2023-02-23T15:04:28.339Z</time>
      </trkpt>
      <trkpt lat="48.705739" lon="2.071395">
        <ele>76.793879</ele>
        <time>2023-02-23T15:04:30.204Z</time>
      </trkpt>
      <trkpt lat="48.705568" lon="2.071161">
        <ele>76.317713</ele>
        <time>2023-02-23T15:04:32.669Z</time>
      </trkpt>
      <trkpt lat="48.705316" lon="2.070823">
        <ele>76.363098</ele>
        <time>2023-02-23T15:04:36.530Z</time>
      </trkpt>
      <trkpt lat="48.705252" lon="2.070685">
        <ele>76.444528</ele>
        <time>2023-02-23T15:04:37.932Z</time>
      </trkpt>
      <trkpt lat="48.705238" lon="2.070655">
        <ele>76.462267</ele>
        <time>2023-02-23T15:04:38.250Z</time>
      </trkpt>
      <trkpt lat="48.705232" lon="2.070644">
        <ele>76.469157</ele>
        <time>2023-02-23T15:04:38.376Z</time>
      </trkpt>
      <trkpt lat="48.705175" lon="2.070521">
        <ele>76.541718</ele>
        <time>2023-02-23T15:04:39.902Z</time>
      </trkpt>
      <trkpt lat="48.704873" lon="2.069924">
        <ele>76.904877</ele>
        <time>2023-02-23T15:04:48.678Z</time>
      </trkpt>
      <trkpt lat="48.704718" lon="2.069835">
        <ele>77.026138</ele>
        <time>2023-02-23T15:04:51.808Z</time>
      </trkpt>
      <trkpt lat="48.704030" lon="2.069812">
        <ele>77.762133</ele>
        <time>2023-02-23T15:05:07.690Z</time>
      </trkpt>
      <trkpt lat="48.703832" lon="2.069769">
        <ele>78.675729</ele>
        <time>2023-02-23T15:05:13.404Z</time>
      </trkpt>
      <trkpt lat="48.703226" lon="2.069634">
        <ele>81.473355</ele>
        <time>2023-02-23T15:05:33.488Z</time>
      </trkpt>
      <trkpt lat="48.703095" lon="2.069607">
        <ele>82.077200</ele>
        <time>2023-02-23T15:05:38.189Z</time>
      </trkpt>
      <trkpt lat="48.702906" lon="2.069612">
        <ele>82.940579</ele>
        <time>2023-02-23T15:05:44.925Z</time>
      </trkpt>
      <trkpt lat="48.702788" lon="2.069613">
        <ele>83.479546</ele>
        <time>2023-02-23T15:05:49.248Z</time>
      </trkpt>
      <trkpt lat="48.702718" lon="2.069613">
        <ele>83.799267</ele>
        <time>2023-02-23T15:05:51.679Z</time>
      </trkpt>
      <trkpt lat="48.702566" lon="2.069608">
        <ele>84.493682</ele>
        <time>2023-02-23T15:05:57.088Z</time>
      </trkpt>
      <trkpt lat="48.702135" lon="2.069613">
        <ele>86.679551</ele>
        <time>2023-02-23T15:06:13.015Z</time>
      </trkpt>
      <trkpt lat="48.701994" lon="2.069615">
        <ele>87.507229</ele>
        <time>2023-02-23T15:06:18.490Z</time>
      </trkpt>
      <trkpt lat="48.701745" lon="2.069552">
        <ele>88.989048</ele>
        <time>2023-02-23T15:06:28.962Z</time>
      </trkpt>
      <trkpt lat="48.700999" lon="2.069114">
        <ele>93.685183</ele>
        <time>2023-02-23T15:07:00.578Z</time>
      </trkpt>
      <trkpt lat="48.700787" lon="2.068990">
        <ele>95.019084</ele>
        <time>2023-02-23T15:07:09.002Z</time>
      </trkpt>
      <trkpt lat="48.700326" lon="2.068763">
        <ele>97.498588</ele>
        <time>2023-02-23T15:07:26.509Z</time>
      </trkpt>
      <trkpt lat="48.700123" lon="2.068746">
        <ele>98.420209</ele>
        <time>2023-02-23T15:07:33.931Z</time>
      </trkpt>
      <trkpt lat="48.699704" lon="2.068781">
        <ele>100.322458</ele>
        <time>2023-02-23T15:07:49.145Z</time>
      </trkpt>
      <trkpt lat="48.699534" lon="2.068774">
        <ele>101.093368</ele>
        <time>2023-02-23T15:07:54.853Z</time>
      </trkpt>
      <trkpt lat="48.699388" lon="2.068726">
        <ele>101.770601</ele>
        <time>2023-02-23T15:08:00.135Z</time>
      </trkpt>
      <trkpt lat="48.699236" lon="2.068644">
        <ele>102.502004</ele>
        <time>2023-02-23T15:08:05.195Z</time>
      </trkpt>
      <trkpt lat="48.698667" lon="2.068115">
        <ele>105.110008</ele>
        <time>2023-02-23T15:08:23.056Z</time>
      </trkpt>
      <trkpt lat="48.698545" lon="2.067998">
        <ele>105.519403</ele>
        <time>2023-02-23T15:08:26.402Z</time>
      </trkpt>
      <trkpt lat="48.698506" lon="2.067962">
        <ele>105.648891</ele>
        <time>2023-02-23T15:08:27.568Z</time>
      </trkpt>
      <trkpt lat="48.697888" lon="2.067396">
        <ele>107.696454</ele>
        <time>2023-02-23T15:08:45.296Z</time>
      </trkpt>
      <trkpt lat="48.697522" lon="2.067107">
        <ele>108.866700</ele>
        <time>2023-02-23T15:08:56.402Z</time>
      </trkpt>
      <trkpt lat="48.696989" lon="2.066803">
        <ele>110.974380</ele>
        <time>2023-02-23T15:09:12.441Z</time>
      </trkpt>
      <trkpt lat="48.696777" lon="2.066744">
        <ele>111.896056</ele>
        <time>2023-02-23T15:09:16.749Z</time>
      </trkpt>
      <trkpt lat="48.696632" lon="2.066761">
        <ele>112.517927</ele>
        <time>2023-02-23T15:09:22.459Z</time>
      </trkpt>
      <trkpt lat="48.696457" lon="2.066828">
        <ele>113.289748</ele>
        <time>2023-02-23T15:09:26.321Z</time>
      </trkpt>
      <trkpt lat="48.695757" lon="2.067310">
        <ele>116.577578</ele>
        <time>2023-02-23T15:09:51.122Z</time>
      </trkpt>
      <trkpt lat="48.695595" lon="2.067344">
        <ele>117.325413</ele>
        <time>2023-02-23T15:09:59.857Z</time>
      </trkpt>
      <trkpt lat="48.695382" lon="2.067317">
        <ele>118.834577</ele>
        <time>2023-02-23T15:10:08.823Z</time>
      </trkpt>
      <trkpt lat="48.694631" lon="2.067053">
        <ele>124.277962</ele>
        <time>2023-02-23T15:10:44.021Z</time>
      </trkpt>
      <trkpt lat="48.694320" lon="2.067054">
        <ele>126.473815</ele>
        <time>2023-02-23T15:10:57.552Z</time>
      </trkpt>
      <trkpt lat="48.694083" lon="2.067079">
        <ele>128.151229</ele>
        <time>2023-02-23T15:11:08.477Z</time>
      </trkpt>
      <trkpt lat="48.693954" lon="2.067139">
        <ele>129.104006</ele>
        <time>2023-02-23T15:11:13.727Z</time>
      </trkpt>
      <trkpt lat="48.693492" lon="2.067474">
        <ele>131.259301</ele>
        <time>2023-02-23T15:11:34.959Z</time>
      </trkpt>
      <trkpt lat="48.693227" lon="2.067576">
        <ele>132.189036</ele>
        <time>2023-02-23T15:11:45.438Z</time>
      </trkpt>
      <trkpt lat="48.692716" lon="2.067543">
        <ele>133.928217</ele>
        <time>2023-02-23T15:12:02.750Z</time>
      </trkpt>
      <trkpt lat="48.692467" lon="2.067585">
        <ele>134.780147</ele>
        <time>2023-02-23T15:12:07.702Z</time>
      </trkpt>
      <trkpt lat="48.692181" lon="2.067557">
        <ele>135.754690</ele>
        <time>2023-02-23T15:12:11.487Z</time>
      </trkpt>
      <trkpt lat="48.692017" lon="2.067475">
        <ele>135.616322</ele>
        <time>2023-02-23T15:12:13.506Z</time>
      </trkpt>
      <trkpt lat="48.691826" lon="2.067298">
        <ele>134.672178</ele>
        <time>2023-02-23T15:12:15.971Z</time>
      </trkpt>
      <trkpt lat="48.690473" lon="2.065579">
        <ele>126.874671</ele>
        <time>2023-02-23T15:12:32.521Z</time>
      </trkpt>
      <trkpt lat="48.689864" lon="2.064468">
        <ele>121.685430</ele>
        <time>2023-02-23T15:12:41.316Z</time>
      </trkpt>
      <trkpt lat="48.689713" lon="2.064277">
        <ele>120.614586</ele>
        <time>2023-02-23T15:12:43.138Z</time>
      </trkpt>
      <trkpt lat="48.689523" lon="2.064166">
        <ele>119.506072</ele>
        <time>2023-02-23T15:12:45.033Z</time>
      </trkpt>
      <trkpt lat="48.689147" lon="2.064188">
        <ele>118.076385</ele>
        <time>2023-02-23T15:12:48.534Z</time>
      </trkpt>
      <trkpt lat="48.688867" lon="2.064292">
        <ele>117.326376</ele>
        <time>2023-02-23T15:12:51.308Z</time>
      </trkpt>
      <trkpt lat="48.688576" lon="2.064482">
        <ele>116.501999</ele>
        <time>2023-02-23T15:12:54.501Z</time>
      </trkpt>
      <trkpt lat="48.688471" lon="2.064554">
        <ele>116.202153</ele>
        <time>2023-02-23T15:12:55.754Z</time>
      </trkpt>
      <trkpt lat="48.688206" lon="2.064369">
        <ele>115.443053</ele>
        <time>2023-02-23T15:12:58.928Z</time>
      </trkpt>
      <trkpt lat="48.687979" lon="2.064222">
        <ele>114.800803</ele>
        <time>2023-02-23T15:13:01.837Z</time>
      </trkpt>
      <trkpt lat="48.687877" lon="2.064166">
        <ele>114.518554</ele>
        <time>2023-02-23T15:13:03.356Z</time>
      </trkpt>
      <trkpt lat="48.687460" lon="2.064107">
        <ele>114.295123</ele>
        <time>2023-02-23T15:13:09.813Z</time>
      </trkpt>
      <trkpt lat="48.686867" lon="2.064139">
        <ele>115.253301</ele>
        <time>2023-02-23T15:13:19.676Z</time>
      </trkpt>
      <trkpt lat="48.686622" lon="2.064121">
        <ele>115.649390</ele>
        <time>2023-02-23T15:13:25.123Z</time>
      </trkpt>
      <trkpt lat="48.686278" lon="2.064007">
        <ele>116.218017</ele>
        <time>2023-02-23T15:13:34.135Z</time>
      </trkpt>
      <trkpt lat="48.685511" lon="2.063555">
        <ele>118.128598</ele>
        <time>2023-02-23T15:13:57.772Z</time>
      </trkpt>
      <trkpt lat="48.685281" lon="2.063252">
        <ele>119.042339</ele>
        <time>2023-02-23T15:14:06.294Z</time>
      </trkpt>
      <trkpt lat="48.684979" lon="2.062960">
        <ele>120.116344</ele>
        <time>2023-02-23T15:14:15.709Z</time>
      </trkpt>
      <trkpt lat="48.684762" lon="2.062417">
        <ele>121.372505</ele>
        <time>2023-02-23T15:14:25.066Z</time>
      </trkpt>
      <trkpt lat="48.684606" lon="2.061908">
        <ele>122.540521</ele>
        <time>2023-02-23T15:14:35.520Z</time>
      </trkpt>
      <trkpt lat="48.684386" lon="2.061513">
        <ele>123.825985</ele>
        <time>2023-02-23T15:14:45.409Z</time>
      </trkpt>
      <trkpt lat="48.684015" lon="2.061040">
        <ele>125.653039</ele>
        <time>2023-02-23T15:14:59.185Z</time>
      </trkpt>
      <trkpt lat="48.683907" lon="2.060857">
        <ele>126.263598</ele>
        <time>2023-02-23T15:15:04.119Z</time>
      </trkpt>
      <trkpt lat="48.683893" lon="2.060768">
        <ele>126.491179</ele>
        <time>2023-02-23T15:15:06.149Z</time>
      </trkpt>
      <trkpt lat="48.683931" lon="2.060538">
        <ele>127.080935</ele>
        <time>2023-02-23T15:15:10.521Z</time>
      </trkpt>
      <trkpt lat="48.683925" lon="2.060173">
        <ele>127.989135</ele>
        <time>2023-02-23T15:15:18.316Z</time>
      </trkpt>
      <trkpt lat="48.683873" lon="2.059987">
        <ele>128.491573</ele>
        <time>2023-02-23T15:15:22.060Z</time>
      </trkpt>
      <trkpt lat="48.683765" lon="2.059774">
        <ele>129.214303</ele>
        <time>2023-02-23T15:15:28.075Z</time>
      </trkpt>
      <trkpt lat="48.683611" lon="2.059344">
        <ele>130.970174</ele>
        <time>2023-02-23T15:15:39.045Z</time>
      </trkpt>
      <trkpt lat="48.682605" lon="2.055908">
        <ele>144.843439</ele>
        <time>2023-02-23T15:17:13.022Z</time>
      </trkpt>
      <trkpt lat="48.682477" lon="2.055619">
        <ele>146.177048</ele>
        <time>2023-02-23T15:17:21.738Z</time>
      </trkpt>
      <trkpt lat="48.682330" lon="2.055277">
        <ele>147.740914</ele>
        <time>2023-02-23T15:17:31.980Z</time>
      </trkpt>
      <trkpt lat="48.681886" lon="2.054622">
        <ele>151.238713</ele>
        <time>2023-02-23T15:17:55.914Z</time>
      </trkpt>
      <trkpt lat="48.681646" lon="2.054333">
        <ele>152.933208</ele>
        <time>2023-02-23T15:18:07.591Z</time>
      </trkpt>
      <trkpt lat="48.680438" lon="2.053262">
        <ele>160.293865</ele>
        <time>2023-02-23T15:18:58.430Z</time>
      </trkpt>
      <trkpt lat="48.680147" lon="2.053016">
        <ele>161.666922</ele>
        <time>2023-02-23T15:19:10.022Z</time>
      </trkpt>
      <trkpt lat="48.679994" lon="2.052835">
        <ele>162.466800</ele>
        <time>2023-02-23T15:19:16.033Z</time>
      </trkpt>
      <trkpt lat="48.679894" lon="2.052652">
        <ele>163.113001</ele>
        <time>2023-02-23T15:19:21.550Z</time>
      </trkpt>
      <trkpt lat="48.679885" lon="2.052506">
        <ele>163.511898</ele>
        <time>2023-02-23T15:19:24.418Z</time>
      </trkpt>
      <trkpt lat="48.679900" lon="2.052395">
        <ele>163.820115</ele>
        <time>2023-02-23T15:19:26.467Z</time>
      </trkpt>
      <trkpt lat="48.680142" lon="2.051560">
        <ele>166.300786</ele>
        <time>2023-02-23T15:19:44.007Z</time>
      </trkpt>
      <trkpt lat="48.680320" lon="2.050999">
        <ele>167.068171</ele>
        <time>2023-02-23T15:19:54.229Z</time>
      </trkpt>
      <trkpt lat="48.680114" lon="2.050976">
        <ele>167.351797</ele>
        <time>2023-02-23T15:19:59.359Z</time>
      </trkpt>
      <trkpt lat="48.679679" lon="2.050795">
        <ele>167.971227</ele>
        <time>2023-02-23T15:20:07.951Z</time>
      </trkpt>
      <trkpt lat="48.679345" lon="2.050556">
        <ele>168.478455</ele>
        <time>2023-02-23T15:20:14.522Z</time>
      </trkpt>
      <trkpt lat="48.679085" lon="2.050334">
        <ele>168.888288</ele>
        <time>2023-02-23T15:20:19.274Z</time>
      </trkpt>
      <trkpt lat="48.678768" lon="2.050180">
        <ele>169.226768</ele>
        <time>2023-02-23T15:20:24.733Z</time>
      </trkpt>
      <trkpt lat="48.678605" lon="2.050102">
        <ele>169.358459</ele>
        <time>2023-02-23T15:20:27.607Z</time>
      </trkpt>
      <trkpt lat="48.678385" lon="2.050079">
        <ele>169.528346</ele>
        <time>2023-02-23T15:20:30.924Z</time>
      </trkpt>
      <trkpt lat="48.678423" lon="2.049898">
        <ele>169.624958</ele>
        <time>2023-02-23T15:20:33.220Z</time>
      </trkpt>
      <trkpt lat="48.679036" lon="2.047105">
        <ele>171.213553</ele>
        <time>2023-02-23T15:21:09.833Z</time>
      </trkpt>
      <trkpt lat="48.679277" lon="2.046062">
        <ele>171.853367</ele>
        <time>2023-02-23T15:21:23.848Z</time>
      </trkpt>
      <trkpt lat="48.679339" lon="2.045801">
        <ele>172.013969</ele>
        <time>2023-02-23T15:21:27.016Z</time>
      </trkpt>
      <trkpt lat="48.679614" lon="2.044660">
        <ele>171.811248</ele>
        <time>2023-02-23T15:21:39.302Z</time>
      </trkpt>
      <trkpt lat="48.680008" lon="2.042934">
        <ele>171.397194</ele>
        <time>2023-02-23T15:21:54.534Z</time>
      </trkpt>
      <trkpt lat="48.680071" lon="2.042600">
        <ele>171.253043</ele>
        <time>2023-02-23T15:21:57.350Z</time>
      </trkpt>
      <trkpt lat="48.680108" lon="2.042183">
        <ele>171.078438</ele>
        <time>2023-02-23T15:22:00.786Z</time>
      </trkpt>
      <trkpt lat="48.680204" lon="2.037652">
        <ele>169.498977</ele>
        <time>2023-02-23T15:22:40.703Z</time>
      </trkpt>
      <trkpt lat="48.679976" lon="2.034124">
        <ele>168.220508</ele>
        <time>2023-02-23T15:23:11.786Z</time>
      </trkpt>
      <trkpt lat="48.679987" lon="2.033634">
        <ele>167.980525</ele>
        <time>2023-02-23T15:23:15.831Z</time>
      </trkpt>
      <trkpt lat="48.680058" lon="2.032845">
        <ele>167.590757</ele>
        <time>2023-02-23T15:23:22.318Z</time>
      </trkpt>
      <trkpt lat="48.680460" lon="2.029917">
        <ele>166.323748</ele>
        <time>2023-02-23T15:23:47.103Z</time>
      </trkpt>
      <trkpt lat="48.680310" lon="2.029670">
        <ele>166.292675</ele>
        <time>2023-02-23T15:23:50.287Z</time>
      </trkpt>
      <trkpt lat="48.680182" lon="2.029519">
        <ele>166.422638</ele>
        <time>2023-02-23T15:23:53.235Z</time>
      </trkpt>
      <trkpt lat="48.680071" lon="2.029443">
        <ele>166.520215</ele>
        <time>2023-02-23T15:23:55.121Z</time>
      </trkpt>
      <trkpt lat="48.679858" lon="2.029366">
        <ele>166.695625</ele>
        <time>2023-02-23T15:23:59.065Z</time>
      </trkpt>
      <trkpt lat="48.679672" lon="2.029217">
        <ele>166.864172</ele>
        <time>2023-02-23T15:24:02.597Z</time>
      </trkpt>
      <trkpt lat="48.679631" lon="2.029089">
        <ele>166.939416</ele>
        <time>2023-02-23T15:24:04.501Z</time>
      </trkpt>
      <trkpt lat="48.679584" lon="2.029055">
        <ele>166.981138</ele>
        <time>2023-02-23T15:24:05.551Z</time>
      </trkpt>
      <trkpt lat="48.678760" lon="2.029457">
        <ele>167.675048</ele>
        <time>2023-02-23T15:24:22.489Z</time>
      </trkpt>
      <trkpt lat="48.678579" lon="2.029481">
        <ele>167.874869</ele>
        <time>2023-02-23T15:24:26.395Z</time>
      </trkpt>
      <trkpt lat="48.677918" lon="2.029072">
        <ele>168.660152</ele>
        <time>2023-02-23T15:24:41.024Z</time>
      </trkpt>
      <trkpt lat="48.677754" lon="2.028947">
        <ele>168.862069</ele>
        <time>2023-02-23T15:24:44.605Z</time>
      </trkpt>
      <trkpt lat="48.677600" lon="2.028881">
        <ele>169.038086</ele>
        <time>2023-02-23T15:24:47.565Z</time>
      </trkpt>
      <trkpt lat="48.677324" lon="2.028905">
        <ele>169.342124</ele>
        <time>2023-02-23T15:24:52.557Z</time>
      </trkpt>
      <trkpt lat="48.676821" lon="2.029088">
        <ele>169.750857</ele>
        <time>2023-02-23T15:25:01.587Z</time>
      </trkpt>
      <trkpt lat="48.675585" lon="2.029455">
        <ele>170.281356</ele>
        <time>2023-02-23T15:25:22.217Z</time>
      </trkpt>
      <trkpt lat="48.675394" lon="2.029423">
        <ele>170.362294</ele>
        <time>2023-02-23T15:25:25.339Z</time>
      </trkpt>
      <trkpt lat="48.675271" lon="2.029288">
        <ele>170.426462</ele>
        <time>2023-02-23T15:25:27.745Z</time>
      </trkpt>
      <trkpt lat="48.675206" lon="2.028756">
        <ele>170.578557</ele>
        <time>2023-02-23T15:25:33.438Z</time>
      </trkpt>
      <trkpt lat="48.675073" lon="2.028314">
        <ele>170.715106</ele>
        <time>2023-02-23T15:25:38.631Z</time>
      </trkpt>
      <trkpt lat="48.674887" lon="2.027994">
        <ele>170.834953</ele>
        <time>2023-02-23T15:25:43.240Z</time>
      </trkpt>
      <trkpt lat="48.674619" lon="2.027657">
        <ele>170.983254</ele>
        <time>2023-02-23T15:25:49.009Z</time>
      </trkpt>
      <trkpt lat="48.674370" lon="2.027436">
        <ele>171.106126</ele>
        <time>2023-02-23T15:25:53.848Z</time>
      </trkpt>
      <trkpt lat="48.673447" lon="2.026868">
        <ele>171.683568</ele>
        <time>2023-02-23T15:26:10.844Z</time>
      </trkpt>
      <trkpt lat="48.672595" lon="2.026486">
        <ele>172.224945</ele>
        <time>2023-02-23T15:26:26.449Z</time>
      </trkpt>
      <trkpt lat="48.672240" lon="2.026289">
        <ele>172.479087</ele>
        <time>2023-02-23T15:26:33.119Z</time>
      </trkpt>
      <trkpt lat="48.671305" lon="2.025638">
        <ele>173.186829</ele>
        <time>2023-02-23T15:26:51.044Z</time>
      </trkpt>
      <trkpt lat="48.670741" lon="2.025130">
        <ele>173.628015</ele>
        <time>2023-02-23T15:27:02.485Z</time>
      </trkpt>
      <trkpt lat="48.670552" lon="2.024885">
        <ele>173.785851</ele>
        <time>2023-02-23T15:27:06.971Z</time>
      </trkpt>
      <trkpt lat="48.670351" lon="2.024406">
        <ele>174.023614</ele>
        <time>2023-02-23T15:27:13.870Z</time>
      </trkpt>
      <trkpt lat="48.670296" lon="2.024034">
        <ele>174.183322</ele>
        <time>2023-02-23T15:27:18.387Z</time>
      </trkpt>
      <trkpt lat="48.670310" lon="2.023497">
        <ele>174.408475</ele>
        <time>2023-02-23T15:27:24.548Z</time>
      </trkpt>
      <trkpt lat="48.670351" lon="2.023167">
        <ele>174.549154</ele>
        <time>2023-02-23T15:27:28.263Z</time>
      </trkpt>
      <trkpt lat="48.670549" lon="2.022313">
        <ele>174.738749</ele>
        <time>2023-02-23T15:27:38.107Z</time>
      </trkpt>
      <trkpt lat="48.670336" lon="2.022322">
        <ele>174.782296</ele>
        <time>2023-02-23T15:27:41.501Z</time>
      </trkpt>
      <trkpt lat="48.667386" lon="2.022074">
        <ele>175.515534</ele>
        <time>2023-02-23T15:28:26.471Z</time>
      </trkpt>
      <trkpt lat="48.667268" lon="2.022094">
        <ele>175.663302</ele>
        <time>2023-02-23T15:28:28.735Z</time>
      </trkpt>
      <trkpt lat="48.666705" lon="2.019785">
        <ele>177.686298</ele>
        <time>2023-02-23T15:29:02.102Z</time>
      </trkpt>
      <trkpt lat="48.666564" lon="2.019048">
        <ele>178.116396</ele>
        <time>2023-02-23T15:29:12.492Z</time>
      </trkpt>
      <trkpt lat="48.666484" lon="2.018260">
        <ele>178.543904</ele>
        <time>2023-02-23T15:29:22.767Z</time>
      </trkpt>
      <trkpt lat="48.666319" lon="2.013427">
        <ele>179.271589</ele>
        <time>2023-02-23T15:30:13.179Z</time>
      </trkpt>
      <trkpt lat="48.666260" lon="2.013110">
        <ele>179.138264</ele>
        <time>2023-02-23T15:30:16.031Z</time>
      </trkpt>
      <trkpt lat="48.666092" lon="2.012631">
        <ele>178.918710</ele>
        <time>2023-02-23T15:30:20.609Z</time>
      </trkpt>
      <trkpt lat="48.665966" lon="2.012421">
        <ele>178.803856</ele>
        <time>2023-02-23T15:30:22.950Z</time>
      </trkpt>
      <trkpt lat="48.665822" lon="2.012263">
        <ele>178.694853</ele>
        <time>2023-02-23T15:30:25.134Z</time>
      </trkpt>
      <trkpt lat="48.663955" lon="2.010874">
        <ele>175.451365</ele>
        <time>2023-02-23T15:30:48.565Z</time>
      </trkpt>
      <trkpt lat="48.663638" lon="2.010710">
        <ele>174.933062</ele>
        <time>2023-02-23T15:30:52.176Z</time>
      </trkpt>
      <trkpt lat="48.663074" lon="2.010630">
        <ele>174.056622</ele>
        <time>2023-02-23T15:30:58.558Z</time>
      </trkpt>
      <trkpt lat="48.662974" lon="2.010577">
        <ele>173.892697</ele>
        <time>2023-02-23T15:30:59.639Z</time>
      </trkpt>
      <trkpt lat="48.662926" lon="2.010544">
        <ele>173.811133</ele>
        <time>2023-02-23T15:31:00.246Z</time>
      </trkpt>
      <trkpt lat="48.663154" lon="2.009707">
        <ele>172.885913</ele>
        <time>2023-02-23T15:31:07.161Z</time>
      </trkpt>
      <trkpt lat="48.664637" lon="2.004250">
        <ele>171.657430</ele>
        <time>2023-02-23T15:32:01.747Z</time>
      </trkpt>
      <trkpt lat="48.665820" lon="1.999872">
        <ele>171.461432</ele>
        <time>2023-02-23T15:32:47.479Z</time>
      </trkpt>
      <trkpt lat="48.665830" lon="1.999834">
        <ele>171.459872</ele>
        <time>2023-02-23T15:32:47.875Z</time>
      </trkpt>
      <trkpt lat="48.666809" lon="1.996207">
        <ele>171.086794</ele>
        <time>2023-02-23T15:33:25.017Z</time>
      </trkpt>
      <trkpt lat="48.667816" lon="1.992476">
        <ele>170.446207</ele>
        <time>2023-02-23T15:34:02.674Z</time>
      </trkpt>
      <trkpt lat="48.668374" lon="1.990378">
        <ele>169.711473</ele>
        <time>2023-02-23T15:34:22.090Z</time>
      </trkpt>
      <trkpt lat="48.668637" lon="1.989403">
        <ele>169.316981</ele>
        <time>2023-02-23T15:34:31.010Z</time>
      </trkpt>
      <trkpt lat="48.668775" lon="1.988876">
        <ele>169.293418</ele>
        <time>2023-02-23T15:34:36.184Z</time>
      </trkpt>
      <trkpt lat="48.668818" lon="1.988894">
        <ele>169.292521</ele>
        <time>2023-02-23T15:34:36.791Z</time>
      </trkpt>
      <trkpt lat="48.668905" lon="1.988869">
        <ele>169.290741</ele>
        <time>2023-02-23T15:34:38.026Z</time>
      </trkpt>
      <trkpt lat="48.668940" lon="1.988827">
        <ele>169.289843</ele>
        <time>2023-02-23T15:34:38.655Z</time>
      </trkpt>
      <trkpt lat="48.668979" lon="1.988706">
        <ele>169.288055</ele>
        <time>2023-02-23T15:34:39.862Z</time>
      </trkpt>
      <trkpt lat="48.668970" lon="1.988593">
        <ele>169.286544</ele>
        <time>2023-02-23T15:34:40.953Z</time>
      </trkpt>
      <trkpt lat="48.668891" lon="1.988473">
        <ele>169.284295</ele>
        <time>2023-02-23T15:34:42.486Z</time>
      </trkpt>
      <trkpt lat="48.668800" lon="1.988462">
        <ele>169.282460</ele>
        <time>2023-02-23T15:34:43.765Z</time>
      </trkpt>
      <trkpt lat="48.668758" lon="1.988490">
        <ele>169.281537</ele>
        <time>2023-02-23T15:34:44.396Z</time>
      </trkpt>
      <trkpt lat="48.668723" lon="1.988536">
        <ele>169.280605</ele>
        <time>2023-02-23T15:34:45.037Z</time>
      </trkpt>
      <trkpt lat="48.668690" lon="1.988664">
        <ele>169.278781</ele>
        <time>2023-02-23T15:34:46.338Z</time>
      </trkpt>
      <trkpt lat="48.668233" lon="1.988594">
        <ele>169.269547</ele>
        <time>2023-02-23T15:34:53.172Z</time>
      </trkpt>
      <trkpt lat="48.667975" lon="1.988567">
        <ele>169.264348</ele>
        <time>2023-02-23T15:34:57.374Z</time>
      </trkpt>
      <trkpt lat="48.667197" lon="1.988476">
        <ele>170.039179</ele>
        <time>2023-02-23T15:35:11.914Z</time>
      </trkpt>
      <trkpt lat="48.664439" lon="1.987504">
        <ele>173.162167</ele>
        <time>2023-02-23T15:36:08.060Z</time>
      </trkpt>
      <trkpt lat="48.663856" lon="1.987441">
        <ele>173.444037</ele>
        <time>2023-02-23T15:36:18.361Z</time>
      </trkpt>
      <trkpt lat="48.662482" lon="1.987505">
        <ele>174.051570</ele>
        <time>2023-02-23T15:36:40.201Z</time>
      </trkpt>
      <trkpt lat="48.658394" lon="1.987713">
        <ele>174.509985</ele>
        <time>2023-02-23T15:37:42.882Z</time>
      </trkpt>
      <trkpt lat="48.657728" lon="1.987770">
        <ele>174.502604</ele>
        <time>2023-02-23T15:37:52.686Z</time>
      </trkpt>
      <trkpt lat="48.656665" lon="1.987914">
        <ele>174.315300</ele>
        <time>2023-02-23T15:38:07.719Z</time>
      </trkpt>
      <trkpt lat="48.654620" lon="1.984201">
        <ele>173.281172</ele>
        <time>2023-02-23T15:39:08.283Z</time>
      </trkpt>
      <trkpt lat="48.654466" lon="1.983923">
        <ele>173.233320</ele>
        <time>2023-02-23T15:39:12.990Z</time>
      </trkpt>
      <trkpt lat="48.653601" lon="1.982592">
        <ele>172.987057</ele>
        <time>2023-02-23T15:39:37.427Z</time>
      </trkpt>
      <trkpt lat="48.652637" lon="1.981605">
        <ele>172.220470</ele>
        <time>2023-02-23T15:39:59.034Z</time>
      </trkpt>
      <trkpt lat="48.650652" lon="1.980082">
        <ele>170.179717</ele>
        <time>2023-02-23T15:40:37.345Z</time>
      </trkpt>
      <trkpt lat="48.649622" lon="1.979209">
        <ele>169.140401</ele>
        <time>2023-02-23T15:40:58.142Z</time>
      </trkpt>
      <trkpt lat="48.648140" lon="1.977067">
        <ele>167.588268</ele>
        <time>2023-02-23T15:41:24.048Z</time>
      </trkpt>
      <trkpt lat="48.647570" lon="1.975965">
        <ele>167.020819</ele>
        <time>2023-02-23T15:41:36.046Z</time>
      </trkpt>
      <trkpt lat="48.646331" lon="1.972975">
        <ele>166.732955</ele>
        <time>2023-02-23T15:42:08.436Z</time>
      </trkpt>
      <trkpt lat="48.646154" lon="1.972299">
        <ele>166.884276</ele>
        <time>2023-02-23T15:42:16.464Z</time>
      </trkpt>
      <trkpt lat="48.646195" lon="1.971609">
        <ele>167.028445</ele>
        <time>2023-02-23T15:42:24.742Z</time>
      </trkpt>
      <trkpt lat="48.646726" lon="1.969620">
        <ele>168.687394</ele>
        <time>2023-02-23T15:42:51.850Z</time>
      </trkpt>
      <trkpt lat="48.646680" lon="1.969107">
        <ele>169.112677</ele>
        <time>2023-02-23T15:42:59.409Z</time>
      </trkpt>
      <trkpt lat="48.646170" lon="1.968081">
        <ele>170.461631</ele>
        <time>2023-02-23T15:43:17.679Z</time>
      </trkpt>
      <trkpt lat="48.645869" lon="1.967545">
        <ele>171.235480</ele>
        <time>2023-02-23T15:43:27.712Z</time>
      </trkpt>
      <trkpt lat="48.645104" lon="1.966856">
        <ele>172.569067</ele>
        <time>2023-02-23T15:43:46.744Z</time>
      </trkpt>
      <trkpt lat="48.644804" lon="1.966768">
        <ele>172.899161</ele>
        <time>2023-02-23T15:43:53.257Z</time>
      </trkpt>
      <trkpt lat="48.644424" lon="1.966755">
        <ele>173.309747</ele>
        <time>2023-02-23T15:44:00.907Z</time>
      </trkpt>
      <trkpt lat="48.643746" lon="1.966775">
        <ele>174.042271</ele>
        <time>2023-02-23T15:44:13.395Z</time>
      </trkpt>
      <trkpt lat="48.642811" lon="1.966454">
        <ele>174.197944</ele>
        <time>2023-02-23T15:44:28.235Z</time>
      </trkpt>
      <trkpt lat="48.642621" lon="1.966384">
        <ele>174.188004</ele>
        <time>2023-02-23T15:44:30.842Z</time>
      </trkpt>
      <trkpt lat="48.642510" lon="1.966270">
        <ele>174.181185</ele>
        <time>2023-02-23T15:44:32.806Z</time>
      </trkpt>
      <trkpt lat="48.642388" lon="1.965190">
        <ele>174.123195</ele>
        <time>2023-02-23T15:44:42.854Z</time>
      </trkpt>
      <trkpt lat="48.642365" lon="1.964927">
        <ele>174.001907</ele>
        <time>2023-02-23T15:44:45.166Z</time>
      </trkpt>
      <trkpt lat="48.642401" lon="1.963855">
        <ele>173.511173</ele>
        <time>2023-02-23T15:44:54.510Z</time>
      </trkpt>
      <trkpt lat="48.642355" lon="1.963305">
        <ele>173.257715</ele>
        <time>2023-02-23T15:44:59.171Z</time>
      </trkpt>
      <trkpt lat="48.642149" lon="1.962205">
        <ele>172.608837</ele>
        <time>2023-02-23T15:45:08.409Z</time>
      </trkpt>
      <trkpt lat="48.642003" lon="1.961093">
        <ele>171.697883</ele>
        <time>2023-02-23T15:45:17.547Z</time>
      </trkpt>
      <trkpt lat="48.641918" lon="1.960809">
        <ele>171.447372</ele>
        <time>2023-02-23T15:45:19.923Z</time>
      </trkpt>
      <trkpt lat="48.641683" lon="1.960340">
        <ele>170.974435</ele>
        <time>2023-02-23T15:45:24.622Z</time>
      </trkpt>
      <trkpt lat="48.639861" lon="1.956009">
        <ele>163.461164</ele>
        <time>2023-02-23T15:46:02.479Z</time>
      </trkpt>
      <trkpt lat="48.639105" lon="1.954218">
        <ele>155.090467</ele>
        <time>2023-02-23T15:46:15.366Z</time>
      </trkpt>
      <trkpt lat="48.638978" lon="1.953683">
        <ele>152.370039</ele>
        <time>2023-02-23T15:46:18.606Z</time>
      </trkpt>
      <trkpt lat="48.638976" lon="1.953535">
        <ele>151.661636</ele>
        <time>2023-02-23T15:46:19.460Z</time>
      </trkpt>
      <trkpt lat="48.639039" lon="1.953247">
        <ele>150.209859</ele>
        <time>2023-02-23T15:46:21.194Z</time>
      </trkpt>
      <trkpt lat="48.639124" lon="1.953121">
        <ele>149.348176</ele>
        <time>2023-02-23T15:46:22.236Z</time>
      </trkpt>
      <trkpt lat="48.639323" lon="1.952937">
        <ele>147.566920</ele>
        <time>2023-02-23T15:46:24.286Z</time>
      </trkpt>
      <trkpt lat="48.639386" lon="1.952840">
        <ele>146.877116</ele>
        <time>2023-02-23T15:46:25.082Z</time>
      </trkpt>
      <trkpt lat="48.639462" lon="1.952609">
        <ele>145.568365</ele>
        <time>2023-02-23T15:46:26.600Z</time>
      </trkpt>
      <trkpt lat="48.639474" lon="1.952452">
        <ele>144.766796</ele>
        <time>2023-02-23T15:46:27.518Z</time>
      </trkpt>
      <trkpt lat="48.639511" lon="1.951964">
        <ele>142.275560</ele>
        <time>2023-02-23T15:46:30.391Z</time>
      </trkpt>
      <trkpt lat="48.639489" lon="1.951633">
        <ele>140.588351</ele>
        <time>2023-02-23T15:46:32.354Z</time>
      </trkpt>
      <trkpt lat="48.639438" lon="1.951424">
        <ele>139.458396</ele>
        <time>2023-02-23T15:46:33.639Z</time>
      </trkpt>
      <trkpt lat="48.639346" lon="1.951314">
        <ele>138.558484</ele>
        <time>2023-02-23T15:46:34.691Z</time>
      </trkpt>
      <trkpt lat="48.639243" lon="1.951268">
        <ele>137.734234</ele>
        <time>2023-02-23T15:46:35.658Z</time>
      </trkpt>
      <trkpt lat="48.639102" lon="1.951268">
        <ele>136.652034</ele>
        <time>2023-02-23T15:46:36.895Z</time>
      </trkpt>
      <trkpt lat="48.638884" lon="1.951387">
        <ele>135.059447</ele>
        <time>2023-02-23T15:46:38.995Z</time>
      </trkpt>
      <trkpt lat="48.638100" lon="1.951899">
        <ele>130.826220</ele>
        <time>2023-02-23T15:46:46.907Z</time>
      </trkpt>
      <trkpt lat="48.637961" lon="1.952396">
        <ele>129.058205</ele>
        <time>2023-02-23T15:46:50.432Z</time>
      </trkpt>
      <trkpt lat="48.637807" lon="1.952892">
        <ele>127.262862</ele>
        <time>2023-02-23T15:46:53.944Z</time>
      </trkpt>
      <trkpt lat="48.637638" lon="1.953322">
        <ele>126.143167</ele>
        <time>2023-02-23T15:46:57.189Z</time>
      </trkpt>
      <trkpt lat="48.637363" lon="1.954068">
        <ele>125.038108</ele>
        <time>2023-02-23T15:47:03.026Z</time>
      </trkpt>
      <trkpt lat="48.637217" lon="1.954247">
        <ele>124.670262</ele>
        <time>2023-02-23T15:47:05.369Z</time>
      </trkpt>
      <trkpt lat="48.637133" lon="1.954276">
        <ele>124.501596</ele>
        <time>2023-02-23T15:47:06.228Z</time>
      </trkpt>
      <trkpt lat="48.637065" lon="1.954300">
        <ele>124.364904</ele>
        <time>2023-02-23T15:47:06.987Z</time>
      </trkpt>
      <trkpt lat="48.636687" lon="1.954190">
        <ele>123.611361</ele>
        <time>2023-02-23T15:47:11.515Z</time>
      </trkpt>
      <trkpt lat="48.636432" lon="1.954106">
        <ele>123.100475</ele>
        <time>2023-02-23T15:47:14.782Z</time>
      </trkpt>
      <trkpt lat="48.636331" lon="1.954081">
        <ele>123.005933</ele>
        <time>2023-02-23T15:47:16.016Z</time>
      </trkpt>
      <trkpt lat="48.636176" lon="1.954023">
        <ele>123.236818</ele>
        <time>2023-02-23T15:47:18.674Z</time>
      </trkpt>
      <trkpt lat="48.635620" lon="1.953838">
        <ele>124.060013</ele>
        <time>2023-02-23T15:47:28.165Z</time>
      </trkpt>
      <trkpt lat="48.635155" lon="1.953344">
        <ele>124.881580</ele>
        <time>2023-02-23T15:47:41.437Z</time>
      </trkpt>
      <trkpt lat="48.634950" lon="1.953034">
        <ele>125.300663</ele>
        <time>2023-02-23T15:47:48.417Z</time>
      </trkpt>
      <trkpt lat="48.634918" lon="1.952917">
        <ele>125.421667</ele>
        <time>2023-02-23T15:47:51.064Z</time>
      </trkpt>
      <trkpt lat="48.634881" lon="1.952786">
        <ele>125.557806</ele>
        <time>2023-02-23T15:47:53.490Z</time>
      </trkpt>
      <trkpt lat="48.634722" lon="1.951496">
        <ele>128.699528</ele>
        <time>2023-02-23T15:48:17.764Z</time>
      </trkpt>
      <trkpt lat="48.634226" lon="1.949895">
        <ele>133.187771</ele>
        <time>2023-02-23T15:48:53.749Z</time>
      </trkpt>
      <trkpt lat="48.633632" lon="1.947976">
        <ele>139.745314</ele>
        <time>2023-02-23T15:49:41.625Z</time>
      </trkpt>
      <trkpt lat="48.633525" lon="1.947647">
        <ele>140.905639</ele>
        <time>2023-02-23T15:49:50.144Z</time>
      </trkpt>
      <trkpt lat="48.633356" lon="1.947370">
        <ele>142.153650</ele>
        <time>2023-02-23T15:49:58.813Z</time>
      </trkpt>
      <trkpt lat="48.632718" lon="1.946650">
        <ele>146.140480</ele>
        <time>2023-02-23T15:50:25.296Z</time>
      </trkpt>
      <trkpt lat="48.632584" lon="1.946384">
        <ele>147.247727</ele>
        <time>2023-02-23T15:50:33.043Z</time>
      </trkpt>
      <trkpt lat="48.632520" lon="1.946015">
        <ele>148.510670</ele>
        <time>2023-02-23T15:50:42.259Z</time>
      </trkpt>
      <trkpt lat="48.632531" lon="1.944985">
        <ele>152.565943</ele>
        <time>2023-02-23T15:51:07.564Z</time>
      </trkpt>
      <trkpt lat="48.632585" lon="1.944232">
        <ele>155.747766</ele>
        <time>2023-02-23T15:51:27.860Z</time>
      </trkpt>
      <trkpt lat="48.633015" lon="1.941797">
        <ele>165.696629</ele>
        <time>2023-02-23T15:52:38.573Z</time>
      </trkpt>
      <trkpt lat="48.633362" lon="1.939849">
        <ele>171.971405</ele>
        <time>2023-02-23T15:53:23.164Z</time>
      </trkpt>
      <trkpt lat="48.633610" lon="1.937770">
        <ele>175.418487</ele>
        <time>2023-02-23T15:53:55.077Z</time>
      </trkpt>
      <trkpt lat="48.633615" lon="1.935652">
        <ele>175.948712</ele>
        <time>2023-02-23T15:54:17.956Z</time>
      </trkpt>
      <trkpt lat="48.633609" lon="1.935119">
        <ele>176.070732</ele>
        <time>2023-02-23T15:54:22.594Z</time>
      </trkpt>
      <trkpt lat="48.633412" lon="1.934341">
        <ele>175.856077</ele>
        <time>2023-02-23T15:54:29.752Z</time>
      </trkpt>
      <trkpt lat="48.633011" lon="1.933795">
        <ele>175.589805</ele>
        <time>2023-02-23T15:54:36.654Z</time>
      </trkpt>
      <trkpt lat="48.632089" lon="1.932727">
        <ele>175.220182</ele>
        <time>2023-02-23T15:54:52.216Z</time>
      </trkpt>
      <trkpt lat="48.631299" lon="1.931966">
        <ele>175.253555</ele>
        <time>2023-02-23T15:55:06.721Z</time>
      </trkpt>
      <trkpt lat="48.629632" lon="1.930039">
        <ele>175.739338</ele>
        <time>2023-02-23T15:55:40.647Z</time>
      </trkpt>
      <trkpt lat="48.627607" lon="1.927890">
        <ele>176.102747</ele>
        <time>2023-02-23T15:56:18.593Z</time>
      </trkpt>
      <trkpt lat="48.625748" lon="1.925744">
        <ele>176.599345</ele>
        <time>2023-02-23T15:56:54.147Z</time>
      </trkpt>
      <trkpt lat="48.624334" lon="1.924244">
        <ele>177.193367</ele>
        <time>2023-02-23T15:57:23.804Z</time>
      </trkpt>
      <trkpt lat="48.620848" lon="1.920344">
        <ele>177.840262</ele>
        <time>2023-02-23T15:58:30.234Z</time>
      </trkpt>
      <trkpt lat="48.620192" lon="1.919468">
        <ele>177.788723</ele>
        <time>2023-02-23T15:58:42.888Z</time>
      </trkpt>
      <trkpt lat="48.618654" lon="1.916887">
        <ele>176.996079</ele>
        <time>2023-02-23T15:59:15.902Z</time>
      </trkpt>
      <trkpt lat="48.617831" lon="1.915418">
        <ele>174.152858</ele>
        <time>2023-02-23T15:59:30.460Z</time>
      </trkpt>
      <trkpt lat="48.617725" lon="1.915126">
        <ele>173.405572</ele>
        <time>2023-02-23T15:59:32.593Z</time>
      </trkpt>
      <trkpt lat="48.617702" lon="1.914371">
        <ele>171.710124</ele>
        <time>2023-02-23T15:59:37.395Z</time>
      </trkpt>
      <trkpt lat="48.617656" lon="1.914173">
        <ele>171.239331</ele>
        <time>2023-02-23T15:59:38.732Z</time>
      </trkpt>
      <trkpt lat="48.617555" lon="1.913977">
        <ele>170.681859</ele>
        <time>2023-02-23T15:59:40.279Z</time>
      </trkpt>
      <trkpt lat="48.617422" lon="1.913838">
        <ele>169.614765</ele>
        <time>2023-02-23T15:59:41.795Z</time>
      </trkpt>
      <trkpt lat="48.617377" lon="1.913820">
        <ele>169.281736</ele>
        <time>2023-02-23T15:59:42.260Z</time>
      </trkpt>
      <trkpt lat="48.617306" lon="1.913792">
        <ele>168.756771</ele>
        <time>2023-02-23T15:59:42.914Z</time>
      </trkpt>
      <trkpt lat="48.616867" lon="1.913796">
        <ele>165.615790</ele>
        <time>2023-02-23T15:59:46.933Z</time>
      </trkpt>
      <trkpt lat="48.616714" lon="1.913756">
        <ele>164.504888</ele>
        <time>2023-02-23T15:59:48.321Z</time>
      </trkpt>
      <trkpt lat="48.616581" lon="1.913669">
        <ele>163.468145</ele>
        <time>2023-02-23T15:59:49.595Z</time>
      </trkpt>
      <trkpt lat="48.616394" lon="1.913432">
        <ele>161.722663</ele>
        <time>2023-02-23T15:59:51.773Z</time>
      </trkpt>
      <trkpt lat="48.616100" lon="1.912923">
        <ele>158.525631</ele>
        <time>2023-02-23T15:59:55.630Z</time>
      </trkpt>
      <trkpt lat="48.615971" lon="1.912762">
        <ele>157.339107</ele>
        <time>2023-02-23T15:59:57.090Z</time>
      </trkpt>
      <trkpt lat="48.615719" lon="1.912619">
        <ele>155.461395</ele>
        <time>2023-02-23T15:59:59.509Z</time>
      </trkpt>
      <trkpt lat="48.615278" lon="1.912458">
        <ele>152.296428</ele>
        <time>2023-02-23T16:00:03.582Z</time>
      </trkpt>
      <trkpt lat="48.615067" lon="1.912289">
        <ele>150.630758</ele>
        <time>2023-02-23T16:00:05.788Z</time>
      </trkpt>
      <trkpt lat="48.614994" lon="1.912181">
        <ele>149.918372</ele>
        <time>2023-02-23T16:00:06.685Z</time>
      </trkpt>
      <trkpt lat="48.614920" lon="1.911957">
        <ele>148.763420</ele>
        <time>2023-02-23T16:00:08.196Z</time>
      </trkpt>
      <trkpt lat="48.614806" lon="1.911266">
        <ele>145.478611</ele>
        <time>2023-02-23T16:00:12.454Z</time>
      </trkpt>
      <trkpt lat="48.614697" lon="1.910988">
        <ele>144.420901</ele>
        <time>2023-02-23T16:00:14.380Z</time>
      </trkpt>
      <trkpt lat="48.614523" lon="1.910737">
        <ele>143.350679</ele>
        <time>2023-02-23T16:00:16.573Z</time>
      </trkpt>
      <trkpt lat="48.614198" lon="1.910437">
        <ele>141.655986</ele>
        <time>2023-02-23T16:00:20.140Z</time>
      </trkpt>
      <trkpt lat="48.612461" lon="1.909144">
        <ele>134.654610</ele>
        <time>2023-02-23T16:00:39.746Z</time>
      </trkpt>
      <trkpt lat="48.612588" lon="1.908788">
        <ele>133.928841</ele>
        <time>2023-02-23T16:00:42.544Z</time>
      </trkpt>
      <trkpt lat="48.612841" lon="1.908156">
        <ele>132.603281</ele>
        <time>2023-02-23T16:00:47.772Z</time>
      </trkpt>
      <trkpt lat="48.613064" lon="1.907816">
        <ele>132.156892</ele>
        <time>2023-02-23T16:00:51.323Z</time>
      </trkpt>
      <trkpt lat="48.612818" lon="1.907369">
        <ele>131.892099</ele>
        <time>2023-02-23T16:00:55.833Z</time>
      </trkpt>
      <trkpt lat="48.611173" lon="1.904384">
        <ele>131.966235</ele>
        <time>2023-02-23T16:01:32.544Z</time>
      </trkpt>
      <trkpt lat="48.608462" lon="1.901696">
        <ele>140.049478</ele>
        <time>2023-02-23T16:02:56.032Z</time>
      </trkpt>
      <trkpt lat="48.607775" lon="1.900996">
        <ele>142.591958</ele>
        <time>2023-02-23T16:03:20.161Z</time>
      </trkpt>
      <trkpt lat="48.606476" lon="1.899892">
        <ele>147.389801</ele>
        <time>2023-02-23T16:04:01.232Z</time>
      </trkpt>
      <trkpt lat="48.606243" lon="1.899693">
        <ele>148.251408</ele>
        <time>2023-02-23T16:04:08.541Z</time>
      </trkpt>
      <trkpt lat="48.605556" lon="1.899109">
        <ele>150.733979</ele>
        <time>2023-02-23T16:04:29.902Z</time>
      </trkpt>
      <trkpt lat="48.604174" lon="1.897932">
        <ele>155.979644</ele>
        <time>2023-02-23T16:05:13.460Z</time>
      </trkpt>
      <trkpt lat="48.603823" lon="1.897695">
        <ele>157.359894</ele>
        <time>2023-02-23T16:05:25.479Z</time>
      </trkpt>
      <trkpt lat="48.601785" lon="1.896912">
        <ele>164.717025</ele>
        <time>2023-02-23T16:06:27.592Z</time>
      </trkpt>
      <trkpt lat="48.601649" lon="1.896992">
        <ele>165.218563</ele>
        <time>2023-02-23T16:06:31.599Z</time>
      </trkpt>
      <trkpt lat="48.601284" lon="1.897481">
        <ele>166.786350</ele>
        <time>2023-02-23T16:06:44.840Z</time>
      </trkpt>
      <trkpt lat="48.600591" lon="1.898489">
        <ele>168.948062</ele>
        <time>2023-02-23T16:07:08.747Z</time>
      </trkpt>
      <trkpt lat="48.600097" lon="1.899151">
        <ele>170.431990</ele>
        <time>2023-02-23T16:07:23.819Z</time>
      </trkpt>
      <trkpt lat="48.596657" lon="1.902969">
        <ele>174.597371</ele>
        <time>2023-02-23T16:08:45.690Z</time>
      </trkpt>
      <trkpt lat="48.595329" lon="1.904437">
        <ele>174.181079</ele>
        <time>2023-02-23T16:09:07.039Z</time>
      </trkpt>
      <trkpt lat="48.593492" lon="1.906448">
        <ele>171.680431</ele>
        <time>2023-02-23T16:09:34.958Z</time>
      </trkpt>
      <trkpt lat="48.593415" lon="1.906487">
        <ele>171.558339</ele>
        <time>2023-02-23T16:09:35.881Z</time>
      </trkpt>
      <trkpt lat="48.593340" lon="1.906454">
        <ele>171.440900</ele>
        <time>2023-02-23T16:09:36.713Z</time>
      </trkpt>
      <trkpt lat="48.592658" lon="1.904655">
        <ele>169.015466</ele>
        <time>2023-02-23T16:09:51.641Z</time>
      </trkpt>
      <trkpt lat="48.592166" lon="1.903177">
        <ele>166.740433</ele>
        <time>2023-02-23T16:10:03.440Z</time>
      </trkpt>
      <trkpt lat="48.592040" lon="1.902893">
        <ele>166.436173</ele>
        <time>2023-02-23T16:10:06.027Z</time>
      </trkpt>
      <trkpt lat="48.591974" lon="1.902844">
        <ele>166.362703</ele>
        <time>2023-02-23T16:10:06.859Z</time>
      </trkpt>
      <trkpt lat="48.591681" lon="1.902927">
        <ele>166.064840</ele>
        <time>2023-02-23T16:10:10.376Z</time>
      </trkpt>
      <trkpt lat="48.591598" lon="1.902771">
        <ele>165.932524</ele>
        <time>2023-02-23T16:10:11.938Z</time>
      </trkpt>
      <trkpt lat="48.591113" lon="1.900709">
        <ele>164.776726</ele>
        <time>2023-02-23T16:10:30.485Z</time>
      </trkpt>
      <trkpt lat="48.589729" lon="1.898100">
        <ele>164.617135</ele>
        <time>2023-02-23T16:11:04.397Z</time>
      </trkpt>
      <trkpt lat="48.589240" lon="1.897407">
        <ele>164.540197</ele>
        <time>2023-02-23T16:11:14.185Z</time>
      </trkpt>
      <trkpt lat="48.588898" lon="1.896995">
        <ele>164.469583</ele>
        <time>2023-02-23T16:11:20.273Z</time>
      </trkpt>
      <trkpt lat="48.587911" lon="1.895927">
        <ele>163.476278</ele>
        <time>2023-02-23T16:11:35.588Z</time>
      </trkpt>
      <trkpt lat="48.586898" lon="1.894415">
        <ele>162.053164</ele>
        <time>2023-02-23T16:11:52.637Z</time>
      </trkpt>
      <trkpt lat="48.585369" lon="1.891510">
        <ele>159.652190</ele>
        <time>2023-02-23T16:12:22.370Z</time>
      </trkpt>
      <trkpt lat="48.584922" lon="1.890151">
        <ele>159.510176</ele>
        <time>2023-02-23T16:12:36.383Z</time>
      </trkpt>
      <trkpt lat="48.584806" lon="1.889936">
        <ele>159.535984</ele>
        <time>2023-02-23T16:12:39.159Z</time>
      </trkpt>
      <trkpt lat="48.583945" lon="1.888788">
        <ele>159.913691</ele>
        <time>2023-02-23T16:12:58.393Z</time>
      </trkpt>
      <trkpt lat="48.581503" lon="1.887305">
        <ele>162.728445</ele>
        <time>2023-02-23T16:13:48.782Z</time>
      </trkpt>
      <trkpt lat="48.580979" lon="1.886706">
        <ele>163.529378</ele>
        <time>2023-02-23T16:14:02.779Z</time>
      </trkpt>
      <trkpt lat="48.580208" lon="1.885671">
        <ele>164.045986</ele>
        <time>2023-02-23T16:14:22.771Z</time>
      </trkpt>
      <trkpt lat="48.579281" lon="1.886557">
        <ele>163.855733</ele>
        <time>2023-02-23T16:14:38.158Z</time>
      </trkpt>
      <trkpt lat="48.578213" lon="1.887577">
        <ele>161.314964</ele>
        <time>2023-02-23T16:14:51.757Z</time>
      </trkpt>
      <trkpt lat="48.577465" lon="1.886743">
        <ele>158.296696</ele>
        <time>2023-02-23T16:15:01.207Z</time>
      </trkpt>
      <trkpt lat="48.576906" lon="1.886242">
        <ele>155.888244</ele>
        <time>2023-02-23T16:15:07.619Z</time>
      </trkpt>
      <trkpt lat="48.576736" lon="1.886057">
        <ele>155.111923</ele>
        <time>2023-02-23T16:15:09.674Z</time>
      </trkpt>
      <trkpt lat="48.576183" lon="1.885084">
        <ele>151.061401</ele>
        <time>2023-02-23T16:15:17.725Z</time>
      </trkpt>
      <trkpt lat="48.576068" lon="1.884878">
        <ele>150.125594</ele>
        <time>2023-02-23T16:15:19.397Z</time>
      </trkpt>
      <trkpt lat="48.575876" lon="1.884411">
        <ele>148.216632</ele>
        <time>2023-02-23T16:15:22.748Z</time>
      </trkpt>
      <trkpt lat="48.575294" lon="1.882230">
        <ele>140.978323</ele>
        <time>2023-02-23T16:15:37.194Z</time>
      </trkpt>
      <trkpt lat="48.575143" lon="1.881660">
        <ele>139.271149</ele>
        <time>2023-02-23T16:15:41.132Z</time>
      </trkpt>
      <trkpt lat="48.575171" lon="1.880799">
        <ele>137.123952</ele>
        <time>2023-02-23T16:15:47.040Z</time>
      </trkpt>
      <trkpt lat="48.575048" lon="1.879821">
        <ele>136.899148</ele>
        <time>2023-02-23T16:15:55.355Z</time>
      </trkpt>
      <trkpt lat="48.575076" lon="1.879284">
        <ele>136.777507</ele>
        <time>2023-02-23T16:16:01.136Z</time>
      </trkpt>
      <trkpt lat="48.575446" lon="1.878438">
        <ele>136.548501</ele>
        <time>2023-02-23T16:16:13.013Z</time>
      </trkpt>
      <trkpt lat="48.575499" lon="1.878344">
        <ele>136.534654</ele>
        <time>2023-02-23T16:16:14.431Z</time>
      </trkpt>
      <trkpt lat="48.575814" lon="1.877867">
        <ele>136.567814</ele>
        <time>2023-02-23T16:16:21.787Z</time>
      </trkpt>
      <trkpt lat="48.575839" lon="1.877834">
        <ele>136.570282</ele>
        <time>2023-02-23T16:16:22.309Z</time>
      </trkpt>
      <trkpt lat="48.575531" lon="1.877012">
        <ele>136.616763</ele>
        <time>2023-02-23T16:16:35.451Z</time>
      </trkpt>
      <trkpt lat="48.575183" lon="1.877193">
        <ele>136.644132</ele>
        <time>2023-02-23T16:16:40.602Z</time>
      </trkpt>
      <trkpt lat="48.573918" lon="1.877418">
        <ele>137.124799</ele>
        <time>2023-02-23T16:16:57.811Z</time>
      </trkpt>
      <trkpt lat="48.571692" lon="1.877814">
        <ele>139.975848</ele>
        <time>2023-02-23T16:17:44.023Z</time>
      </trkpt>
      <trkpt lat="48.570428" lon="1.877979">
        <ele>143.363892</ele>
        <time>2023-02-23T16:18:22.714Z</time>
      </trkpt>
      <trkpt lat="48.569880" lon="1.877912">
        <ele>145.048084</ele>
        <time>2023-02-23T16:18:42.072Z</time>
      </trkpt>
      <trkpt lat="48.569223" lon="1.877815">
        <ele>147.144210</ele>
        <time>2023-02-23T16:19:05.078Z</time>
      </trkpt>
      <trkpt lat="48.568453" lon="1.877691">
        <ele>149.703997</ele>
        <time>2023-02-23T16:19:30.644Z</time>
      </trkpt>
      <trkpt lat="48.568300" lon="1.877703">
        <ele>150.210447</ele>
        <time>2023-02-23T16:19:35.773Z</time>
      </trkpt>
      <trkpt lat="48.568143" lon="1.877790">
        <ele>150.763231</ele>
        <time>2023-02-23T16:19:41.240Z</time>
      </trkpt>
      <trkpt lat="48.568020" lon="1.877901">
        <ele>151.236812</ele>
        <time>2023-02-23T16:19:46.043Z</time>
      </trkpt>
      <trkpt lat="48.567666" lon="1.878316">
        <ele>152.569616</ele>
        <time>2023-02-23T16:20:00.949Z</time>
      </trkpt>
      <trkpt lat="48.567465" lon="1.878468">
        <ele>153.139526</ele>
        <time>2023-02-23T16:20:08.192Z</time>
      </trkpt>
      <trkpt lat="48.567166" lon="1.878583">
        <ele>153.921845</ele>
        <time>2023-02-23T16:20:17.765Z</time>
      </trkpt>
      <trkpt lat="48.565351" lon="1.878884">
        <ele>157.697537</ele>
        <time>2023-02-23T16:21:10.997Z</time>
      </trkpt>
      <trkpt lat="48.561720" lon="1.879147">
        <ele>160.844763</ele>
        <time>2023-02-23T16:22:36.470Z</time>
      </trkpt>
      <trkpt lat="48.561156" lon="1.879270">
        <ele>160.988999</ele>
        <time>2023-02-23T16:22:47.980Z</time>
      </trkpt>
      <trkpt lat="48.558969" lon="1.879965">
        <ele>160.355345</ele>
        <time>2023-02-23T16:23:29.835Z</time>
      </trkpt>
      <trkpt lat="48.558487" lon="1.880060">
        <ele>160.096153</ele>
        <time>2023-02-23T16:23:38.690Z</time>
      </trkpt>
      <trkpt lat="48.556633" lon="1.880052">
        <ele>159.154804</ele>
        <time>2023-02-23T16:24:12.992Z</time>
      </trkpt>
      <trkpt lat="48.555952" lon="1.879910">
        <ele>158.849094</ele>
        <time>2023-02-23T16:24:25.751Z</time>
      </trkpt>
      <trkpt lat="48.556739" lon="1.875484">
        <ele>158.120279</ele>
        <time>2023-02-23T16:25:23.218Z</time>
      </trkpt>
      <trkpt lat="48.556955" lon="1.874306">
        <ele>158.320984</ele>
        <time>2023-02-23T16:25:41.604Z</time>
      </trkpt>
      <trkpt lat="48.556573" lon="1.873886">
        <ele>158.389947</ele>
        <time>2023-02-23T16:25:52.507Z</time>
      </trkpt>
      <trkpt lat="48.556493" lon="1.873764">
        <ele>158.380637</ele>
        <time>2023-02-23T16:25:55.385Z</time>
      </trkpt>
      <trkpt lat="48.556367" lon="1.873352">
        <ele>158.356033</ele>
        <time>2023-02-23T16:26:02.017Z</time>
      </trkpt>
      <trkpt lat="48.556320" lon="1.872901">
        <ele>158.331282</ele>
        <time>2023-02-23T16:26:08.218Z</time>
      </trkpt>
      <trkpt lat="48.556350" lon="1.872627">
        <ele>158.316226</ele>
        <time>2023-02-23T16:26:12.168Z</time>
      </trkpt>
      <trkpt lat="48.556465" lon="1.871758">
        <ele>158.268184</ele>
        <time>2023-02-23T16:26:22.931Z</time>
      </trkpt>
      <trkpt lat="48.556485" lon="1.870873">
        <ele>157.782045</ele>
        <time>2023-02-23T16:26:33.013Z</time>
      </trkpt>
      <trkpt lat="48.556486" lon="1.870852">
        <ele>157.766376</ele>
        <time>2023-02-23T16:26:33.259Z</time>
      </trkpt>
      <trkpt lat="48.556634" lon="1.869661">
        <ele>156.864538</ele>
        <time>2023-02-23T16:26:46.711Z</time>
      </trkpt>
      <trkpt lat="48.556681" lon="1.869517">
        <ele>156.745051</ele>
        <time>2023-02-23T16:26:48.394Z</time>
      </trkpt>
      <trkpt lat="48.556779" lon="1.869529">
        <ele>156.634500</ele>
        <time>2023-02-23T16:26:50.093Z</time>
      </trkpt>
      <trkpt lat="48.556852" lon="1.869484">
        <ele>156.545851</ele>
        <time>2023-02-23T16:26:51.468Z</time>
      </trkpt>
      <trkpt lat="48.556829" lon="1.869358">
        <ele>156.448581</ele>
        <time>2023-02-23T16:26:52.949Z</time>
      </trkpt>
      <trkpt lat="48.556746" lon="1.869260">
        <ele>156.330139</ele>
        <time>2023-02-23T16:26:54.668Z</time>
      </trkpt>
      <trkpt lat="48.556689" lon="1.869234">
        <ele>156.263192</ele>
        <time>2023-02-23T16:26:55.738Z</time>
      </trkpt>
      <trkpt lat="48.556679" lon="1.869255">
        <ele>156.243939</ele>
        <time>2023-02-23T16:26:56.044Z</time>
      </trkpt>
      <trkpt lat="48.556663" lon="1.869173">
        <ele>156.211650</ele>
        <time>2023-02-23T16:26:57.086Z</time>
      </trkpt>
      <trkpt lat="48.556624" lon="1.869134">
        <ele>156.190800</ele>
        <time>2023-02-23T16:26:57.917Z</time>
      </trkpt>
      <trkpt lat="48.556405" lon="1.868878">
        <ele>156.067357</ele>
        <time>2023-02-23T16:27:02.838Z</time>
      </trkpt>
      <trkpt lat="48.555942" lon="1.868446">
        <ele>155.824757</ele>
        <time>2023-02-23T16:27:12.969Z</time>
      </trkpt>
      <trkpt lat="48.555156" lon="1.867629">
        <ele>155.417212</ele>
        <time>2023-02-23T16:27:31.798Z</time>
      </trkpt>
      <trkpt lat="48.554587" lon="1.866812">
        <ele>155.268346</ele>
        <time>2023-02-23T16:27:47.128Z</time>
      </trkpt>
      <trkpt lat="48.554448" lon="1.866631">
        <ele>155.233546</ele>
        <time>2023-02-23T16:27:50.653Z</time>
      </trkpt>
      <trkpt lat="48.554269" lon="1.866461">
        <ele>155.193450</ele>
        <time>2023-02-23T16:27:54.722Z</time>
      </trkpt>
      <trkpt lat="48.553910" lon="1.866393">
        <ele>155.124835</ele>
        <time>2023-02-23T16:28:01.658Z</time>
      </trkpt>
      <trkpt lat="48.552690" lon="1.866363">
        <ele>155.122466</ele>
        <time>2023-02-23T16:28:25.694Z</time>
      </trkpt>
      <trkpt lat="48.552449" lon="1.866302">
        <ele>155.130318</ele>
        <time>2023-02-23T16:28:30.679Z</time>
      </trkpt>
      <trkpt lat="48.552335" lon="1.866225">
        <ele>155.134331</ele>
        <time>2023-02-23T16:28:33.303Z</time>
      </trkpt>
      <trkpt lat="48.550609" lon="1.864974">
        <ele>155.783140</ele>
        <time>2023-02-23T16:29:14.985Z</time>
      </trkpt>
      <trkpt lat="48.550281" lon="1.864776">
        <ele>155.969615</ele>
        <time>2023-02-23T16:29:22.918Z</time>
      </trkpt>
      <trkpt lat="48.549894" lon="1.864637">
        <ele>156.348063</ele>
        <time>2023-02-23T16:29:31.926Z</time>
      </trkpt>
      <trkpt lat="48.546957" lon="1.863811">
        <ele>159.516291</ele>
        <time>2023-02-23T16:30:45.835Z</time>
      </trkpt>
      <trkpt lat="48.546848" lon="1.863806">
        <ele>159.641470</ele>
        <time>2023-02-23T16:30:48.987Z</time>
      </trkpt>
      <trkpt lat="48.546783" lon="1.863762">
        <ele>159.708718</ele>
        <time>2023-02-23T16:30:50.762Z</time>
      </trkpt>
      <trkpt lat="48.545837" lon="1.863741">
        <ele>160.455327</ele>
        <time>2023-02-23T16:31:13.523Z</time>
      </trkpt>
      <trkpt lat="48.545297" lon="1.863561">
        <ele>160.891717</ele>
        <time>2023-02-23T16:31:26.489Z</time>
      </trkpt>
      <trkpt lat="48.544771" lon="1.863272">
        <ele>161.102094</ele>
        <time>2023-02-23T16:31:37.884Z</time>
      </trkpt>
      <trkpt lat="48.544389" lon="1.863104">
        <ele>161.109928</ele>
        <time>2023-02-23T16:31:45.845Z</time>
      </trkpt>
      <trkpt lat="48.541239" lon="1.862121">
        <ele>160.918325</ele>
        <time>2023-02-23T16:32:49.991Z</time>
      </trkpt>
      <trkpt lat="48.541102" lon="1.862066">
        <ele>160.889538</ele>
        <time>2023-02-23T16:32:52.779Z</time>
      </trkpt>
      <trkpt lat="48.540774" lon="1.861802">
        <ele>160.814063</ele>
        <time>2023-02-23T16:32:59.926Z</time>
      </trkpt>
      <trkpt lat="48.540410" lon="1.861195">
        <ele>160.703952</ele>
        <time>2023-02-23T16:33:10.298Z</time>
      </trkpt>
      <trkpt lat="48.540063" lon="1.860752">
        <ele>160.615751</ele>
        <time>2023-02-23T16:33:19.058Z</time>
      </trkpt>
      <trkpt lat="48.538982" lon="1.859719">
        <ele>160.534779</ele>
        <time>2023-02-23T16:33:44.423Z</time>
      </trkpt>
      <trkpt lat="48.537613" lon="1.858276">
        <ele>160.725899</ele>
        <time>2023-02-23T16:34:19.392Z</time>
      </trkpt>
      <trkpt lat="48.537019" lon="1.857756">
        <ele>160.845333</ele>
        <time>2023-02-23T16:34:33.830Z</time>
      </trkpt>
      <trkpt lat="48.535893" lon="1.857059">
        <ele>160.894364</ele>
        <time>2023-02-23T16:34:58.852Z</time>
      </trkpt>
      <trkpt lat="48.535222" lon="1.856578">
        <ele>160.846672</ele>
        <time>2023-02-23T16:35:13.657Z</time>
      </trkpt>
      <trkpt lat="48.534757" lon="1.856136">
        <ele>160.681794</ele>
        <time>2023-02-23T16:35:24.275Z</time>
      </trkpt>
      <trkpt lat="48.534331" lon="1.855610">
        <ele>160.516669</ele>
        <time>2023-02-23T16:35:34.659Z</time>
      </trkpt>
      <trkpt lat="48.533448" lon="1.854196">
        <ele>160.038311</ele>
        <time>2023-02-23T16:35:58.819Z</time>
      </trkpt>
      <trkpt lat="48.532601" lon="1.852778">
        <ele>159.557606</ele>
        <time>2023-02-23T16:36:22.687Z</time>
      </trkpt>
      <trkpt lat="48.532316" lon="1.852121">
        <ele>159.419437</ele>
        <time>2023-02-23T16:36:32.675Z</time>
      </trkpt>
      <trkpt lat="48.532097" lon="1.851403">
        <ele>159.280373</ele>
        <time>2023-02-23T16:36:42.720Z</time>
      </trkpt>
      <trkpt lat="48.532326" lon="1.851271">
        <ele>159.215257</ele>
        <time>2023-02-23T16:36:47.465Z</time>
      </trkpt>
      <trkpt lat="48.532614" lon="1.851044">
        <ele>159.150087</ele>
        <time>2023-02-23T16:36:53.730Z</time>
      </trkpt>
      <trkpt lat="48.534043" lon="1.849847">
        <ele>159.072278</ele>
        <time>2023-02-23T16:37:26.325Z</time>
      </trkpt>
      <trkpt lat="48.534540" lon="1.849530">
        <ele>159.180087</ele>
        <time>2023-02-23T16:37:37.662Z</time>
      </trkpt>
      <trkpt lat="48.535311" lon="1.849099">
        <ele>159.373516</ele>
        <time>2023-02-23T16:37:55.328Z</time>
      </trkpt>
      <trkpt lat="48.535590" lon="1.848998">
        <ele>159.441018</ele>
        <time>2023-02-23T16:38:01.509Z</time>
      </trkpt>
      <trkpt lat="48.535993" lon="1.848938">
        <ele>159.543504</ele>
        <time>2023-02-23T16:38:10.069Z</time>
      </trkpt>
      <trkpt lat="48.536038" lon="1.848300">
        <ele>159.659817</ele>
        <time>2023-02-23T16:38:18.943Z</time>
      </trkpt>
      <trkpt lat="48.535995" lon="1.847623">
        <ele>159.783109</ele>
        <time>2023-02-23T16:38:28.647Z</time>
      </trkpt>
      <trkpt lat="48.536055" lon="1.847210">
        <ele>159.859760</ele>
        <time>2023-02-23T16:38:34.960Z</time>
      </trkpt>
      <trkpt lat="48.536218" lon="1.846561">
        <ele>159.982538</ele>
        <time>2023-02-23T16:38:44.759Z</time>
      </trkpt>
      <trkpt lat="48.536332" lon="1.846407">
        <ele>159.885070</ele>
        <time>2023-02-23T16:38:47.921Z</time>
      </trkpt>
      <trkpt lat="48.536993" lon="1.846953">
        <ele>159.404960</ele>
        <time>2023-02-23T16:38:58.635Z</time>
      </trkpt>
      <trkpt lat="48.537234" lon="1.847039">
        <ele>159.247153</ele>
        <time>2023-02-23T16:39:01.916Z</time>
      </trkpt>
      <trkpt lat="48.537422" lon="1.846954">
        <ele>159.122097</ele>
        <time>2023-02-23T16:39:04.310Z</time>
      </trkpt>
      <trkpt lat="48.538171" lon="1.846827">
        <ele>157.942106</ele>
        <time>2023-02-23T16:39:13.155Z</time>
      </trkpt>
      <trkpt lat="48.538333" lon="1.846834">
        <ele>157.471438</ele>
        <time>2023-02-23T16:39:14.863Z</time>
      </trkpt>
      <trkpt lat="48.538687" lon="1.846543">
        <ele>156.300946</ele>
        <time>2023-02-23T16:39:18.917Z</time>
      </trkpt>
      <trkpt lat="48.538334" lon="1.845184">
        <ele>153.562973</ele>
        <time>2023-02-23T16:39:28.506Z</time>
      </trkpt>
      <trkpt lat="48.538216" lon="1.844545">
        <ele>153.015695</ele>
        <time>2023-02-23T16:39:32.919Z</time>
      </trkpt>
      <trkpt lat="48.538213" lon="1.843996">
        <ele>152.562768</ele>
        <time>2023-02-23T16:39:36.687Z</time>
      </trkpt>
      <trkpt lat="48.538542" lon="1.841941">
        <ele>152.409837</ele>
        <time>2023-02-23T16:39:59.709Z</time>
      </trkpt>
      <trkpt lat="48.539083" lon="1.839959">
        <ele>155.678808</ele>
        <time>2023-02-23T16:40:39.683Z</time>
      </trkpt>
      <trkpt lat="48.540950" lon="1.837396">
        <ele>159.633024</ele>
        <time>2023-02-23T16:41:33.456Z</time>
      </trkpt>
      <trkpt lat="48.542146" lon="1.833488">
        <ele>161.192399</ele>
        <time>2023-02-23T16:42:19.532Z</time>
      </trkpt>
      <trkpt lat="48.542820" lon="1.832742">
        <ele>161.310089</ele>
        <time>2023-02-23T16:42:33.116Z</time>
      </trkpt>
      <trkpt lat="48.543266" lon="1.832196">
        <ele>161.390948</ele>
        <time>2023-02-23T16:42:41.875Z</time>
      </trkpt>
      <trkpt lat="48.543350" lon="1.832058">
        <ele>161.408429</ele>
        <time>2023-02-23T16:42:43.860Z</time>
      </trkpt>
      <trkpt lat="48.543501" lon="1.831810">
        <ele>161.438988</ele>
        <time>2023-02-23T16:42:46.764Z</time>
      </trkpt>
      <trkpt lat="48.544078" lon="1.830656">
        <ele>161.196120</ele>
        <time>2023-02-23T16:43:00.008Z</time>
      </trkpt>
      <trkpt lat="48.544139" lon="1.830570">
        <ele>161.174953</ele>
        <time>2023-02-23T16:43:01.091Z</time>
      </trkpt>
      <trkpt lat="48.544160" lon="1.830216">
        <ele>161.115263</ele>
        <time>2023-02-23T16:43:04.518Z</time>
      </trkpt>
      <trkpt lat="48.544171" lon="1.829860">
        <ele>161.055411</ele>
        <time>2023-02-23T16:43:07.666Z</time>
      </trkpt>
      <trkpt lat="48.544167" lon="1.829538">
        <ele>161.001324</ele>
        <time>2023-02-23T16:43:10.935Z</time>
      </trkpt>
      <trkpt lat="48.544117" lon="1.829409">
        <ele>160.982641</ele>
        <time>2023-02-23T16:43:12.217Z</time>
      </trkpt>
      <trkpt lat="48.544035" lon="1.829306">
        <ele>160.980212</ele>
        <time>2023-02-23T16:43:13.622Z</time>
      </trkpt>
      <trkpt lat="48.543891" lon="1.829254">
        <ele>160.976841</ele>
        <time>2023-02-23T16:43:16.094Z</time>
      </trkpt>
      <trkpt lat="48.543819" lon="1.829267">
        <ele>160.975190</ele>
        <time>2023-02-23T16:43:17.023Z</time>
      </trkpt>
      <trkpt lat="48.543699" lon="1.829349">
        <ele>160.972191</ele>
        <time>2023-02-23T16:43:18.752Z</time>
      </trkpt>
      <trkpt lat="48.543566" lon="1.829509">
        <ele>160.968319</ele>
        <time>2023-02-23T16:43:21.451Z</time>
      </trkpt>
      <trkpt lat="48.543480" lon="1.829549">
        <ele>160.966270</ele>
        <time>2023-02-23T16:43:22.615Z</time>
      </trkpt>
      <trkpt lat="48.542993" lon="1.829530">
        <ele>160.955178</ele>
        <time>2023-02-23T16:43:29.726Z</time>
      </trkpt>
      <trkpt lat="48.542911" lon="1.829496">
        <ele>160.953241</ele>
        <time>2023-02-23T16:43:31.295Z</time>
      </trkpt>
      <trkpt lat="48.542837" lon="1.829413">
        <ele>160.951143</ele>
        <time>2023-02-23T16:43:32.820Z</time>
      </trkpt>
      <trkpt lat="48.542770" lon="1.829311">
        <ele>160.948976</ele>
        <time>2023-02-23T16:43:34.261Z</time>
      </trkpt>
      <trkpt lat="48.542736" lon="1.829158">
        <ele>160.946544</ele>
        <time>2023-02-23T16:43:36.060Z</time>
      </trkpt>
      <trkpt lat="48.543157" lon="1.821063">
        <ele>161.229952</ele>
        <time>2023-02-23T16:44:55.955Z</time>
      </trkpt>
      <trkpt lat="48.543230" lon="1.820262">
        <ele>161.565631</ele>
        <time>2023-02-23T16:45:05.237Z</time>
      </trkpt>
      <trkpt lat="48.543335" lon="1.819348">
        <ele>162.135638</ele>
        <time>2023-02-23T16:45:16.556Z</time>
      </trkpt>
      <trkpt lat="48.543513" lon="1.816474">
        <ele>163.941255</ele>
        <time>2023-02-23T16:45:54.002Z</time>
      </trkpt>
      <trkpt lat="48.543234" lon="1.816133">
        <ele>164.285211</ele>
        <time>2023-02-23T16:46:00.475Z</time>
      </trkpt>
      <trkpt lat="48.541807" lon="1.814246">
        <ele>165.272607</ele>
        <time>2023-02-23T16:46:32.116Z</time>
      </trkpt>
      <trkpt lat="48.540353" lon="1.812200">
        <ele>165.449364</ele>
        <time>2023-02-23T16:47:02.423Z</time>
      </trkpt>
      <trkpt lat="48.539893" lon="1.811662">
        <ele>164.799213</ele>
        <time>2023-02-23T16:47:10.270Z</time>
      </trkpt>
      <trkpt lat="48.539419" lon="1.811200">
        <ele>164.038823</ele>
        <time>2023-02-23T16:47:17.132Z</time>
      </trkpt>
      <trkpt lat="48.538970" lon="1.810678">
        <ele>163.275084</ele>
        <time>2023-02-23T16:47:23.364Z</time>
      </trkpt>
      <trkpt lat="48.538415" lon="1.809913">
        <ele>161.655104</ele>
        <time>2023-02-23T16:47:31.173Z</time>
      </trkpt>
      <trkpt lat="48.537734" lon="1.808710">
        <ele>159.123018</ele>
        <time>2023-02-23T16:47:42.169Z</time>
      </trkpt>
      <trkpt lat="48.536752" lon="1.807134">
        <ele>157.622760</ele>
        <time>2023-02-23T16:47:58.584Z</time>
      </trkpt>
      <trkpt lat="48.536265" lon="1.806353">
        <ele>157.184335</ele>
        <time>2023-02-23T16:48:11.144Z</time>
      </trkpt>
      <trkpt lat="48.535907" lon="1.805831">
        <ele>157.263971</ele>
        <time>2023-02-23T16:48:21.162Z</time>
      </trkpt>
      <trkpt lat="48.535785" lon="1.805478">
        <ele>157.306165</ele>
        <time>2023-02-23T16:48:25.775Z</time>
      </trkpt>
      <trkpt lat="48.534942" lon="1.804204">
        <ele>156.792081</ele>
        <time>2023-02-23T16:48:41.692Z</time>
      </trkpt>
      <trkpt lat="48.534445" lon="1.803454">
        <ele>155.344840</ele>
        <time>2023-02-23T16:48:49.597Z</time>
      </trkpt>
      <trkpt lat="48.533957" lon="1.803081">
        <ele>154.218222</ele>
        <time>2023-02-23T16:48:55.319Z</time>
      </trkpt>
      <trkpt lat="48.533758" lon="1.802870">
        <ele>153.698888</ele>
        <time>2023-02-23T16:48:57.726Z</time>
      </trkpt>
      <trkpt lat="48.532678" lon="1.802104">
        <ele>149.341599</ele>
        <time>2023-02-23T16:49:09.561Z</time>
      </trkpt>
      <trkpt lat="48.532544" lon="1.802036">
        <ele>148.825365</ele>
        <time>2023-02-23T16:49:10.961Z</time>
      </trkpt>
      <trkpt lat="48.532200" lon="1.801944">
        <ele>147.549592</ele>
        <time>2023-02-23T16:49:14.323Z</time>
      </trkpt>
      <trkpt lat="48.531086" lon="1.801929">
        <ele>144.685933</ele>
        <time>2023-02-23T16:49:25.447Z</time>
      </trkpt>
      <trkpt lat="48.531034" lon="1.801879">
        <ele>144.534270</ele>
        <time>2023-02-23T16:49:25.973Z</time>
      </trkpt>
      <trkpt lat="48.530920" lon="1.801792">
        <ele>144.220028</ele>
        <time>2023-02-23T16:49:27.559Z</time>
      </trkpt>
      <trkpt lat="48.529932" lon="1.800091">
        <ele>143.811057</ele>
        <time>2023-02-23T16:49:48.620Z</time>
      </trkpt>
      <trkpt lat="48.529581" lon="1.799600">
        <ele>144.376240</ele>
        <time>2023-02-23T16:50:01.138Z</time>
      </trkpt>
      <trkpt lat="48.529303" lon="1.799327">
        <ele>144.767960</ele>
        <time>2023-02-23T16:50:09.631Z</time>
      </trkpt>
      <trkpt lat="48.528866" lon="1.798769">
        <ele>145.597918</ele>
        <time>2023-02-23T16:50:24.265Z</time>
      </trkpt>
      <trkpt lat="48.528337" lon="1.798099">
        <ele>146.633233</ele>
        <time>2023-02-23T16:50:39.146Z</time>
      </trkpt>
      <trkpt lat="48.528121" lon="1.797860">
        <ele>147.034771</ele>
        <time>2023-02-23T16:50:43.513Z</time>
      </trkpt>
      <trkpt lat="48.527987" lon="1.797777">
        <ele>147.251950</ele>
        <time>2023-02-23T16:50:46.238Z</time>
      </trkpt>
      <trkpt lat="48.527844" lon="1.797490">
        <ele>147.570059</ele>
        <time>2023-02-23T16:50:49.770Z</time>
      </trkpt>
      <trkpt lat="48.527768" lon="1.797155">
        <ele>147.573817</ele>
        <time>2023-02-23T16:50:53.357Z</time>
      </trkpt>
      <trkpt lat="48.527793" lon="1.796761">
        <ele>147.578017</ele>
        <time>2023-02-23T16:50:57.846Z</time>
      </trkpt>
      <trkpt lat="48.527817" lon="1.795109">
        <ele>147.595551</ele>
        <time>2023-02-23T16:51:13.323Z</time>
      </trkpt>
      <trkpt lat="48.527838" lon="1.794835">
        <ele>147.598044</ele>
        <time>2023-02-23T16:51:15.825Z</time>
      </trkpt>
      <trkpt lat="48.528100" lon="1.794809">
        <ele>147.483689</ele>
        <time>2023-02-23T16:51:19.787Z</time>
      </trkpt>
      <trkpt lat="48.528158" lon="1.794286">
        <ele>147.330740</ele>
        <time>2023-02-23T16:51:24.800Z</time>
      </trkpt>
      <trkpt lat="48.528157" lon="1.794046">
        <ele>147.261516</ele>
        <time>2023-02-23T16:51:26.946Z</time>
      </trkpt>
      <trkpt lat="48.528085" lon="1.792796">
        <ele>146.899618</ele>
        <time>2023-02-23T16:51:38.190Z</time>
      </trkpt>
      <trkpt lat="48.528062" lon="1.791083">
        <ele>146.071561</ele>
        <time>2023-02-23T16:51:51.844Z</time>
      </trkpt>
      <trkpt lat="48.528015" lon="1.790233">
        <ele>145.625039</ele>
        <time>2023-02-23T16:51:58.900Z</time>
      </trkpt>
      <trkpt lat="48.527851" lon="1.789568">
        <ele>145.452092</ele>
        <time>2023-02-23T16:52:05.301Z</time>
      </trkpt>
      <trkpt lat="48.527588" lon="1.788937">
        <ele>145.616263</ele>
        <time>2023-02-23T16:52:12.741Z</time>
      </trkpt>
      <trkpt lat="48.527429" lon="1.788269">
        <ele>145.772566</ele>
        <time>2023-02-23T16:52:20.603Z</time>
      </trkpt>
      <trkpt lat="48.527215" lon="1.786897">
        <ele>146.234970</ele>
        <time>2023-02-23T16:52:37.172Z</time>
      </trkpt>
      <trkpt lat="48.526945" lon="1.785535">
        <ele>147.067616</ele>
        <time>2023-02-23T16:52:55.565Z</time>
      </trkpt>
      <trkpt lat="48.526713" lon="1.784993">
        <ele>147.445579</ele>
        <time>2023-02-23T16:53:03.319Z</time>
      </trkpt>
      <trkpt lat="48.525978" lon="1.783637">
        <ele>147.929429</ele>
        <time>2023-02-23T16:53:22.276Z</time>
      </trkpt>
      <trkpt lat="48.524497" lon="1.780905">
        <ele>149.379659</ele>
        <time>2023-02-23T16:53:59.040Z</time>
      </trkpt>
      <trkpt lat="48.524321" lon="1.780398">
        <ele>149.996455</ele>
        <time>2023-02-23T16:54:07.559Z</time>
      </trkpt>
      <trkpt lat="48.524105" lon="1.776413">
        <ele>157.502839</ele>
        <time>2023-02-23T16:55:26.690Z</time>
      </trkpt>
      <trkpt lat="48.524163" lon="1.774270">
        <ele>157.679087</ele>
        <time>2023-02-23T16:55:47.013Z</time>
      </trkpt>
      <trkpt lat="48.524349" lon="1.772128">
        <ele>153.935123</ele>
        <time>2023-02-23T16:56:01.392Z</time>
      </trkpt>
      <trkpt lat="48.524067" lon="1.771252">
        <ele>151.410942</ele>
        <time>2023-02-23T16:56:07.525Z</time>
      </trkpt>
      <trkpt lat="48.523976" lon="1.770715">
        <ele>149.974431</ele>
        <time>2023-02-23T16:56:11.101Z</time>
      </trkpt>
      <trkpt lat="48.524017" lon="1.770410">
        <ele>149.167882</ele>
        <time>2023-02-23T16:56:13.149Z</time>
      </trkpt>
      <trkpt lat="48.524243" lon="1.769426">
        <ele>146.409229</ele>
        <time>2023-02-23T16:56:20.200Z</time>
      </trkpt>
      <trkpt lat="48.522515" lon="1.768464">
        <ele>138.776180</ele>
        <time>2023-02-23T16:56:37.913Z</time>
      </trkpt>
      <trkpt lat="48.522110" lon="1.768332">
        <ele>136.970453</ele>
        <time>2023-02-23T16:56:41.891Z</time>
      </trkpt>
      <trkpt lat="48.521894" lon="1.768195">
        <ele>135.949391</ele>
        <time>2023-02-23T16:56:44.125Z</time>
      </trkpt>
      <trkpt lat="48.521627" lon="1.767987">
        <ele>134.639984</ele>
        <time>2023-02-23T16:56:46.978Z</time>
      </trkpt>
      <trkpt lat="48.521106" lon="1.767692">
        <ele>132.583085</ele>
        <time>2023-02-23T16:56:52.320Z</time>
      </trkpt>
      <trkpt lat="48.521009" lon="1.767508">
        <ele>132.547342</ele>
        <time>2023-02-23T16:56:53.840Z</time>
      </trkpt>
      <trkpt lat="48.520908" lon="1.767147">
        <ele>132.487779</ele>
        <time>2023-02-23T16:56:56.498Z</time>
      </trkpt>
      <trkpt lat="48.520825" lon="1.766850">
        <ele>132.438784</ele>
        <time>2023-02-23T16:56:58.947Z</time>
      </trkpt>
      <trkpt lat="48.520596" lon="1.766268">
        <ele>132.335894</ele>
        <time>2023-02-23T16:57:05.922Z</time>
      </trkpt>
      <trkpt lat="48.520575" lon="1.766209">
        <ele>132.325714</ele>
        <time>2023-02-23T16:57:06.925Z</time>
      </trkpt>
      <trkpt lat="48.520235" lon="1.765375">
        <ele>132.482650</ele>
        <time>2023-02-23T16:57:22.663Z</time>
      </trkpt>
      <trkpt lat="48.520115" lon="1.765060">
        <ele>133.638909</ele>
        <time>2023-02-23T16:57:29.806Z</time>
      </trkpt>
      <trkpt lat="48.519843" lon="1.764059">
        <ele>137.081628</ele>
        <time>2023-02-23T16:57:55.384Z</time>
      </trkpt>
      <trkpt lat="48.519771" lon="1.763941">
        <ele>137.592130</ele>
        <time>2023-02-23T16:57:59.647Z</time>
      </trkpt>
      <trkpt lat="48.519557" lon="1.763729">
        <ele>138.821732</ele>
        <time>2023-02-23T16:58:10.430Z</time>
      </trkpt>
      <trkpt lat="48.519483" lon="1.763616">
        <ele>139.327358</ele>
        <time>2023-02-23T16:58:14.887Z</time>
      </trkpt>
      <trkpt lat="48.518639" lon="1.761675">
        <ele>145.402086</ele>
        <time>2023-02-23T16:59:05.624Z</time>
      </trkpt>
      <trkpt lat="48.518336" lon="1.761494">
        <ele>146.618059</ele>
        <time>2023-02-23T16:59:13.405Z</time>
      </trkpt>
      <trkpt lat="48.518266" lon="1.760170">
        <ele>147.959162</ele>
        <time>2023-02-23T16:59:31.939Z</time>
      </trkpt>
      <trkpt lat="48.518222" lon="1.760002">
        <ele>148.037934</ele>
        <time>2023-02-23T16:59:34.184Z</time>
      </trkpt>
      <trkpt lat="48.518163" lon="1.759891">
        <ele>148.099991</ele>
        <time>2023-02-23T16:59:35.693Z</time>
      </trkpt>
      <trkpt lat="48.517912" lon="1.759795">
        <ele>148.270440</ele>
        <time>2023-02-23T16:59:39.309Z</time>
      </trkpt>
      <trkpt lat="48.517797" lon="1.759698">
        <ele>148.357157</ele>
        <time>2023-02-23T16:59:41.214Z</time>
      </trkpt>
      <trkpt lat="48.517744" lon="1.759457">
        <ele>148.467883</ele>
        <time>2023-02-23T16:59:43.555Z</time>
      </trkpt>
      <trkpt lat="48.517790" lon="1.758448">
        <ele>148.356930</ele>
        <time>2023-02-23T16:59:53.755Z</time>
      </trkpt>
      <trkpt lat="48.517758" lon="1.758061">
        <ele>148.010251</ele>
        <time>2023-02-23T16:59:57.349Z</time>
      </trkpt>
      <trkpt lat="48.517853" lon="1.757980">
        <ele>147.863835</ele>
        <time>2023-02-23T16:59:58.639Z</time>
      </trkpt>
      <trkpt lat="48.517932" lon="1.757829">
        <ele>147.692791</ele>
        <time>2023-02-23T17:00:00.597Z</time>
      </trkpt>
      <trkpt lat="48.518271" lon="1.756501">
        <ele>146.427694</ele>
        <time>2023-02-23T17:00:10.891Z</time>
      </trkpt>
      <trkpt lat="48.518346" lon="1.756279">
        <ele>146.069145</ele>
        <time>2023-02-23T17:00:12.759Z</time>
      </trkpt>
      <trkpt lat="48.518417" lon="1.756164">
        <ele>145.750972</ele>
        <time>2023-02-23T17:00:13.774Z</time>
      </trkpt>
      <trkpt lat="48.518861" lon="1.755843">
        <ele>144.246806</ele>
        <time>2023-02-23T17:00:18.800Z</time>
      </trkpt>
      <trkpt lat="48.519117" lon="1.755600">
        <ele>143.322844</ele>
        <time>2023-02-23T17:00:21.862Z</time>
      </trkpt>
      <trkpt lat="48.519831" lon="1.754768">
        <ele>140.637241</ele>
        <time>2023-02-23T17:00:30.844Z</time>
      </trkpt>
      <trkpt lat="48.520296" lon="1.754204">
        <ele>139.325264</ele>
        <time>2023-02-23T17:00:37.215Z</time>
      </trkpt>
      <trkpt lat="48.520687" lon="1.753648">
        <ele>138.143827</ele>
        <time>2023-02-23T17:00:43.072Z</time>
      </trkpt>
      <trkpt lat="48.520742" lon="1.753529">
        <ele>137.932423</ele>
        <time>2023-02-23T17:00:44.152Z</time>
      </trkpt>
      <trkpt lat="48.520910" lon="1.753036">
        <ele>137.124700</ele>
        <time>2023-02-23T17:00:48.349Z</time>
      </trkpt>
      <trkpt lat="48.520997" lon="1.752509">
        <ele>136.490885</ele>
        <time>2023-02-23T17:00:52.474Z</time>
      </trkpt>
      <trkpt lat="48.521009" lon="1.751908">
        <ele>135.876060</ele>
        <time>2023-02-23T17:00:57.015Z</time>
      </trkpt>
      <trkpt lat="48.520946" lon="1.751408">
        <ele>135.355621</ele>
        <time>2023-02-23T17:01:00.932Z</time>
      </trkpt>
      <trkpt lat="48.520829" lon="1.750759">
        <ele>134.667849</ele>
        <time>2023-02-23T17:01:06.313Z</time>
      </trkpt>
      <trkpt lat="48.520700" lon="1.750018">
        <ele>133.738167</ele>
        <time>2023-02-23T17:01:12.225Z</time>
      </trkpt>
      <trkpt lat="48.520583" lon="1.749539">
        <ele>132.835106</ele>
        <time>2023-02-23T17:01:15.717Z</time>
      </trkpt>
      <trkpt lat="48.520467" lon="1.749314">
        <ele>132.330757</ele>
        <time>2023-02-23T17:01:17.663Z</time>
      </trkpt>
      <trkpt lat="48.519886" lon="1.748568">
        <ele>130.293901</ele>
        <time>2023-02-23T17:01:25.266Z</time>
      </trkpt>
      <trkpt lat="48.519793" lon="1.748384">
        <ele>129.884488</ele>
        <time>2023-02-23T17:01:26.876Z</time>
      </trkpt>
      <trkpt lat="48.519755" lon="1.748241">
        <ele>129.611939</ele>
        <time>2023-02-23T17:01:28.074Z</time>
      </trkpt>
      <trkpt lat="48.519761" lon="1.748125">
        <ele>129.406123</ele>
        <time>2023-02-23T17:01:28.805Z</time>
      </trkpt>
      <trkpt lat="48.519798" lon="1.748001">
        <ele>129.241161</ele>
        <time>2023-02-23T17:01:29.802Z</time>
      </trkpt>
      <trkpt lat="48.519828" lon="1.747876">
        <ele>129.159532</ele>
        <time>2023-02-23T17:01:30.819Z</time>
      </trkpt>
      <trkpt lat="48.519959" lon="1.747291">
        <ele>128.780389</ele>
        <time>2023-02-23T17:01:35.584Z</time>
      </trkpt>
      <trkpt lat="48.520022" lon="1.747110">
        <ele>128.654851</ele>
        <time>2023-02-23T17:01:37.009Z</time>
      </trkpt>
      <trkpt lat="48.520070" lon="1.746861">
        <ele>128.495630</ele>
        <time>2023-02-23T17:01:39.211Z</time>
      </trkpt>
      <trkpt lat="48.520015" lon="1.746680">
        <ele>128.373366</ele>
        <time>2023-02-23T17:01:41.068Z</time>
      </trkpt>
      <trkpt lat="48.519858" lon="1.746291">
        <ele>128.093686</ele>
        <time>2023-02-23T17:01:44.926Z</time>
      </trkpt>
      <trkpt lat="48.519698" lon="1.745728">
        <ele>127.717547</ele>
        <time>2023-02-23T17:01:50.152Z</time>
      </trkpt>
      <trkpt lat="48.519637" lon="1.745466">
        <ele>127.621166</ele>
        <time>2023-02-23T17:01:53.200Z</time>
      </trkpt>
      <trkpt lat="48.519618" lon="1.745274">
        <ele>127.633689</ele>
        <time>2023-02-23T17:01:55.894Z</time>
      </trkpt>
      <trkpt lat="48.519638" lon="1.744370">
        <ele>127.692036</ele>
        <time>2023-02-23T17:02:07.642Z</time>
      </trkpt>
      <trkpt lat="48.519791" lon="1.737202">
        <ele>127.841556</ele>
        <time>2023-02-23T17:03:16.719Z</time>
      </trkpt>
      <trkpt lat="48.519855" lon="1.736574">
        <ele>127.873665</ele>
        <time>2023-02-23T17:03:22.879Z</time>
      </trkpt>
      <trkpt lat="48.520106" lon="1.735473">
        <ele>127.932507</ele>
        <time>2023-02-23T17:03:34.679Z</time>
      </trkpt>
      <trkpt lat="48.520329" lon="1.734852">
        <ele>127.982991</ele>
        <time>2023-02-23T17:03:41.862Z</time>
      </trkpt>
      <trkpt lat="48.520694" lon="1.734017">
        <ele>128.655545</ele>
        <time>2023-02-23T17:03:51.738Z</time>
      </trkpt>
      <trkpt lat="48.520964" lon="1.733475">
        <ele>129.111453</ele>
        <time>2023-02-23T17:04:00.142Z</time>
      </trkpt>
      <trkpt lat="48.521187" lon="1.732873">
        <ele>129.575135</ele>
        <time>2023-02-23T17:04:10.160Z</time>
      </trkpt>
      <trkpt lat="48.521266" lon="1.732511">
        <ele>129.916407</ele>
        <time>2023-02-23T17:04:15.452Z</time>
      </trkpt>
      <trkpt lat="48.521265" lon="1.732128">
        <ele>130.737868</ele>
        <time>2023-02-23T17:04:21.869Z</time>
      </trkpt>
      <trkpt lat="48.521243" lon="1.731955">
        <ele>131.115694</ele>
        <time>2023-02-23T17:04:24.478Z</time>
      </trkpt>
      <trkpt lat="48.521235" lon="1.731886">
        <ele>131.265935</ele>
        <time>2023-02-23T17:04:25.434Z</time>
      </trkpt>
      <trkpt lat="48.521163" lon="1.731848">
        <ele>131.512920</ele>
        <time>2023-02-23T17:04:28.406Z</time>
      </trkpt>
      <trkpt lat="48.520911" lon="1.731462">
        <ele>132.675376</ele>
        <time>2023-02-23T17:04:38.403Z</time>
      </trkpt>
      <trkpt lat="48.520399" lon="1.731054">
        <ele>134.550100</ele>
        <time>2023-02-23T17:04:55.374Z</time>
      </trkpt>
      <trkpt lat="48.519333" lon="1.730314">
        <ele>137.996660</ele>
        <time>2023-02-23T17:05:31.075Z</time>
      </trkpt>
      <trkpt lat="48.518980" lon="1.729834">
        <ele>139.336433</ele>
        <time>2023-02-23T17:05:42.906Z</time>
      </trkpt>
      <trkpt lat="48.518883" lon="1.729738">
        <ele>139.663526</ele>
        <time>2023-02-23T17:05:45.550Z</time>
      </trkpt>
      <trkpt lat="48.518809" lon="1.729707">
        <ele>139.880102</ele>
        <time>2023-02-23T17:05:47.340Z</time>
      </trkpt>
      <trkpt lat="48.518434" lon="1.729728">
        <ele>140.811272</ele>
        <time>2023-02-23T17:05:55.068Z</time>
      </trkpt>
      <trkpt lat="48.518352" lon="1.729656">
        <ele>140.942258</ele>
        <time>2023-02-23T17:05:56.687Z</time>
      </trkpt>
      <trkpt lat="48.518275" lon="1.729531">
        <ele>141.098386</ele>
        <time>2023-02-23T17:05:58.553Z</time>
      </trkpt>
      <trkpt lat="48.517678" lon="1.727965">
        <ele>142.751000</ele>
        <time>2023-02-23T17:06:21.698Z</time>
      </trkpt>
      <trkpt lat="48.517584" lon="1.727750">
        <ele>142.986624</ele>
        <time>2023-02-23T17:06:25.542Z</time>
      </trkpt>
      <trkpt lat="48.517471" lon="1.727589">
        <ele>143.216679</ele>
        <time>2023-02-23T17:06:29.089Z</time>
      </trkpt>
      <trkpt lat="48.516249" lon="1.726516">
        <ele>146.240956</ele>
        <time>2023-02-23T17:07:02.551Z</time>
      </trkpt>
      <trkpt lat="48.515766" lon="1.725990">
        <ele>147.127139</ele>
        <time>2023-02-23T17:07:17.223Z</time>
      </trkpt>
      <trkpt lat="48.515636" lon="1.725881">
        <ele>147.195581</ele>
        <time>2023-02-23T17:07:20.771Z</time>
      </trkpt>
      <trkpt lat="48.515530" lon="1.725844">
        <ele>147.245655</ele>
        <time>2023-02-23T17:07:22.950Z</time>
      </trkpt>
      <trkpt lat="48.515305" lon="1.725831">
        <ele>147.349288</ele>
        <time>2023-02-23T17:07:27.548Z</time>
      </trkpt>
      <trkpt lat="48.514764" lon="1.725887">
        <ele>147.598870</ele>
        <time>2023-02-23T17:07:35.262Z</time>
      </trkpt>
      <trkpt lat="48.514674" lon="1.725863">
        <ele>147.640934</ele>
        <time>2023-02-23T17:07:36.348Z</time>
      </trkpt>
      <trkpt lat="48.514586" lon="1.725754">
        <ele>147.693326</ele>
        <time>2023-02-23T17:07:37.940Z</time>
      </trkpt>
      <trkpt lat="48.514458" lon="1.724585">
        <ele>147.389316</ele>
        <time>2023-02-23T17:07:47.560Z</time>
      </trkpt>
      <trkpt lat="48.514332" lon="1.723857">
        <ele>146.877629</ele>
        <time>2023-02-23T17:07:53.443Z</time>
      </trkpt>
      <trkpt lat="48.513726" lon="1.720932">
        <ele>145.258636</ele>
        <time>2023-02-23T17:08:18.479Z</time>
      </trkpt>
      <trkpt lat="48.512942" lon="1.717525">
        <ele>144.084913</ele>
        <time>2023-02-23T17:08:53.131Z</time>
      </trkpt>
      <trkpt lat="48.512852" lon="1.717214">
        <ele>143.260985</ele>
        <time>2023-02-23T17:08:55.603Z</time>
      </trkpt>
      <trkpt lat="48.512664" lon="1.716760">
        <ele>141.780851</ele>
        <time>2023-02-23T17:08:59.236Z</time>
      </trkpt>
      <trkpt lat="48.512265" lon="1.716030">
        <ele>139.164490</ele>
        <time>2023-02-23T17:09:05.313Z</time>
      </trkpt>
      <trkpt lat="48.511715" lon="1.715137">
        <ele>135.304919</ele>
        <time>2023-02-23T17:09:12.718Z</time>
      </trkpt>
      <trkpt lat="48.511230" lon="1.714406">
        <ele>130.633617</ele>
        <time>2023-02-23T17:09:18.802Z</time>
      </trkpt>
      <trkpt lat="48.510504" lon="1.713442">
        <ele>124.161412</ele>
        <time>2023-02-23T17:09:27.470Z</time>
      </trkpt>
      <trkpt lat="48.509896" lon="1.712632">
        <ele>121.114732</ele>
        <time>2023-02-23T17:09:35.181Z</time>
      </trkpt>
      <trkpt lat="48.509850" lon="1.712499">
        <ele>120.741301</ele>
        <time>2023-02-23T17:09:36.179Z</time>
      </trkpt>
      <trkpt lat="48.509859" lon="1.712220">
        <ele>120.046056</ele>
        <time>2023-02-23T17:09:38.035Z</time>
      </trkpt>
      <trkpt lat="48.509806" lon="1.712170">
        <ele>119.811244</ele>
        <time>2023-02-23T17:09:38.652Z</time>
      </trkpt>
      <trkpt lat="48.509501" lon="1.711291">
        <ele>117.527149</ele>
        <time>2023-02-23T17:09:45.750Z</time>
      </trkpt>
      <trkpt lat="48.509302" lon="1.710422">
        <ele>117.287624</ele>
        <time>2023-02-23T17:09:53.898Z</time>
      </trkpt>
      <trkpt lat="48.509238" lon="1.709967">
        <ele>117.166450</ele>
        <time>2023-02-23T17:09:58.504Z</time>
      </trkpt>
      <trkpt lat="48.509214" lon="1.709822">
        <ele>117.127515</ele>
        <time>2023-02-23T17:10:00.003Z</time>
      </trkpt>
      <trkpt lat="48.509167" lon="1.709488">
        <ele>117.038564</ele>
        <time>2023-02-23T17:10:03.409Z</time>
      </trkpt>
      <trkpt lat="48.509155" lon="1.708925">
        <ele>116.891821</ele>
        <time>2023-02-23T17:10:09.034Z</time>
      </trkpt>
      <trkpt lat="48.509217" lon="1.708675">
        <ele>116.847510</ele>
        <time>2023-02-23T17:10:11.791Z</time>
      </trkpt>
      <trkpt lat="48.509273" lon="1.708448">
        <ele>116.866888</ele>
        <time>2023-02-23T17:10:14.162Z</time>
      </trkpt>
      <trkpt lat="48.509405" lon="1.708138">
        <ele>116.896366</ele>
        <time>2023-02-23T17:10:17.914Z</time>
      </trkpt>
      <trkpt lat="48.509508" lon="1.707922">
        <ele>116.917656</ele>
        <time>2023-02-23T17:10:20.604Z</time>
      </trkpt>
      <trkpt lat="48.509806" lon="1.707514">
        <ele>116.966236</ele>
        <time>2023-02-23T17:10:27.457Z</time>
      </trkpt>
      <trkpt lat="48.510190" lon="1.707096">
        <ele>117.023402</ele>
        <time>2023-02-23T17:10:34.813Z</time>
      </trkpt>
      <trkpt lat="48.510517" lon="1.706678">
        <ele>117.017695</ele>
        <time>2023-02-23T17:10:40.690Z</time>
      </trkpt>
      <trkpt lat="48.510844" lon="1.706163">
        <ele>116.874596</ele>
        <time>2023-02-23T17:10:47.287Z</time>
      </trkpt>
      <trkpt lat="48.510874" lon="1.706096">
        <ele>116.858374</ele>
        <time>2023-02-23T17:10:48.325Z</time>
      </trkpt>
      <trkpt lat="48.511356" lon="1.704945">
        <ele>116.585220</ele>
        <time>2023-02-23T17:11:05.318Z</time>
      </trkpt>
      <trkpt lat="48.511494" lon="1.704435">
        <ele>116.564165</ele>
        <time>2023-02-23T17:11:12.136Z</time>
      </trkpt>
      <trkpt lat="48.511654" lon="1.703271">
        <ele>116.866885</ele>
        <time>2023-02-23T17:11:27.658Z</time>
      </trkpt>
      <trkpt lat="48.511651" lon="1.702381">
        <ele>117.093522</ele>
        <time>2023-02-23T17:11:41.469Z</time>
      </trkpt>
      <trkpt lat="48.511621" lon="1.702118">
        <ele>117.161479</ele>
        <time>2023-02-23T17:11:45.521Z</time>
      </trkpt>
      <trkpt lat="48.511629" lon="1.701495">
        <ele>117.971010</ele>
        <time>2023-02-23T17:11:55.887Z</time>
      </trkpt>
      <trkpt lat="48.511658" lon="1.701388">
        <ele>118.167575</ele>
        <time>2023-02-23T17:11:58.163Z</time>
      </trkpt>
      <trkpt lat="48.511092" lon="1.701176">
        <ele>119.664297</ele>
        <time>2023-02-23T17:12:14.534Z</time>
      </trkpt>
      <trkpt lat="48.510268" lon="1.700868">
        <ele>121.845616</ele>
        <time>2023-02-23T17:12:44.541Z</time>
      </trkpt>
      <trkpt lat="48.510211" lon="1.700455">
        <ele>122.651012</ele>
        <time>2023-02-23T17:12:54.151Z</time>
      </trkpt>
      <trkpt lat="48.510148" lon="1.700315">
        <ele>122.974119</ele>
        <time>2023-02-23T17:12:58.380Z</time>
      </trkpt>
      <trkpt lat="48.509963" lon="1.700170">
        <ele>123.574829</ele>
        <time>2023-02-23T17:13:05.070Z</time>
      </trkpt>
      <trkpt lat="48.509577" lon="1.700142">
        <ele>124.688470</ele>
        <time>2023-02-23T17:13:17.769Z</time>
      </trkpt>
      <trkpt lat="48.509566" lon="1.700040">
        <ele>124.885766</ele>
        <time>2023-02-23T17:13:20.121Z</time>
      </trkpt>
      <trkpt lat="48.509305" lon="1.699463">
        <ele>126.219630</ele>
        <time>2023-02-23T17:13:31.885Z</time>
      </trkpt>
      <trkpt lat="48.509291" lon="1.699388">
        <ele>126.368392</ele>
        <time>2023-02-23T17:13:33.248Z</time>
      </trkpt>
      <trkpt lat="48.509318" lon="1.699091">
        <ele>126.940725</ele>
        <time>2023-02-23T17:13:37.656Z</time>
      </trkpt>
      <trkpt lat="48.509419" lon="1.698811">
        <ele>127.329440</ele>
        <time>2023-02-23T17:13:41.587Z</time>
      </trkpt>
      <trkpt lat="48.509622" lon="1.698371">
        <ele>127.939454</ele>
        <time>2023-02-23T17:13:47.623Z</time>
      </trkpt>
      <trkpt lat="48.510084" lon="1.697609">
        <ele>129.114623</ele>
        <time>2023-02-23T17:14:01.522Z</time>
      </trkpt>
      <trkpt lat="48.510550" lon="1.696703">
        <ele>130.824973</ele>
        <time>2023-02-23T17:14:19.280Z</time>
      </trkpt>
      <trkpt lat="48.510290" lon="1.696274">
        <ele>132.309900</ele>
        <time>2023-02-23T17:14:32.023Z</time>
      </trkpt>
      <trkpt lat="48.509981" lon="1.695686">
        <ele>134.226686</ele>
        <time>2023-02-23T17:14:50.296Z</time>
      </trkpt>
      <trkpt lat="48.508868" lon="1.694620">
        <ele>139.137875</ele>
        <time>2023-02-23T17:15:42.153Z</time>
      </trkpt>
      <trkpt lat="48.507420" lon="1.693108">
        <ele>145.578688</ele>
        <time>2023-02-23T17:16:38.284Z</time>
      </trkpt>
      <trkpt lat="48.505097" lon="1.690686">
        <ele>156.467625</ele>
        <time>2023-02-23T17:18:24.154Z</time>
      </trkpt>
      <trkpt lat="48.504813" lon="1.690105">
        <ele>157.539999</ele>
        <time>2023-02-23T17:18:38.581Z</time>
      </trkpt>
      <trkpt lat="48.504102" lon="1.688594">
        <ele>158.599484</ele>
        <time>2023-02-23T17:19:07.039Z</time>
      </trkpt>
      <trkpt lat="48.503384" lon="1.687500">
        <ele>158.271429</ele>
        <time>2023-02-23T17:19:25.110Z</time>
      </trkpt>
      <trkpt lat="48.502702" lon="1.686695">
        <ele>157.539968</ele>
        <time>2023-02-23T17:19:40.272Z</time>
      </trkpt>
      <trkpt lat="48.502531" lon="1.686471">
        <ele>157.348349</ele>
        <time>2023-02-23T17:19:44.178Z</time>
      </trkpt>
      <trkpt lat="48.502446" lon="1.686359">
        <ele>157.222498</ele>
        <time>2023-02-23T17:19:46.123Z</time>
      </trkpt>
      <trkpt lat="48.502176" lon="1.685930">
        <ele>156.785236</ele>
        <time>2023-02-23T17:19:52.824Z</time>
      </trkpt>
      <trkpt lat="48.501962" lon="1.685436">
        <ele>156.349062</ele>
        <time>2023-02-23T17:19:59.596Z</time>
      </trkpt>
      <trkpt lat="48.501834" lon="1.684546">
        <ele>155.676020</ele>
        <time>2023-02-23T17:20:10.254Z</time>
      </trkpt>
      <trkpt lat="48.501692" lon="1.683741">
        <ele>154.824746</ele>
        <time>2023-02-23T17:20:19.315Z</time>
      </trkpt>
      <trkpt lat="48.501721" lon="1.682829">
        <ele>153.588544</ele>
        <time>2023-02-23T17:20:28.907Z</time>
      </trkpt>
      <trkpt lat="48.502019" lon="1.680726">
        <ele>150.543146</ele>
        <time>2023-02-23T17:20:50.727Z</time>
      </trkpt>
      <trkpt lat="48.502019" lon="1.680720">
        <ele>150.533927</ele>
        <time>2023-02-23T17:20:50.781Z</time>
      </trkpt>
      <trkpt lat="48.502019" lon="1.680720">
        <ele>150.533927</ele>
        <time>2023-02-23T17:20:50.811Z</time>
      </trkpt>
      <trkpt lat="48.502019" lon="1.680720">
        <ele>150.533927</ele>
        <time>2023-02-23T17:20:50.811Z</time>
      </trkpt>
      <trkpt lat="48.502010" lon="1.680720">
        <ele>150.513057</ele>
        <time>2023-02-23T17:20:50.977Z</time>
      </trkpt>
      <trkpt lat="48.502010" lon="1.680380">
        <ele>149.990641</ele>
        <time>2023-02-23T17:20:55.154Z</time>
      </trkpt>
      <trkpt lat="48.501970" lon="1.679940">
        <ele>149.308239</ele>
        <time>2023-02-23T17:21:00.609Z</time>
      </trkpt>
      <trkpt lat="48.501860" lon="1.679230">
        <ele>148.187884</ele>
        <time>2023-02-23T17:21:09.565Z</time>
      </trkpt>
      <trkpt lat="48.501610" lon="1.678580">
        <ele>147.115981</ele>
        <time>2023-02-23T17:21:18.795Z</time>
      </trkpt>
      <trkpt lat="48.501510" lon="1.678100">
        <ele>146.480901</ele>
        <time>2023-02-23T17:21:24.975Z</time>
      </trkpt>
      <trkpt lat="48.501570" lon="1.677550">
        <ele>145.777365</ele>
        <time>2023-02-23T17:21:31.821Z</time>
      </trkpt>
      <trkpt lat="48.501660" lon="1.677000">
        <ele>145.062319</ele>
        <time>2023-02-23T17:21:38.779Z</time>
      </trkpt>
      <trkpt lat="48.501500" lon="1.676210">
        <ele>144.040731</ele>
        <time>2023-02-23T17:21:48.924Z</time>
      </trkpt>
      <trkpt lat="48.501390" lon="1.675210">
        <ele>143.284389</ele>
        <time>2023-02-23T17:22:01.373Z</time>
      </trkpt>
      <trkpt lat="48.501395" lon="1.675211">
        <ele>143.278709</ele>
        <time>2023-02-23T17:22:01.469Z</time>
      </trkpt>
      <trkpt lat="48.501390" lon="1.675274">
        <ele>143.231367</ele>
        <time>2023-02-23T17:22:02.197Z</time>
      </trkpt>
      <trkpt lat="48.501504" lon="1.676218">
        <ele>142.515417</ele>
        <time>2023-02-23T17:22:13.541Z</time>
      </trkpt>
      <trkpt lat="48.501390" lon="1.675274">
        <ele>142.013984</ele>
        <time>2023-02-23T17:22:24.900Z</time>
      </trkpt>
      <trkpt lat="48.501395" lon="1.675211">
        <ele>142.007870</ele>
        <time>2023-02-23T17:22:25.811Z</time>
      </trkpt>
      <trkpt lat="48.501418" lon="1.674888">
        <ele>141.976564</ele>
        <time>2023-02-23T17:22:29.629Z</time>
      </trkpt>
      <trkpt lat="48.501504" lon="1.674480">
        <ele>141.935306</ele>
        <time>2023-02-23T17:22:35.677Z</time>
      </trkpt>
      <trkpt lat="48.501703" lon="1.674212">
        <ele>141.896516</ele>
        <time>2023-02-23T17:22:41.170Z</time>
      </trkpt>
      <trkpt lat="48.502357" lon="1.673719">
        <ele>141.790197</ele>
        <time>2023-02-23T17:22:55.805Z</time>
      </trkpt>
      <trkpt lat="48.502442" lon="1.673547">
        <ele>141.787419</ele>
        <time>2023-02-23T17:22:58.794Z</time>
      </trkpt>
      <trkpt lat="48.502414" lon="1.673343">
        <ele>141.791801</ele>
        <time>2023-02-23T17:23:01.701Z</time>
      </trkpt>
      <trkpt lat="48.501916" lon="1.672656">
        <ele>141.813220</ele>
        <time>2023-02-23T17:23:15.692Z</time>
      </trkpt>
      <trkpt lat="48.501774" lon="1.672292">
        <ele>141.822105</ele>
        <time>2023-02-23T17:23:21.643Z</time>
      </trkpt>
      <trkpt lat="48.501774" lon="1.671916">
        <ele>141.830014</ele>
        <time>2023-02-23T17:23:26.785Z</time>
      </trkpt>
      <trkpt lat="48.501957" lon="1.671077">
        <ele>141.746008</ele>
        <time>2023-02-23T17:23:38.140Z</time>
      </trkpt>
      <trkpt lat="48.501821" lon="1.671015">
        <ele>141.686983</ele>
        <time>2023-02-23T17:23:40.184Z</time>
      </trkpt>
      <trkpt lat="48.501359" lon="1.670575">
        <ele>141.460015</ele>
        <time>2023-02-23T17:23:47.519Z</time>
      </trkpt>
      <trkpt lat="48.501328" lon="1.670544">
        <ele>141.444565</ele>
        <time>2023-02-23T17:23:48.001Z</time>
      </trkpt>
      <trkpt lat="48.500797" lon="1.669974">
        <ele>141.173840</ele>
        <time>2023-02-23T17:23:56.514Z</time>
      </trkpt>
      <trkpt lat="48.500214" lon="1.669491">
        <ele>140.979863</ele>
        <time>2023-02-23T17:24:05.150Z</time>
      </trkpt>
      <trkpt lat="48.499440" lon="1.668751">
        <ele>140.758690</ele>
        <time>2023-02-23T17:24:17.491Z</time>
      </trkpt>
      <trkpt lat="48.498863" lon="1.668081">
        <ele>141.043953</ele>
        <time>2023-02-23T17:24:29.140Z</time>
      </trkpt>
      <trkpt lat="48.494854" lon="1.663580">
        <ele>147.105730</ele>
        <time>2023-02-23T17:26:09.978Z</time>
      </trkpt>
      <trkpt lat="48.493944" lon="1.662378">
        <ele>147.772389</ele>
        <time>2023-02-23T17:26:30.917Z</time>
      </trkpt>
      <trkpt lat="48.493617" lon="1.661863">
        <ele>148.010141</ele>
        <time>2023-02-23T17:26:38.209Z</time>
      </trkpt>
      <trkpt lat="48.493192" lon="1.660997">
        <ele>148.298668</ele>
        <time>2023-02-23T17:26:48.986Z</time>
      </trkpt>
      <trkpt lat="48.493054" lon="1.660691">
        <ele>148.388516</ele>
        <time>2023-02-23T17:26:52.805Z</time>
      </trkpt>
      <trkpt lat="48.492593" lon="1.659674">
        <ele>148.687615</ele>
        <time>2023-02-23T17:27:06.530Z</time>
      </trkpt>
      <trkpt lat="48.492361" lon="1.658894">
        <ele>148.902371</ele>
        <time>2023-02-23T17:27:16.464Z</time>
      </trkpt>
      <trkpt lat="48.492094" lon="1.657534">
        <ele>149.266248</ele>
        <time>2023-02-23T17:27:32.408Z</time>
      </trkpt>
      <trkpt lat="48.491992" lon="1.657162">
        <ele>149.369525</ele>
        <time>2023-02-23T17:27:36.794Z</time>
      </trkpt>
      <trkpt lat="48.491842" lon="1.656986">
        <ele>149.443078</ele>
        <time>2023-02-23T17:27:39.592Z</time>
      </trkpt>
      <trkpt lat="48.491898" lon="1.656525">
        <ele>149.273704</ele>
        <time>2023-02-23T17:27:44.094Z</time>
      </trkpt>
      <trkpt lat="48.491888" lon="1.655085">
        <ele>148.561996</ele>
        <time>2023-02-23T17:27:56.355Z</time>
      </trkpt>
      <trkpt lat="48.491961" lon="1.654088">
        <ele>148.033500</ele>
        <time>2023-02-23T17:28:04.110Z</time>
      </trkpt>
      <trkpt lat="48.491968" lon="1.654047">
        <ele>148.000502</ele>
        <time>2023-02-23T17:28:04.460Z</time>
      </trkpt>
      <trkpt lat="48.492152" lon="1.653113">
        <ele>147.241061</ele>
        <time>2023-02-23T17:28:12.118Z</time>
      </trkpt>
      <trkpt lat="48.492294" lon="1.652597">
        <ele>146.805598</ele>
        <time>2023-02-23T17:28:16.473Z</time>
      </trkpt>
      <trkpt lat="48.492278" lon="1.652146">
        <ele>146.453588</ele>
        <time>2023-02-23T17:28:20.003Z</time>
      </trkpt>
      <trkpt lat="48.492233" lon="1.651791">
        <ele>146.171886</ele>
        <time>2023-02-23T17:28:22.897Z</time>
      </trkpt>
      <trkpt lat="48.491315" lon="1.648469">
        <ele>144.317316</ele>
        <time>2023-02-23T17:28:52.567Z</time>
      </trkpt>
      <trkpt lat="48.490965" lon="1.647674">
        <ele>144.151273</ele>
        <time>2023-02-23T17:29:01.884Z</time>
      </trkpt>
      <trkpt lat="48.490133" lon="1.646814">
        <ele>143.959943</ele>
        <time>2023-02-23T17:29:17.026Z</time>
      </trkpt>
      <trkpt lat="48.490074" lon="1.646753">
        <ele>143.959304</ele>
        <time>2023-02-23T17:29:18.207Z</time>
      </trkpt>
      <trkpt lat="48.489878" lon="1.646397">
        <ele>143.956565</ele>
        <time>2023-02-23T17:29:22.731Z</time>
      </trkpt>
      <trkpt lat="48.489333" lon="1.643847">
        <ele>144.177515</ele>
        <time>2023-02-23T17:29:48.757Z</time>
      </trkpt>
      <trkpt lat="48.489171" lon="1.642381">
        <ele>144.530459</ele>
        <time>2023-02-23T17:30:05.332Z</time>
      </trkpt>
      <trkpt lat="48.489164" lon="1.640404">
        <ele>145.269828</ele>
        <time>2023-02-23T17:30:28.827Z</time>
      </trkpt>
      <trkpt lat="48.489152" lon="1.639749">
        <ele>145.528104</ele>
        <time>2023-02-23T17:30:36.150Z</time>
      </trkpt>
      <trkpt lat="48.489107" lon="1.639123">
        <ele>145.643847</ele>
        <time>2023-02-23T17:30:42.834Z</time>
      </trkpt>
      <trkpt lat="48.488597" lon="1.635090">
        <ele>145.227415</ele>
        <time>2023-02-23T17:31:21.246Z</time>
      </trkpt>
      <trkpt lat="48.488475" lon="1.634357">
        <ele>145.102828</ele>
        <time>2023-02-23T17:31:28.112Z</time>
      </trkpt>
      <trkpt lat="48.488359" lon="1.633790">
        <ele>145.059076</ele>
        <time>2023-02-23T17:31:33.486Z</time>
      </trkpt>
      <trkpt lat="48.488177" lon="1.633087">
        <ele>145.061931</ele>
        <time>2023-02-23T17:31:40.436Z</time>
      </trkpt>
      <trkpt lat="48.487807" lon="1.631845">
        <ele>145.067082</ele>
        <time>2023-02-23T17:31:54.245Z</time>
      </trkpt>
      <trkpt lat="48.487667" lon="1.631448">
        <ele>145.164280</ele>
        <time>2023-02-23T17:31:59.072Z</time>
      </trkpt>
      <trkpt lat="48.487192" lon="1.630281">
        <ele>145.925633</ele>
        <time>2023-02-23T17:32:15.162Z</time>
      </trkpt>
      <trkpt lat="48.486598" lon="1.628369">
        <ele>147.013834</ele>
        <time>2023-02-23T17:32:42.188Z</time>
      </trkpt>
      <trkpt lat="48.486494" lon="1.627858">
        <ele>147.262272</ele>
        <time>2023-02-23T17:32:48.480Z</time>
      </trkpt>
      <trkpt lat="48.486367" lon="1.626881">
        <ele>147.724997</ele>
        <time>2023-02-23T17:32:59.696Z</time>
      </trkpt>
      <trkpt lat="48.486291" lon="1.625709">
        <ele>147.742625</ele>
        <time>2023-02-23T17:33:11.571Z</time>
      </trkpt>
      <trkpt lat="48.486243" lon="1.624833">
        <ele>147.652849</ele>
        <time>2023-02-23T17:33:19.691Z</time>
      </trkpt>
      <trkpt lat="48.486213" lon="1.624427">
        <ele>147.611125</ele>
        <time>2023-02-23T17:33:23.257Z</time>
      </trkpt>
      <trkpt lat="48.486075" lon="1.623447">
        <ele>147.537106</ele>
        <time>2023-02-23T17:33:32.165Z</time>
      </trkpt>
      <trkpt lat="48.485948" lon="1.622324">
        <ele>147.483983</ele>
        <time>2023-02-23T17:33:42.730Z</time>
      </trkpt>
      <trkpt lat="48.485906" lon="1.621518">
        <ele>147.446282</ele>
        <time>2023-02-23T17:33:50.950Z</time>
      </trkpt>
      <trkpt lat="48.485837" lon="1.620767">
        <ele>147.665652</ele>
        <time>2023-02-23T17:33:59.199Z</time>
      </trkpt>
      <trkpt lat="48.485487" lon="1.619019">
        <ele>148.506664</ele>
        <time>2023-02-23T17:34:20.983Z</time>
      </trkpt>
      <trkpt lat="48.485291" lon="1.617383">
        <ele>149.496902</ele>
        <time>2023-02-23T17:34:41.592Z</time>
      </trkpt>
      <trkpt lat="48.485218" lon="1.616603">
        <ele>149.998212</ele>
        <time>2023-02-23T17:34:51.089Z</time>
      </trkpt>
      <trkpt lat="48.485166" lon="1.615535">
        <ele>150.690833</ele>
        <time>2023-02-23T17:35:04.580Z</time>
      </trkpt>
      <trkpt lat="48.485121" lon="1.614768">
        <ele>151.201149</ele>
        <time>2023-02-23T17:35:14.658Z</time>
      </trkpt>
      <trkpt lat="48.484884" lon="1.612655">
        <ele>152.416279</ele>
        <time>2023-02-23T17:35:41.035Z</time>
      </trkpt>
      <trkpt lat="48.484716" lon="1.611626">
        <ele>152.768748</ele>
        <time>2023-02-23T17:35:53.225Z</time>
      </trkpt>
      <trkpt lat="48.484619" lon="1.611171">
        <ele>152.927713</ele>
        <time>2023-02-23T17:35:58.298Z</time>
      </trkpt>
      <trkpt lat="48.484234" lon="1.610204">
        <ele>153.043438</ele>
        <time>2023-02-23T17:36:09.190Z</time>
      </trkpt>
      <trkpt lat="48.484165" lon="1.609898">
        <ele>153.004726</ele>
        <time>2023-02-23T17:36:12.236Z</time>
      </trkpt>
      <trkpt lat="48.484158" lon="1.609429">
        <ele>152.948540</ele>
        <time>2023-02-23T17:36:16.691Z</time>
      </trkpt>
      <trkpt lat="48.484312" lon="1.606272">
        <ele>152.105477</ele>
        <time>2023-02-23T17:36:45.940Z</time>
      </trkpt>
      <trkpt lat="48.484426" lon="1.604809">
        <ele>151.199403</ele>
        <time>2023-02-23T17:36:57.705Z</time>
      </trkpt>
      <trkpt lat="48.484632" lon="1.602352">
        <ele>148.770519</ele>
        <time>2023-02-23T17:37:16.286Z</time>
      </trkpt>
      <trkpt lat="48.484801" lon="1.600659">
        <ele>147.165614</ele>
        <time>2023-02-23T17:37:29.323Z</time>
      </trkpt>
      <trkpt lat="48.484828" lon="1.600183">
        <ele>146.717785</ele>
        <time>2023-02-23T17:37:33.082Z</time>
      </trkpt>
      <trkpt lat="48.484831" lon="1.599711">
        <ele>146.357641</ele>
        <time>2023-02-23T17:37:36.870Z</time>
      </trkpt>
      <trkpt lat="48.484722" lon="1.597712">
        <ele>145.049800</ele>
        <time>2023-02-23T17:37:53.246Z</time>
      </trkpt>
      <trkpt lat="48.484727" lon="1.595943">
        <ele>144.169033</ele>
        <time>2023-02-23T17:38:07.989Z</time>
      </trkpt>
      <trkpt lat="48.484752" lon="1.594858">
        <ele>143.680505</ele>
        <time>2023-02-23T17:38:17.325Z</time>
      </trkpt>
      <trkpt lat="48.484884" lon="1.593704">
        <ele>143.306328</ele>
        <time>2023-02-23T17:38:27.824Z</time>
      </trkpt>
      <trkpt lat="48.484940" lon="1.592671">
        <ele>143.017317</ele>
        <time>2023-02-23T17:38:37.292Z</time>
      </trkpt>
      <trkpt lat="48.484961" lon="1.591946">
        <ele>142.814959</ele>
        <time>2023-02-23T17:38:43.842Z</time>
      </trkpt>
      <trkpt lat="48.484950" lon="1.591115">
        <ele>142.388589</ele>
        <time>2023-02-23T17:38:50.866Z</time>
      </trkpt>
      <trkpt lat="48.484907" lon="1.590768">
        <ele>142.201215</ele>
        <time>2023-02-23T17:38:53.824Z</time>
      </trkpt>
      <trkpt lat="48.484898" lon="1.590333">
        <ele>141.970211</ele>
        <time>2023-02-23T17:38:57.411Z</time>
      </trkpt>
      <trkpt lat="48.484907" lon="1.589289">
        <ele>141.416023</ele>
        <time>2023-02-23T17:39:05.923Z</time>
      </trkpt>
      <trkpt lat="48.484964" lon="1.589067">
        <ele>141.333208</ele>
        <time>2023-02-23T17:39:07.893Z</time>
      </trkpt>
      <trkpt lat="48.484974" lon="1.588879">
        <ele>141.296689</ele>
        <time>2023-02-23T17:39:09.375Z</time>
      </trkpt>
      <trkpt lat="48.484933" lon="1.588152">
        <ele>141.155416</ele>
        <time>2023-02-23T17:39:15.460Z</time>
      </trkpt>
      <trkpt lat="48.484897" lon="1.586362">
        <ele>140.859960</ele>
        <time>2023-02-23T17:39:32.782Z</time>
      </trkpt>
      <trkpt lat="48.484983" lon="1.586143">
        <ele>140.915469</ele>
        <time>2023-02-23T17:39:35.697Z</time>
      </trkpt>
      <trkpt lat="48.485199" lon="1.585730">
        <ele>141.030189</ele>
        <time>2023-02-23T17:39:42.048Z</time>
      </trkpt>
      <trkpt lat="48.485460" lon="1.585311">
        <ele>141.155574</ele>
        <time>2023-02-23T17:39:48.694Z</time>
      </trkpt>
      <trkpt lat="48.485867" lon="1.584963">
        <ele>141.309483</ele>
        <time>2023-02-23T17:39:55.935Z</time>
      </trkpt>
      <trkpt lat="48.486206" lon="1.584572">
        <ele>141.422983</ele>
        <time>2023-02-23T17:40:02.462Z</time>
      </trkpt>
      <trkpt lat="48.486289" lon="1.584501">
        <ele>141.421056</ele>
        <time>2023-02-23T17:40:04.019Z</time>
      </trkpt>
      <trkpt lat="48.486351" lon="1.584491">
        <ele>141.419797</ele>
        <time>2023-02-23T17:40:05.004Z</time>
      </trkpt>
      <trkpt lat="48.486449" lon="1.583484">
        <ele>141.406178</ele>
        <time>2023-02-23T17:40:15.164Z</time>
      </trkpt>
      <trkpt lat="48.486445" lon="1.583352">
        <ele>141.404409</ele>
        <time>2023-02-23T17:40:16.249Z</time>
      </trkpt>
      <trkpt lat="48.486392" lon="1.583170">
        <ele>141.401749</ele>
        <time>2023-02-23T17:40:18.199Z</time>
      </trkpt>
      <trkpt lat="48.486584" lon="1.582939">
        <ele>141.396791</ele>
        <time>2023-02-23T17:40:21.531Z</time>
      </trkpt>
      <trkpt lat="48.486824" lon="1.582566">
        <ele>141.389835</ele>
        <time>2023-02-23T17:40:26.543Z</time>
      </trkpt>
      <trkpt lat="48.487553" lon="1.581359">
        <ele>141.719649</ele>
        <time>2023-02-23T17:40:43.302Z</time>
      </trkpt>
      <trkpt lat="48.487692" lon="1.581069">
        <ele>141.798068</ele>
        <time>2023-02-23T17:40:47.618Z</time>
      </trkpt>
      <trkpt lat="48.487742" lon="1.580817">
        <ele>141.855706</ele>
        <time>2023-02-23T17:40:50.728Z</time>
      </trkpt>
      <trkpt lat="48.487811" lon="1.580112">
        <ele>141.978439</ele>
        <time>2023-02-23T17:40:58.724Z</time>
      </trkpt>
      <trkpt lat="48.487803" lon="1.579830">
        <ele>141.969025</ele>
        <time>2023-02-23T17:41:01.771Z</time>
      </trkpt>
      <trkpt lat="48.487712" lon="1.579472">
        <ele>141.956236</ele>
        <time>2023-02-23T17:41:05.918Z</time>
      </trkpt>
      <trkpt lat="48.487611" lon="1.579190">
        <ele>141.945546</ele>
        <time>2023-02-23T17:41:09.346Z</time>
      </trkpt>
      <trkpt lat="48.487591" lon="1.578767">
        <ele>141.931402</ele>
        <time>2023-02-23T17:41:13.702Z</time>
      </trkpt>
      <trkpt lat="48.487671" lon="1.577839">
        <ele>141.900190</ele>
        <time>2023-02-23T17:41:22.155Z</time>
      </trkpt>
      <trkpt lat="48.487665" lon="1.577311">
        <ele>141.652251</ele>
        <time>2023-02-23T17:41:26.504Z</time>
      </trkpt>
      <trkpt lat="48.487619" lon="1.577065">
        <ele>141.442647</ele>
        <time>2023-02-23T17:41:28.569Z</time>
      </trkpt>
      <trkpt lat="48.487439" lon="1.576497">
        <ele>140.926360</ele>
        <time>2023-02-23T17:41:33.547Z</time>
      </trkpt>
      <trkpt lat="48.487404" lon="1.576312">
        <ele>140.768593</ele>
        <time>2023-02-23T17:41:35.079Z</time>
      </trkpt>
      <trkpt lat="48.487403" lon="1.576223">
        <ele>140.695598</ele>
        <time>2023-02-23T17:41:35.804Z</time>
      </trkpt>
      <trkpt lat="48.487431" lon="1.576131">
        <ele>140.612581</ele>
        <time>2023-02-23T17:41:36.551Z</time>
      </trkpt>
      <trkpt lat="48.487502" lon="1.576035">
        <ele>140.494622</ele>
        <time>2023-02-23T17:41:37.669Z</time>
      </trkpt>
      <trkpt lat="48.487687" lon="1.575918">
        <ele>140.246432</ele>
        <time>2023-02-23T17:41:40.045Z</time>
      </trkpt>
      <trkpt lat="48.487801" lon="1.575831">
        <ele>140.088367</ele>
        <time>2023-02-23T17:41:41.490Z</time>
      </trkpt>
      <trkpt lat="48.487860" lon="1.575682">
        <ele>139.946036</ele>
        <time>2023-02-23T17:41:42.812Z</time>
      </trkpt>
      <trkpt lat="48.487954" lon="1.574952">
        <ele>139.295051</ele>
        <time>2023-02-23T17:41:48.395Z</time>
      </trkpt>
      <trkpt lat="48.488100" lon="1.574167">
        <ele>138.543235</ele>
        <time>2023-02-23T17:41:54.390Z</time>
      </trkpt>
      <trkpt lat="48.488434" lon="1.572898">
        <ele>137.284194</ele>
        <time>2023-02-23T17:42:05.150Z</time>
      </trkpt>
      <trkpt lat="48.488609" lon="1.572126">
        <ele>137.190733</ele>
        <time>2023-02-23T17:42:12.064Z</time>
      </trkpt>
      <trkpt lat="48.488793" lon="1.571574">
        <ele>137.214337</ele>
        <time>2023-02-23T17:42:17.469Z</time>
      </trkpt>
      <trkpt lat="48.489663" lon="1.569849">
        <ele>138.083293</ele>
        <time>2023-02-23T17:42:43.178Z</time>
      </trkpt>
      <trkpt lat="48.490243" lon="1.568499">
        <ele>139.813697</ele>
        <time>2023-02-23T17:43:07.241Z</time>
      </trkpt>
      <trkpt lat="48.490605" lon="1.567066">
        <ele>141.735754</ele>
        <time>2023-02-23T17:43:30.831Z</time>
      </trkpt>
      <trkpt lat="48.490819" lon="1.565802">
        <ele>143.438699</ele>
        <time>2023-02-23T17:43:50.245Z</time>
      </trkpt>
      <trkpt lat="48.490969" lon="1.564638">
        <ele>144.712288</ele>
        <time>2023-02-23T17:44:07.410Z</time>
      </trkpt>
      <trkpt lat="48.491080" lon="1.563577">
        <ele>145.808397</ele>
        <time>2023-02-23T17:44:22.434Z</time>
      </trkpt>
      <trkpt lat="48.491207" lon="1.561925">
        <ele>147.029746</ele>
        <time>2023-02-23T17:44:44.123Z</time>
      </trkpt>
      <trkpt lat="48.491356" lon="1.560987">
        <ele>147.548663</ele>
        <time>2023-02-23T17:44:54.979Z</time>
      </trkpt>
      <trkpt lat="48.491544" lon="1.560100">
        <ele>148.028239</ele>
        <time>2023-02-23T17:45:05.451Z</time>
      </trkpt>
      <trkpt lat="48.491605" lon="1.559914">
        <ele>148.113409</ele>
        <time>2023-02-23T17:45:07.776Z</time>
      </trkpt>
      <trkpt lat="48.491780" lon="1.559380">
        <ele>148.357895</ele>
        <time>2023-02-23T17:45:14.664Z</time>
      </trkpt>
      <trkpt lat="48.491867" lon="1.559211">
        <ele>148.445720</ele>
        <time>2023-02-23T17:45:17.194Z</time>
      </trkpt>
      <trkpt lat="48.492113" lon="1.558733">
        <ele>148.694096</ele>
        <time>2023-02-23T17:45:24.188Z</time>
      </trkpt>
      <trkpt lat="48.492235" lon="1.558665">
        <ele>148.774635</ele>
        <time>2023-02-23T17:45:26.335Z</time>
      </trkpt>
      <trkpt lat="48.492262" lon="1.558613">
        <ele>148.801746</ele>
        <time>2023-02-23T17:45:27.160Z</time>
      </trkpt>
      <trkpt lat="48.492611" lon="1.558234">
        <ele>149.068020</ele>
        <time>2023-02-23T17:45:34.839Z</time>
      </trkpt>
      <trkpt lat="48.492958" lon="1.557804">
        <ele>149.104487</ele>
        <time>2023-02-23T17:45:42.571Z</time>
      </trkpt>
      <trkpt lat="48.493601" lon="1.556935">
        <ele>149.165835</ele>
        <time>2023-02-23T17:45:56.307Z</time>
      </trkpt>
      <trkpt lat="48.493967" lon="1.556399">
        <ele>149.192690</ele>
        <time>2023-02-23T17:46:02.769Z</time>
      </trkpt>
      <trkpt lat="48.494407" lon="1.555681">
        <ele>148.840474</ele>
        <time>2023-02-23T17:46:11.123Z</time>
      </trkpt>
      <trkpt lat="48.494686" lon="1.555172">
        <ele>148.602570</ele>
        <time>2023-02-23T17:46:16.738Z</time>
      </trkpt>
      <trkpt lat="48.494723" lon="1.555075">
        <ele>148.562261</ele>
        <time>2023-02-23T17:46:17.634Z</time>
      </trkpt>
      <trkpt lat="48.494716" lon="1.554920">
        <ele>148.506307</ele>
        <time>2023-02-23T17:46:19.046Z</time>
      </trkpt>
      <trkpt lat="48.494613" lon="1.554507">
        <ele>148.347376</ele>
        <time>2023-02-23T17:46:22.948Z</time>
      </trkpt>
      <trkpt lat="48.494542" lon="1.553992">
        <ele>148.146452</ele>
        <time>2023-02-23T17:46:27.760Z</time>
      </trkpt>
      <trkpt lat="48.494485" lon="1.553338">
        <ele>147.867304</ele>
        <time>2023-02-23T17:46:33.824Z</time>
      </trkpt>
      <trkpt lat="48.494532" lon="1.552062">
        <ele>147.326484</ele>
        <time>2023-02-23T17:46:45.368Z</time>
      </trkpt>
      <trkpt lat="48.494542" lon="1.550427">
        <ele>146.022194</ele>
        <time>2023-02-23T17:46:57.892Z</time>
      </trkpt>
      <trkpt lat="48.494514" lon="1.549800">
        <ele>145.386425</ele>
        <time>2023-02-23T17:47:02.533Z</time>
      </trkpt>
      <trkpt lat="48.494407" lon="1.549140">
        <ele>144.699018</ele>
        <time>2023-02-23T17:47:07.575Z</time>
      </trkpt>
      <trkpt lat="48.494208" lon="1.548518">
        <ele>144.226551</ele>
        <time>2023-02-23T17:47:12.814Z</time>
      </trkpt>
      <trkpt lat="48.493768" lon="1.547516">
        <ele>143.847588</ele>
        <time>2023-02-23T17:47:22.639Z</time>
      </trkpt>
      <trkpt lat="48.493611" lon="1.547044">
        <ele>143.681085</ele>
        <time>2023-02-23T17:47:27.967Z</time>
      </trkpt>
      <trkpt lat="48.493270" lon="1.545505">
        <ele>143.992945</ele>
        <time>2023-02-23T17:47:46.432Z</time>
      </trkpt>
      <trkpt lat="48.492961" lon="1.543506">
        <ele>144.957881</ele>
        <time>2023-02-23T17:48:12.298Z</time>
      </trkpt>
      <trkpt lat="48.492798" lon="1.542873">
        <ele>145.005356</ele>
        <time>2023-02-23T17:48:19.990Z</time>
      </trkpt>
      <trkpt lat="48.492570" lon="1.542251">
        <ele>145.055047</ele>
        <time>2023-02-23T17:48:27.369Z</time>
      </trkpt>
      <trkpt lat="48.492290" lon="1.541356">
        <ele>145.124237</ele>
        <time>2023-02-23T17:48:36.124Z</time>
      </trkpt>
      <trkpt lat="48.492179" lon="1.541131">
        <ele>144.780239</ele>
        <time>2023-02-23T17:48:38.906Z</time>
      </trkpt>
      <trkpt lat="48.492069" lon="1.541002">
        <ele>144.487182</ele>
        <time>2023-02-23T17:48:40.396Z</time>
      </trkpt>
      <trkpt lat="48.491654" lon="1.540665">
        <ele>143.495818</ele>
        <time>2023-02-23T17:48:45.910Z</time>
      </trkpt>
      <trkpt lat="48.490918" lon="1.539984">
        <ele>141.679696</ele>
        <time>2023-02-23T17:48:54.959Z</time>
      </trkpt>
      <trkpt lat="48.490417" lon="1.539604">
        <ele>139.522339</ele>
        <time>2023-02-23T17:49:00.671Z</time>
      </trkpt>
      <trkpt lat="48.490094" lon="1.539362">
        <ele>137.883592</ele>
        <time>2023-02-23T17:49:04.097Z</time>
      </trkpt>
      <trkpt lat="48.489746" lon="1.538976">
        <ele>135.920912</ele>
        <time>2023-02-23T17:49:08.240Z</time>
      </trkpt>
      <trkpt lat="48.489419" lon="1.538440">
        <ele>133.726869</ele>
        <time>2023-02-23T17:49:12.786Z</time>
      </trkpt>
      <trkpt lat="48.489380" lon="1.538361">
        <ele>133.430196</ele>
        <time>2023-02-23T17:49:13.393Z</time>
      </trkpt>
      <trkpt lat="48.489370" lon="1.538254">
        <ele>133.087366</ele>
        <time>2023-02-23T17:49:14.023Z</time>
      </trkpt>
      <trkpt lat="48.489443" lon="1.537925">
        <ele>131.762323</ele>
        <time>2023-02-23T17:49:16.121Z</time>
      </trkpt>
      <trkpt lat="48.489439" lon="1.537753">
        <ele>131.105027</ele>
        <time>2023-02-23T17:49:17.137Z</time>
      </trkpt>
      <trkpt lat="48.488847" lon="1.536892">
        <ele>126.366833</ele>
        <time>2023-02-23T17:49:24.702Z</time>
      </trkpt>
      <trkpt lat="48.488804" lon="1.536740">
        <ele>125.735646</ele>
        <time>2023-02-23T17:49:25.666Z</time>
      </trkpt>
      <trkpt lat="48.488591" lon="1.536602">
        <ele>124.399864</ele>
        <time>2023-02-23T17:49:27.834Z</time>
      </trkpt>
      <trkpt lat="48.488502" lon="1.536441">
        <ele>123.599165</ele>
        <time>2023-02-23T17:49:29.070Z</time>
      </trkpt>
      <trkpt lat="48.488375" lon="1.536110">
        <ele>122.450635</ele>
        <time>2023-02-23T17:49:31.541Z</time>
      </trkpt>
      <trkpt lat="48.488337" lon="1.536002">
        <ele>122.202370</ele>
        <time>2023-02-23T17:49:32.278Z</time>
      </trkpt>
      <trkpt lat="48.488011" lon="1.535072">
        <ele>120.066282</ele>
        <time>2023-02-23T17:49:39.244Z</time>
      </trkpt>
      <trkpt lat="48.487709" lon="1.534284">
        <ele>118.218104</ele>
        <time>2023-02-23T17:49:45.549Z</time>
      </trkpt>
      <trkpt lat="48.487627" lon="1.533941">
        <ele>117.477757</ele>
        <time>2023-02-23T17:49:48.370Z</time>
      </trkpt>
      <trkpt lat="48.487612" lon="1.533444">
        <ele>117.180032</ele>
        <time>2023-02-23T17:49:52.491Z</time>
      </trkpt>
      <trkpt lat="48.487583" lon="1.533315">
        <ele>117.141628</ele>
        <time>2023-02-23T17:49:53.829Z</time>
      </trkpt>
      <trkpt lat="48.487521" lon="1.533090">
        <ele>117.072929</ele>
        <time>2023-02-23T17:49:55.811Z</time>
      </trkpt>
      <trkpt lat="48.487069" lon="1.532160">
        <ele>116.747790</ele>
        <time>2023-02-23T17:50:06.611Z</time>
      </trkpt>
      <trkpt lat="48.487008" lon="1.531727">
        <ele>116.622986</ele>
        <time>2023-02-23T17:50:10.790Z</time>
      </trkpt>
      <trkpt lat="48.486968" lon="1.531064">
        <ele>116.723978</ele>
        <time>2023-02-23T17:50:17.218Z</time>
      </trkpt>
      <trkpt lat="48.486930" lon="1.530235">
        <ele>117.205263</ele>
        <time>2023-02-23T17:50:26.955Z</time>
      </trkpt>
      <trkpt lat="48.486955" lon="1.530115">
        <ele>117.278116</ele>
        <time>2023-02-23T17:50:28.570Z</time>
      </trkpt>
      <trkpt lat="48.486787" lon="1.529577">
        <ele>117.622565</ele>
        <time>2023-02-23T17:50:36.554Z</time>
      </trkpt>
      <trkpt lat="48.486620" lon="1.529176">
        <ele>117.896859</ele>
        <time>2023-02-23T17:50:42.963Z</time>
      </trkpt>
      <trkpt lat="48.485726" lon="1.527576">
        <ele>119.167822</ele>
        <time>2023-02-23T17:51:09.569Z</time>
      </trkpt>
      <trkpt lat="48.485590" lon="1.527286">
        <ele>119.385612</ele>
        <time>2023-02-23T17:51:13.987Z</time>
      </trkpt>
      <trkpt lat="48.485506" lon="1.527024">
        <ele>119.564040</ele>
        <time>2023-02-23T17:51:17.169Z</time>
      </trkpt>
      <trkpt lat="48.485523" lon="1.526901">
        <ele>119.641069</ele>
        <time>2023-02-23T17:51:19.021Z</time>
      </trkpt>
      <trkpt lat="48.485615" lon="1.526933">
        <ele>119.728396</ele>
        <time>2023-02-23T17:51:20.428Z</time>
      </trkpt>
      <trkpt lat="48.485719" lon="1.526908">
        <ele>119.777470</ele>
        <time>2023-02-23T17:51:22.080Z</time>
      </trkpt>
      <trkpt lat="48.485998" lon="1.526787">
        <ele>119.831837</ele>
        <time>2023-02-23T17:51:26.960Z</time>
      </trkpt>
      <trkpt lat="48.486710" lon="1.526445">
        <ele>119.971773</ele>
        <time>2023-02-23T17:51:38.504Z</time>
      </trkpt>
      <trkpt lat="48.486969" lon="1.526362">
        <ele>120.021360</ele>
        <time>2023-02-23T17:51:42.696Z</time>
      </trkpt>
      <trkpt lat="48.487012" lon="1.526458">
        <ele>120.035742</ele>
        <time>2023-02-23T17:51:43.647Z</time>
      </trkpt>
      <trkpt lat="48.487087" lon="1.526479">
        <ele>120.050027</ele>
        <time>2023-02-23T17:51:44.752Z</time>
      </trkpt>
      <trkpt lat="48.487133" lon="1.526443">
        <ele>120.059732</ele>
        <time>2023-02-23T17:51:45.562Z</time>
      </trkpt>
      <trkpt lat="48.487165" lon="1.526324">
        <ele>120.075672</ele>
        <time>2023-02-23T17:51:46.789Z</time>
      </trkpt>
      <trkpt lat="48.487144" lon="1.526243">
        <ele>120.086468</ele>
        <time>2023-02-23T17:51:47.561Z</time>
      </trkpt>
      <trkpt lat="48.487097" lon="1.526192">
        <ele>120.097310</ele>
        <time>2023-02-23T17:51:48.291Z</time>
      </trkpt>
      <trkpt lat="48.487068" lon="1.525963">
        <ele>120.098885</ele>
        <time>2023-02-23T17:51:50.693Z</time>
      </trkpt>
      <trkpt lat="48.486668" lon="1.524677">
        <ele>120.075867</ele>
        <time>2023-02-23T17:52:04.582Z</time>
      </trkpt>
      <trkpt lat="48.486499" lon="1.523883">
        <ele>120.062354</ele>
        <time>2023-02-23T17:52:12.920Z</time>
      </trkpt>
      <trkpt lat="48.486460" lon="1.523568">
        <ele>120.059184</ele>
        <time>2023-02-23T17:52:15.954Z</time>
      </trkpt>
      <trkpt lat="48.486475" lon="1.523243">
        <ele>120.065621</ele>
        <time>2023-02-23T17:52:19.076Z</time>
      </trkpt>
      <trkpt lat="48.486557" lon="1.522840">
        <ele>120.073951</ele>
        <time>2023-02-23T17:52:23.118Z</time>
      </trkpt>
      <trkpt lat="48.486705" lon="1.522425">
        <ele>120.083263</ele>
        <time>2023-02-23T17:52:27.650Z</time>
      </trkpt>
      <trkpt lat="48.486883" lon="1.522021">
        <ele>120.092848</ele>
        <time>2023-02-23T17:52:32.339Z</time>
      </trkpt>
      <trkpt lat="48.486987" lon="1.521663">
        <ele>120.100572</ele>
        <time>2023-02-23T17:52:36.195Z</time>
      </trkpt>
      <trkpt lat="48.487072" lon="1.521192">
        <ele>120.110217</ele>
        <time>2023-02-23T17:52:41.202Z</time>
      </trkpt>
      <trkpt lat="48.487195" lon="1.520215">
        <ele>120.455826</ele>
        <time>2023-02-23T17:52:52.012Z</time>
      </trkpt>
      <trkpt lat="48.487278" lon="1.519814">
        <ele>120.613015</ele>
        <time>2023-02-23T17:52:56.773Z</time>
      </trkpt>
      <trkpt lat="48.487399" lon="1.519326">
        <ele>120.807969</ele>
        <time>2023-02-23T17:53:02.846Z</time>
      </trkpt>
      <trkpt lat="48.487923" lon="1.518026">
        <ele>121.262680</ele>
        <time>2023-02-23T17:53:21.102Z</time>
      </trkpt>
      <trkpt lat="48.488000" lon="1.517784">
        <ele>121.317112</ele>
        <time>2023-02-23T17:53:24.248Z</time>
      </trkpt>
      <trkpt lat="48.488251" lon="1.516326">
        <ele>121.622559</ele>
        <time>2023-02-23T17:53:40.228Z</time>
      </trkpt>
      <trkpt lat="48.488261" lon="1.515955">
        <ele>121.626435</ele>
        <time>2023-02-23T17:53:43.632Z</time>
      </trkpt>
      <trkpt lat="48.488219" lon="1.515757">
        <ele>121.521514</ele>
        <time>2023-02-23T17:53:45.402Z</time>
      </trkpt>
      <trkpt lat="48.487638" lon="1.514046">
        <ele>120.551256</ele>
        <time>2023-02-23T17:54:01.064Z</time>
      </trkpt>
      <trkpt lat="48.487609" lon="1.513860">
        <ele>120.454821</ele>
        <time>2023-02-23T17:54:02.583Z</time>
      </trkpt>
      <trkpt lat="48.487589" lon="1.513634">
        <ele>120.339749</ele>
        <time>2023-02-23T17:54:04.396Z</time>
      </trkpt>
      <trkpt lat="48.487609" lon="1.513186">
        <ele>120.256944</ele>
        <time>2023-02-23T17:54:08.129Z</time>
      </trkpt>
      <trkpt lat="48.487699" lon="1.511615">
        <ele>120.049157</ele>
        <time>2023-02-23T17:54:22.955Z</time>
      </trkpt>
      <trkpt lat="48.487764" lon="1.511042">
        <ele>119.972554</ele>
        <time>2023-02-23T17:54:29.237Z</time>
      </trkpt>
      <trkpt lat="48.487823" lon="1.510825">
        <ele>119.951994</ele>
        <time>2023-02-23T17:54:31.777Z</time>
      </trkpt>
      <trkpt lat="48.487949" lon="1.510509">
        <ele>119.962478</ele>
        <time>2023-02-23T17:54:35.503Z</time>
      </trkpt>
      <trkpt lat="48.488202" lon="1.510025">
        <ele>119.980003</ele>
        <time>2023-02-23T17:54:41.715Z</time>
      </trkpt>
      <trkpt lat="48.488356" lon="1.509691">
        <ele>119.991570</ele>
        <time>2023-02-23T17:54:45.709Z</time>
      </trkpt>
      <trkpt lat="48.488443" lon="1.509437">
        <ele>119.999699</ele>
        <time>2023-02-23T17:54:48.586Z</time>
      </trkpt>
      <trkpt lat="48.488529" lon="1.509118">
        <ele>120.009489</ele>
        <time>2023-02-23T17:54:52.115Z</time>
      </trkpt>
      <trkpt lat="48.488585" lon="1.508758">
        <ele>120.020002</ele>
        <time>2023-02-23T17:54:55.656Z</time>
      </trkpt>
      <trkpt lat="48.488599" lon="1.508398">
        <ele>120.021414</ele>
        <time>2023-02-23T17:54:59.120Z</time>
      </trkpt>
      <trkpt lat="48.488582" lon="1.508123">
        <ele>120.005684</ele>
        <time>2023-02-23T17:55:01.795Z</time>
      </trkpt>
      <trkpt lat="48.488499" lon="1.507759">
        <ele>119.983761</ele>
        <time>2023-02-23T17:55:05.202Z</time>
      </trkpt>
      <trkpt lat="48.488353" lon="1.507377">
        <ele>119.958647</ele>
        <time>2023-02-23T17:55:09.083Z</time>
      </trkpt>
      <trkpt lat="48.488190" lon="1.507109">
        <ele>119.937930</ele>
        <time>2023-02-23T17:55:12.447Z</time>
      </trkpt>
      <trkpt lat="48.487616" lon="1.506385">
        <ele>119.873641</ele>
        <time>2023-02-23T17:55:23.811Z</time>
      </trkpt>
      <trkpt lat="48.486223" lon="1.504532">
        <ele>120.476901</ele>
        <time>2023-02-23T17:55:54.566Z</time>
      </trkpt>
      <trkpt lat="48.485703" lon="1.503840">
        <ele>120.304652</ele>
        <time>2023-02-23T17:56:04.871Z</time>
      </trkpt>
      <trkpt lat="48.484067" lon="1.501892">
        <ele>119.646247</ele>
        <time>2023-02-23T17:56:32.387Z</time>
      </trkpt>
      <trkpt lat="48.483582" lon="1.501411">
        <ele>119.422564</ele>
        <time>2023-02-23T17:56:40.181Z</time>
      </trkpt>
      <trkpt lat="48.482750" lon="1.500893">
        <ele>119.585437</ele>
        <time>2023-02-23T17:56:53.420Z</time>
      </trkpt>
      <trkpt lat="48.482533" lon="1.500770">
        <ele>119.662812</ele>
        <time>2023-02-23T17:56:57.020Z</time>
      </trkpt>
      <trkpt lat="48.481636" lon="1.500262">
        <ele>120.047444</ele>
        <time>2023-02-23T17:57:13.958Z</time>
      </trkpt>
      <trkpt lat="48.481371" lon="1.500168">
        <ele>120.314631</ele>
        <time>2023-02-23T17:57:18.985Z</time>
      </trkpt>
      <trkpt lat="48.481006" lon="1.499461">
        <ele>120.897650</ele>
        <time>2023-02-23T17:57:30.067Z</time>
      </trkpt>
      <trkpt lat="48.480739" lon="1.499007">
        <ele>121.292516</ele>
        <time>2023-02-23T17:57:37.760Z</time>
      </trkpt>
      <trkpt lat="48.479607" lon="1.497079">
        <ele>123.150958</ele>
        <time>2023-02-23T17:58:10.811Z</time>
      </trkpt>
      <trkpt lat="48.479381" lon="1.496670">
        <ele>123.547894</ele>
        <time>2023-02-23T17:58:17.626Z</time>
      </trkpt>
      <trkpt lat="48.478954" lon="1.495800">
        <ele>124.201864</ele>
        <time>2023-02-23T17:58:31.234Z</time>
      </trkpt>
      <trkpt lat="48.478451" lon="1.495166">
        <ele>124.756363</ele>
        <time>2023-02-23T17:58:43.215Z</time>
      </trkpt>
      <trkpt lat="48.478009" lon="1.494770">
        <ele>125.191250</ele>
        <time>2023-02-23T17:58:52.395Z</time>
      </trkpt>
      <trkpt lat="48.477886" lon="1.494696">
        <ele>125.239053</ele>
        <time>2023-02-23T17:58:54.969Z</time>
      </trkpt>
      <trkpt lat="48.477337" lon="1.494434">
        <ele>125.021905</ele>
        <time>2023-02-23T17:59:04.316Z</time>
      </trkpt>
      <trkpt lat="48.476963" lon="1.494280">
        <ele>124.875706</ele>
        <time>2023-02-23T17:59:09.667Z</time>
      </trkpt>
      <trkpt lat="48.476517" lon="1.494104">
        <ele>124.701854</ele>
        <time>2023-02-23T17:59:15.541Z</time>
      </trkpt>
      <trkpt lat="48.476148" lon="1.493957">
        <ele>124.493971</ele>
        <time>2023-02-23T17:59:19.925Z</time>
      </trkpt>
      <trkpt lat="48.475719" lon="1.493784">
        <ele>123.853350</ele>
        <time>2023-02-23T17:59:24.958Z</time>
      </trkpt>
      <trkpt lat="48.475142" lon="1.493743">
        <ele>123.020032</ele>
        <time>2023-02-23T17:59:31.625Z</time>
      </trkpt>
      <trkpt lat="48.474960" lon="1.493663">
        <ele>122.746553</ele>
        <time>2023-02-23T17:59:33.760Z</time>
      </trkpt>
      <trkpt lat="48.474865" lon="1.493573">
        <ele>122.584716</ele>
        <time>2023-02-23T17:59:35.031Z</time>
      </trkpt>
      <trkpt lat="48.474716" lon="1.493358">
        <ele>122.287251</ele>
        <time>2023-02-23T17:59:37.361Z</time>
      </trkpt>
      <trkpt lat="48.474433" lon="1.492155">
        <ele>121.725398</ele>
        <time>2023-02-23T17:59:47.525Z</time>
      </trkpt>
      <trkpt lat="48.474288" lon="1.491523">
        <ele>121.544238</ele>
        <time>2023-02-23T17:59:53.602Z</time>
      </trkpt>
      <trkpt lat="48.474240" lon="1.491389">
        <ele>121.502980</ele>
        <time>2023-02-23T17:59:55.099Z</time>
      </trkpt>
      <trkpt lat="48.473968" lon="1.490448">
        <ele>121.286361</ele>
        <time>2023-02-23T18:00:06.175Z</time>
      </trkpt>
      <trkpt lat="48.473659" lon="1.489380">
        <ele>121.717774</ele>
        <time>2023-02-23T18:00:18.705Z</time>
      </trkpt>
      <trkpt lat="48.473417" lon="1.488640">
        <ele>122.023260</ele>
        <time>2023-02-23T18:00:27.854Z</time>
      </trkpt>
      <trkpt lat="48.472840" lon="1.487256">
        <ele>123.008285</ele>
        <time>2023-02-23T18:00:48.147Z</time>
      </trkpt>
      <trkpt lat="48.472740" lon="1.486922">
        <ele>123.282009</ele>
        <time>2023-02-23T18:00:52.915Z</time>
      </trkpt>
      <trkpt lat="48.472630" lon="1.486407">
        <ele>123.686133</ele>
        <time>2023-02-23T18:01:00.045Z</time>
      </trkpt>
      <trkpt lat="48.472526" lon="1.486053">
        <ele>123.975333</ele>
        <time>2023-02-23T18:01:05.215Z</time>
      </trkpt>
      <trkpt lat="48.472292" lon="1.485559">
        <ele>124.377322</ele>
        <time>2023-02-23T18:01:13.252Z</time>
      </trkpt>
      <trkpt lat="48.472114" lon="1.485260">
        <ele>124.572473</ele>
        <time>2023-02-23T18:01:18.648Z</time>
      </trkpt>
      <trkpt lat="48.471435" lon="1.484277">
        <ele>125.261865</ele>
        <time>2023-02-23T18:01:35.754Z</time>
      </trkpt>
      <trkpt lat="48.471200" lon="1.483849">
        <ele>125.531743</ele>
        <time>2023-02-23T18:01:41.566Z</time>
      </trkpt>
      <trkpt lat="48.470945" lon="1.483216">
        <ele>125.523712</ele>
        <time>2023-02-23T18:01:48.875Z</time>
      </trkpt>
      <trkpt lat="48.470489" lon="1.482472">
        <ele>125.396768</ele>
        <time>2023-02-23T18:01:58.230Z</time>
      </trkpt>
      <trkpt lat="48.470271" lon="1.481981">
        <ele>125.322730</ele>
        <time>2023-02-23T18:02:03.526Z</time>
      </trkpt>
      <trkpt lat="48.470026" lon="1.481313">
        <ele>125.199383</ele>
        <time>2023-02-23T18:02:10.419Z</time>
      </trkpt>
      <trkpt lat="48.469982" lon="1.481123">
        <ele>125.152441</ele>
        <time>2023-02-23T18:02:12.215Z</time>
      </trkpt>
      <trkpt lat="48.470023" lon="1.480957">
        <ele>125.111122</ele>
        <time>2023-02-23T18:02:13.823Z</time>
      </trkpt>
      <trkpt lat="48.469876" lon="1.480894">
        <ele>125.057360</ele>
        <time>2023-02-23T18:02:15.927Z</time>
      </trkpt>
      <trkpt lat="48.469642" lon="1.481256">
        <ele>124.939436</ele>
        <time>2023-02-23T18:02:20.545Z</time>
      </trkpt>
      <trkpt lat="48.469562" lon="1.481419">
        <ele>124.892133</ele>
        <time>2023-02-23T18:02:22.339Z</time>
      </trkpt>
      <trkpt lat="48.469494" lon="1.481604">
        <ele>124.842794</ele>
        <time>2023-02-23T18:02:24.336Z</time>
      </trkpt>
      <trkpt lat="48.469480" lon="1.481665">
        <ele>124.827738</ele>
        <time>2023-02-23T18:02:24.956Z</time>
      </trkpt>
      <trkpt lat="48.469458" lon="1.481734">
        <ele>124.809879</ele>
        <time>2023-02-23T18:02:25.662Z</time>
      </trkpt>
      <trkpt lat="48.469314" lon="1.482183">
        <ele>124.693541</ele>
        <time>2023-02-23T18:02:30.223Z</time>
      </trkpt>
      <trkpt lat="48.469258" lon="1.482349">
        <ele>124.650098</ele>
        <time>2023-02-23T18:02:31.814Z</time>
      </trkpt>
      <trkpt lat="48.469094" lon="1.482670">
        <ele>124.590738</ele>
        <time>2023-02-23T18:02:35.365Z</time>
      </trkpt>
      <trkpt lat="48.468947" lon="1.482846">
        <ele>124.557460</ele>
        <time>2023-02-23T18:02:37.971Z</time>
      </trkpt>
      <trkpt lat="48.468299" lon="1.483261">
        <ele>124.432635</ele>
        <time>2023-02-23T18:02:47.484Z</time>
      </trkpt>
      <trkpt lat="48.468310" lon="1.483153">
        <ele>124.419789</ele>
        <time>2023-02-23T18:02:49.386Z</time>
      </trkpt>
      <trkpt lat="48.468263" lon="1.483042">
        <ele>124.404306</ele>
        <time>2023-02-23T18:02:51.735Z</time>
      </trkpt>
      <trkpt lat="48.468227" lon="1.483026">
        <ele>124.397651</ele>
        <time>2023-02-23T18:02:52.744Z</time>
      </trkpt>
      <trkpt lat="48.468159" lon="1.483020">
        <ele>124.385574</ele>
        <time>2023-02-23T18:02:55.252Z</time>
      </trkpt>
      <trkpt lat="48.468052" lon="1.482856">
        <ele>124.358524</ele>
        <time>2023-02-23T18:02:57.561Z</time>
      </trkpt>
      <trkpt lat="48.467540" lon="1.482584">
        <ele>124.504414</ele>
        <time>2023-02-23T18:03:06.290Z</time>
      </trkpt>
      <trkpt lat="48.467007" lon="1.482444">
        <ele>124.921469</ele>
        <time>2023-02-23T18:03:15.796Z</time>
      </trkpt>
      <trkpt lat="48.466966" lon="1.482465">
        <ele>124.954847</ele>
        <time>2023-02-23T18:03:16.485Z</time>
      </trkpt>
      <trkpt lat="48.466913" lon="1.483324">
        <ele>125.395797</ele>
        <time>2023-02-23T18:03:27.278Z</time>
      </trkpt>
      <trkpt lat="48.466501" lon="1.483187">
        <ele>125.711815</ele>
        <time>2023-02-23T18:03:35.463Z</time>
      </trkpt>
      <trkpt lat="48.465294" lon="1.483068">
        <ele>126.325867</ele>
        <time>2023-02-23T18:03:57.611Z</time>
      </trkpt>
      <trkpt lat="48.464544" lon="1.482766">
        <ele>126.494132</ele>
        <time>2023-02-23T18:04:08.397Z</time>
      </trkpt>
      <trkpt lat="48.464451" lon="1.482773">
        <ele>126.446763</ele>
        <time>2023-02-23T18:04:09.613Z</time>
      </trkpt>
      <trkpt lat="48.464041" lon="1.482904">
        <ele>126.233560</ele>
        <time>2023-02-23T18:04:15.233Z</time>
      </trkpt>
      <trkpt lat="48.463670" lon="1.483212">
        <ele>126.018119</ele>
        <time>2023-02-23T18:04:20.792Z</time>
      </trkpt>
      <trkpt lat="48.463375" lon="1.483516">
        <ele>125.836358</ele>
        <time>2023-02-23T18:04:25.361Z</time>
      </trkpt>
      <trkpt lat="48.463282" lon="1.483639">
        <ele>125.773431</ele>
        <time>2023-02-23T18:04:26.976Z</time>
      </trkpt>
      <trkpt lat="48.463156" lon="1.483813">
        <ele>125.689278</ele>
        <time>2023-02-23T18:04:29.077Z</time>
      </trkpt>
      <trkpt lat="48.463024" lon="1.483996">
        <ele>125.642675</ele>
        <time>2023-02-23T18:04:31.408Z</time>
      </trkpt>
      <trkpt lat="48.462035" lon="1.485218">
        <ele>125.310354</ele>
        <time>2023-02-23T18:04:48.687Z</time>
      </trkpt>
      <trkpt lat="48.461788" lon="1.485551">
        <ele>125.226112</ele>
        <time>2023-02-23T18:04:53.836Z</time>
      </trkpt>
      <trkpt lat="48.461452" lon="1.485778">
        <ele>125.551810</ele>
        <time>2023-02-23T18:04:59.634Z</time>
      </trkpt>
      <trkpt lat="48.460273" lon="1.487292">
        <ele>126.880618</ele>
        <time>2023-02-23T18:05:29.827Z</time>
      </trkpt>
      <trkpt lat="48.460038" lon="1.487535">
        <ele>127.034917</ele>
        <time>2023-02-23T18:05:35.047Z</time>
      </trkpt>
      <trkpt lat="48.459888" lon="1.487622">
        <ele>127.121945</ele>
        <time>2023-02-23T18:05:38.346Z</time>
      </trkpt>
      <trkpt lat="48.459610" lon="1.487650">
        <ele>127.272820</ele>
        <time>2023-02-23T18:05:43.009Z</time>
      </trkpt>
      <trkpt lat="48.459463" lon="1.487612">
        <ele>127.353583</ele>
        <time>2023-02-23T18:05:45.565Z</time>
      </trkpt>
      <trkpt lat="48.459164" lon="1.487452">
        <ele>127.525387</ele>
        <time>2023-02-23T18:05:50.924Z</time>
      </trkpt>
      <trkpt lat="48.458971" lon="1.487082">
        <ele>127.694434</ele>
        <time>2023-02-23T18:05:56.044Z</time>
      </trkpt>
      <trkpt lat="48.458734" lon="1.487594">
        <ele>127.637345</ele>
        <time>2023-02-23T18:06:02.096Z</time>
      </trkpt>
      <trkpt lat="48.458522" lon="1.487798">
        <ele>127.476291</ele>
        <time>2023-02-23T18:06:05.324Z</time>
      </trkpt>
      <trkpt lat="48.458315" lon="1.488041">
        <ele>127.308292</ele>
        <time>2023-02-23T18:06:08.458Z</time>
      </trkpt>
      <trkpt lat="48.457949" lon="1.488395">
        <ele>127.029830</ele>
        <time>2023-02-23T18:06:13.726Z</time>
      </trkpt>
      <trkpt lat="48.457608" lon="1.488596">
        <ele>126.795360</ele>
        <time>2023-02-23T18:06:18.217Z</time>
      </trkpt>
      <trkpt lat="48.457283" lon="1.488695">
        <ele>126.630714</ele>
        <time>2023-02-23T18:06:22.563Z</time>
      </trkpt>
      <trkpt lat="48.456880" lon="1.488724">
        <ele>126.596846</ele>
        <time>2023-02-23T18:06:28.220Z</time>
      </trkpt>
      <trkpt lat="48.455869" lon="1.488795">
        <ele>126.511888</ele>
        <time>2023-02-23T18:06:42.905Z</time>
      </trkpt>
      <trkpt lat="48.454741" lon="1.488851">
        <ele>127.058265</ele>
        <time>2023-02-23T18:07:01.565Z</time>
      </trkpt>
      <trkpt lat="48.454412" lon="1.488832">
        <ele>127.284568</ele>
        <time>2023-02-23T18:07:07.877Z</time>
      </trkpt>
      <trkpt lat="48.454227" lon="1.488823">
        <ele>127.411794</ele>
        <time>2023-02-23T18:07:11.607Z</time>
      </trkpt>
      <trkpt lat="48.453685" lon="1.488824">
        <ele>127.755795</ele>
        <time>2023-02-23T18:07:21.695Z</time>
      </trkpt>
      <trkpt lat="48.453469" lon="1.488745">
        <ele>127.837225</ele>
        <time>2023-02-23T18:07:25.754Z</time>
      </trkpt>
      <trkpt lat="48.453319" lon="1.488613">
        <ele>127.900855</ele>
        <time>2023-02-23T18:07:28.589Z</time>
      </trkpt>
      <trkpt lat="48.453243" lon="1.488468">
        <ele>127.945761</ele>
        <time>2023-02-23T18:07:30.711Z</time>
      </trkpt>
      <trkpt lat="48.453190" lon="1.488393">
        <ele>127.972391</ele>
        <time>2023-02-23T18:07:31.848Z</time>
      </trkpt>
      <trkpt lat="48.453078" lon="1.488429">
        <ele>128.014346</ele>
        <time>2023-02-23T18:07:33.511Z</time>
      </trkpt>
      <trkpt lat="48.452880" lon="1.488514">
        <ele>128.089770</ele>
        <time>2023-02-23T18:07:36.903Z</time>
      </trkpt>
      <trkpt lat="48.452889" lon="1.488553">
        <ele>128.099803</ele>
        <time>2023-02-23T18:07:37.294Z</time>
      </trkpt>
      <trkpt lat="48.452808" lon="1.488573">
        <ele>128.129874</ele>
        <time>2023-02-23T18:07:38.501Z</time>
      </trkpt>
      <trkpt lat="48.452739" lon="1.488588">
        <ele>128.155415</ele>
        <time>2023-02-23T18:07:39.525Z</time>
      </trkpt>
      <trkpt lat="48.452621" lon="1.488617">
        <ele>128.199217</ele>
        <time>2023-02-23T18:07:41.550Z</time>
      </trkpt>
      <trkpt lat="48.452284" lon="1.488710">
        <ele>128.324733</ele>
        <time>2023-02-23T18:07:46.937Z</time>
      </trkpt>
      <trkpt lat="48.451714" lon="1.489290">
        <ele>128.569085</ele>
        <time>2023-02-23T18:08:00.826Z</time>
      </trkpt>
      <trkpt lat="48.451631" lon="1.489361">
        <ele>128.602683</ele>
        <time>2023-02-23T18:08:02.752Z</time>
      </trkpt>
      <trkpt lat="48.450820" lon="1.489677">
        <ele>128.897600</ele>
        <time>2023-02-23T18:08:20.003Z</time>
      </trkpt>
      <trkpt lat="48.450615" lon="1.489661">
        <ele>128.969873</ele>
        <time>2023-02-23T18:08:24.649Z</time>
      </trkpt>
      <trkpt lat="48.450512" lon="1.489634">
        <ele>129.006681</ele>
        <time>2023-02-23T18:08:27.300Z</time>
      </trkpt>
      <trkpt lat="48.450317" lon="1.489586">
        <ele>129.402197</ele>
        <time>2023-02-23T18:08:32.159Z</time>
      </trkpt>
      <trkpt lat="48.450158" lon="1.489553">
        <ele>129.761636</ele>
        <time>2023-02-23T18:08:36.487Z</time>
      </trkpt>
      <trkpt lat="48.449923" lon="1.489684">
        <ele>130.322742</ele>
        <time>2023-02-23T18:08:43.285Z</time>
      </trkpt>
      <trkpt lat="48.449818" lon="1.489747">
        <ele>130.575827</ele>
        <time>2023-02-23T18:08:46.594Z</time>
      </trkpt>
      <trkpt lat="48.449580" lon="1.489669">
        <ele>131.121278</ele>
        <time>2023-02-23T18:08:53.599Z</time>
      </trkpt>
      <trkpt lat="48.449419" lon="1.489736">
        <ele>131.495322</ele>
        <time>2023-02-23T18:08:57.808Z</time>
      </trkpt>
      <trkpt lat="48.449415" lon="1.489740">
        <ele>131.506071</ele>
        <time>2023-02-23T18:08:57.912Z</time>
      </trkpt>
      <trkpt lat="48.449415" lon="1.489740">
        <ele>131.506071</ele>
        <time>2023-02-23T18:08:57.920Z</time>
      </trkpt>
      <trkpt lat="48.449410" lon="1.489730">
        <ele>131.524673</ele>
        <time>2023-02-23T18:08:58.074Z</time>
      </trkpt>
      <trkpt lat="48.449300" lon="1.489850">
        <ele>131.828745</ele>
        <time>2023-02-23T18:09:00.591Z</time>
      </trkpt>
      <trkpt lat="48.449320" lon="1.489820">
        <ele>131.891928</ele>
        <time>2023-02-23T18:09:01.114Z</time>
      </trkpt>
      <trkpt lat="48.449280" lon="1.489880">
        <ele>132.018292</ele>
        <time>2023-02-23T18:09:02.160Z</time>
      </trkpt>
      <trkpt lat="48.449170" lon="1.490080">
        <ele>132.404228</ele>
        <time>2023-02-23T18:09:05.355Z</time>
      </trkpt>
      <trkpt lat="48.448800" lon="1.490310">
        <ele>133.483397</ele>
        <time>2023-02-23T18:09:12.775Z</time>
      </trkpt>
      <trkpt lat="48.448630" lon="1.490390">
        <ele>134.166041</ele>
        <time>2023-02-23T18:09:16.077Z</time>
      </trkpt>
      <trkpt lat="48.448010" lon="1.490370">
        <ele>136.543144</ele>
        <time>2023-02-23T18:09:27.576Z</time>
      </trkpt>
      <trkpt lat="48.447790" lon="1.490400">
        <ele>137.389882</ele>
        <time>2023-02-23T18:09:31.671Z</time>
      </trkpt>
      <trkpt lat="48.447190" lon="1.490730">
        <ele>139.838047</ele>
        <time>2023-02-23T18:09:43.518Z</time>
      </trkpt>
      <trkpt lat="48.446960" lon="1.490780">
        <ele>141.132577</ele>
        <time>2023-02-23T18:09:47.828Z</time>
      </trkpt>
      <trkpt lat="48.446940" lon="1.490540">
        <ele>142.061628</ele>
        <time>2023-02-23T18:09:50.802Z</time>
      </trkpt>
      <trkpt lat="48.446960" lon="1.490290">
        <ele>143.028800</ele>
        <time>2023-02-23T18:09:53.904Z</time>
      </trkpt>
      <trkpt lat="48.447050" lon="1.490080">
        <ele>143.989088</ele>
        <time>2023-02-23T18:09:56.982Z</time>
      </trkpt>
      <trkpt lat="48.447061" lon="1.490085">
        <ele>144.055615</ele>
        <time>2023-02-23T18:09:57.200Z</time>
      </trkpt>
      <trkpt lat="48.447203" lon="1.489864">
        <ele>145.237385</ele>
        <time>2023-02-23T18:10:06.632Z</time>
      </trkpt>
      <trkpt lat="48.447339" lon="1.489712">
        <ele>146.217680</ele>
        <time>2023-02-23T18:10:12.105Z</time>
      </trkpt>
      <trkpt lat="48.447533" lon="1.489500">
        <ele>147.605088</ele>
        <time>2023-02-23T18:10:23.600Z</time>
      </trkpt>
      <trkpt lat="48.448041" lon="1.489167">
        <ele>150.693604</ele>
        <time>2023-02-23T18:10:48.390Z</time>
      </trkpt>
      <trkpt lat="48.448157" lon="1.488946">
        <ele>151.495776</ele>
        <time>2023-02-23T18:10:58.029Z</time>
      </trkpt>
      <trkpt lat="48.447941" lon="1.488685">
        <ele>152.683649</ele>
        <time>2023-02-23T18:11:09.342Z</time>
      </trkpt>
      <trkpt lat="48.447640" lon="1.488558">
        <ele>154.024933</ele>
        <time>2023-02-23T18:11:22.172Z</time>
      </trkpt>
      <trkpt lat="48.447510" lon="1.488392">
        <ele>154.756000</ele>
        <time>2023-02-23T18:11:27.991Z</time>
      </trkpt>
      <trkpt lat="48.447378" lon="1.488174">
        <ele>155.596172</ele>
        <time>2023-02-23T18:11:33.819Z</time>
      </trkpt>
      <trkpt lat="48.447337" lon="1.488061">
        <ele>155.962789</ele>
        <time>2023-02-23T18:11:36.314Z</time>
      </trkpt>
      <trkpt lat="48.447200" lon="1.487895">
        <ele>156.717030</ele>
        <time>2023-02-23T18:11:41.005Z</time>
      </trkpt>
      <trkpt lat="48.446929" lon="1.488220">
        <ele>158.058541</ele>
        <time>2023-02-23T18:11:57.613Z</time>
      </trkpt>
      <trkpt lat="48.446909" lon="1.488246">
        <ele>158.047624</ele>
        <time>2023-02-23T18:11:58.793Z</time>
      </trkpt>
      <trkpt lat="48.446612" lon="1.488677">
        <ele>157.877209</ele>
        <time>2023-02-23T18:12:15.023Z</time>
      </trkpt>
      <trkpt lat="48.446501" lon="1.488735">
        <ele>157.828645</ele>
        <time>2023-02-23T18:12:19.006Z</time>
      </trkpt>
      <trkpt lat="48.446279" lon="1.488884">
        <ele>157.728189</ele>
        <time>2023-02-23T18:12:27.700Z</time>
      </trkpt>
      <trkpt lat="48.446090" lon="1.489084">
        <ele>157.632732</ele>
        <time>2023-02-23T18:12:35.075Z</time>
      </trkpt>
      <trkpt lat="48.445921" lon="1.489350">
        <ele>157.531732</ele>
        <time>2023-02-23T18:12:42.805Z</time>
      </trkpt>
      <trkpt lat="48.445684" lon="1.489479">
        <ele>157.427569</ele>
        <time>2023-02-23T18:12:50.883Z</time>
      </trkpt>
      <trkpt lat="48.444851" lon="1.489785">
        <ele>156.735939</ele>
        <time>2023-02-23T18:13:01.305Z</time>
      </trkpt>
      <trkpt lat="48.444731" lon="1.489872">
        <ele>156.607978</ele>
        <time>2023-02-23T18:13:02.892Z</time>
      </trkpt>
      <trkpt lat="48.444654" lon="1.489907">
        <ele>156.530692</ele>
        <time>2023-02-23T18:13:03.920Z</time>
      </trkpt>
      <trkpt lat="48.444374" lon="1.489983">
        <ele>156.257290</ele>
        <time>2023-02-23T18:13:07.485Z</time>
      </trkpt>
      <trkpt lat="48.444286" lon="1.489944">
        <ele>156.169144</ele>
        <time>2023-02-23T18:13:08.731Z</time>
      </trkpt>
      <trkpt lat="48.444086" lon="1.489866">
        <ele>155.970620</ele>
        <time>2023-02-23T18:13:11.362Z</time>
      </trkpt>
      <trkpt lat="48.443559" lon="1.489866">
        <ele>155.481737</ele>
        <time>2023-02-23T18:13:48.029Z</time>
      </trkpt>
      <trkpt lat="48.443144" lon="1.489906">
        <ele>155.134066</ele>
        <time>2023-02-23T18:14:16.901Z</time>
      </trkpt>
      <trkpt lat="48.442749" lon="1.490166">
        <ele>154.773716</ele>
        <time>2023-02-23T18:14:22.211Z</time>
      </trkpt>
      <trkpt lat="48.442110" lon="1.490534">
        <ele>154.201818</ele>
        <time>2023-02-23T18:14:30.531Z</time>
      </trkpt>
      <trkpt lat="48.442061" lon="1.490563">
        <ele>154.157807</ele>
        <time>2023-02-23T18:14:31.169Z</time>
      </trkpt>
      <trkpt lat="48.442032" lon="1.490564">
        <ele>154.133555</ele>
        <time>2023-02-23T18:14:31.511Z</time>
      </trkpt>
      <trkpt lat="48.441944" lon="1.490564">
        <ele>154.130292</ele>
        <time>2023-02-23T18:14:32.593Z</time>
      </trkpt>
      <trkpt lat="48.441931" lon="1.489953">
        <ele>154.463044</ele>
        <time>2023-02-23T18:14:38.444Z</time>
      </trkpt>
      <trkpt lat="48.441961" lon="1.489769">
        <ele>154.566180</ele>
        <time>2023-02-23T18:14:40.594Z</time>
      </trkpt>
      <trkpt lat="48.442067" lon="1.489591">
        <ele>154.696382</ele>
        <time>2023-02-23T18:14:43.060Z</time>
      </trkpt>
      <trkpt lat="48.442118" lon="1.489468">
        <ele>154.775335</ele>
        <time>2023-02-23T18:14:44.883Z</time>
      </trkpt>
      <trkpt lat="48.442222" lon="1.488842">
        <ele>155.126603</ele>
        <time>2023-02-23T18:14:52.992Z</time>
      </trkpt>
      <trkpt lat="48.442391" lon="1.487723">
        <ele>155.952524</ele>
        <time>2023-02-23T18:15:10.316Z</time>
      </trkpt>
      <trkpt lat="48.442461" lon="1.487258">
        <ele>156.502284</ele>
        <time>2023-02-23T18:15:18.162Z</time>
      </trkpt>
      <trkpt lat="48.442568" lon="1.486583">
        <ele>157.302445</ele>
        <time>2023-02-23T18:15:29.174Z</time>
      </trkpt>
      <trkpt lat="48.442582" lon="1.486497">
        <ele>157.404542</ele>
        <time>2023-02-23T18:15:30.375Z</time>
      </trkpt>
      <trkpt lat="48.442710" lon="1.486001">
        <ele>158.018159</ele>
        <time>2023-02-23T18:15:37.976Z</time>
      </trkpt>
      <trkpt lat="48.442898" lon="1.485635">
        <ele>158.551858</ele>
        <time>2023-02-23T18:15:43.925Z</time>
      </trkpt>
      <trkpt lat="48.443773" lon="1.484347">
        <ele>158.844947</ele>
        <time>2023-02-23T18:16:04.390Z</time>
      </trkpt>
      <trkpt lat="48.443830" lon="1.484137">
        <ele>158.864439</ele>
        <time>2023-02-23T18:16:06.538Z</time>
      </trkpt>
      <trkpt lat="48.443852" lon="1.483983">
        <ele>158.877972</ele>
        <time>2023-02-23T18:16:07.934Z</time>
      </trkpt>
      <trkpt lat="48.443952" lon="1.483742">
        <ele>158.902391</ele>
        <time>2023-02-23T18:16:10.343Z</time>
      </trkpt>
      <trkpt lat="48.444109" lon="1.483555">
        <ele>158.928304</ele>
        <time>2023-02-23T18:16:12.843Z</time>
      </trkpt>
      <trkpt lat="48.444156" lon="1.483526">
        <ele>158.873708</ele>
        <time>2023-02-23T18:16:13.513Z</time>
      </trkpt>
      <trkpt lat="48.444459" lon="1.483410">
        <ele>158.368238</ele>
        <time>2023-02-23T18:16:17.399Z</time>
      </trkpt>
      <trkpt lat="48.444561" lon="1.483423">
        <ele>158.202726</ele>
        <time>2023-02-23T18:16:18.719Z</time>
      </trkpt>
      <trkpt lat="48.444707" lon="1.483434">
        <ele>157.966365</ele>
        <time>2023-02-23T18:16:20.518Z</time>
      </trkpt>
      <trkpt lat="48.444963" lon="1.483473">
        <ele>157.550332</ele>
        <time>2023-02-23T18:16:23.515Z</time>
      </trkpt>
      <trkpt lat="48.445050" lon="1.483490">
        <ele>157.408485</ele>
        <time>2023-02-23T18:16:24.526Z</time>
      </trkpt>
      <trkpt lat="48.445247" lon="1.483521">
        <ele>157.088227</ele>
        <time>2023-02-23T18:16:26.686Z</time>
      </trkpt>
      <trkpt lat="48.446168" lon="1.483713">
        <ele>156.022129</ele>
        <time>2023-02-23T18:16:36.642Z</time>
      </trkpt>
      <trkpt lat="48.446576" lon="1.483798">
        <ele>156.022129</ele>
        <time>2023-02-23T18:16:40.995Z</time>
      </trkpt>
      <trkpt lat="48.446710" lon="1.483748">
        <ele>156.022129</ele>
        <time>2023-02-23T18:16:42.414Z</time>
      </trkpt>
      <trkpt lat="48.446861" lon="1.483494">
        <ele>156.022129</ele>
        <time>2023-02-23T18:16:44.824Z</time>
      </trkpt>
      <trkpt lat="48.446999" lon="1.483268">
        <ele>156.022129</ele>
        <time>2023-02-23T18:16:46.949Z</time>
      </trkpt>
      <trkpt lat="48.447727" lon="1.482064">
        <ele>156.022129</ele>
        <time>2023-02-23T18:16:58.599Z</time>
      </trkpt>
      <trkpt lat="48.447748" lon="1.482029">
        <ele>156.022129</ele>
        <time>2023-02-23T18:16:58.965Z</time>
      </trkpt>
      <trkpt lat="48.447878" lon="1.481805">
        <ele>156.022129</ele>
        <time>2023-02-23T18:17:01.308Z</time>
      </trkpt>
    </trkseg>
  </trk>
</gpx>